<?xml version="1.0" encoding="UTF-8" standalone="no" ?>
<gpx xmlns="http://www.topografix.com/GPX/1/1" xmlns:xsi="http://www.w3.org/2001/XMLSchema-instance" xsi:schemaLocation="http://www.topografix.com/GPX/1/1 http://www.topografix.com/GPX/1/1/gpx.xsd" version="1.1" creator="VisuGPX - https://www.visugpx.com">
  <metadata>
    <name>Grenoble Trail [Urban Trail Nocturne]</name>
  </metadata>
  <trk>
    <name><![CDATA[Grenoble Trail [Urban Trail Nocturne]]]></name>
    <trkseg>
      <trkpt lat="45.19656" lon="5.73955">
        <ele>213</ele>
        <time>2022-08-27T01:59:48.000Z</time>
      </trkpt>
      <trkpt lat="45.19641" lon="5.73951">
        <ele>212.80000305176</ele>
        <time>2022-08-27T01:59:55.000Z</time>
      </trkpt>
      <trkpt lat="45.19633" lon="5.7395">
        <ele>212.80000305176</ele>
        <time>2022-08-27T02:00:00.000Z</time>
      </trkpt>
      <trkpt lat="45.19634" lon="5.73951">
        <ele>212</ele>
        <time>2022-08-27T02:00:09.000Z</time>
      </trkpt>
      <trkpt lat="45.19633" lon="5.73951">
        <ele>211.60000610352</ele>
        <time>2022-08-27T02:00:10.000Z</time>
      </trkpt>
      <trkpt lat="45.19634" lon="5.73951">
        <ele>211</ele>
        <time>2022-08-27T02:00:12.000Z</time>
      </trkpt>
      <trkpt lat="45.19631" lon="5.73953">
        <ele>210</ele>
        <time>2022-08-27T02:00:18.000Z</time>
      </trkpt>
      <trkpt lat="45.19632" lon="5.73957">
        <ele>209.60000610352</ele>
        <time>2022-08-27T02:00:19.000Z</time>
      </trkpt>
      <trkpt lat="45.19635" lon="5.73965">
        <ele>208.39999389648</ele>
        <time>2022-08-27T02:00:23.000Z</time>
      </trkpt>
      <trkpt lat="45.19634" lon="5.73962">
        <ele>207.80000305176</ele>
        <time>2022-08-27T02:00:26.000Z</time>
      </trkpt>
      <trkpt lat="45.19633" lon="5.73965">
        <ele>207.39999389648</ele>
        <time>2022-08-27T02:00:29.000Z</time>
      </trkpt>
      <trkpt lat="45.19631" lon="5.73966">
        <ele>206</ele>
        <time>2022-08-27T02:00:34.000Z</time>
      </trkpt>
      <trkpt lat="45.19632" lon="5.73966">
        <ele>205</ele>
        <time>2022-08-27T02:00:39.000Z</time>
      </trkpt>
      <trkpt lat="45.19614" lon="5.7396">
        <ele>204.80000305176</ele>
        <time>2022-08-27T02:00:50.000Z</time>
      </trkpt>
      <trkpt lat="45.19609" lon="5.73965">
        <ele>204.80000305176</ele>
        <time>2022-08-27T02:00:56.000Z</time>
      </trkpt>
      <trkpt lat="45.1961" lon="5.73971">
        <ele>204.60000610352</ele>
        <time>2022-08-27T02:00:57.000Z</time>
      </trkpt>
      <trkpt lat="45.19612" lon="5.73979">
        <ele>204.60000610352</ele>
        <time>2022-08-27T02:00:59.000Z</time>
      </trkpt>
      <trkpt lat="45.19622" lon="5.73986">
        <ele>204.80000305176</ele>
        <time>2022-08-27T02:01:02.000Z</time>
      </trkpt>
      <trkpt lat="45.19637" lon="5.73996">
        <ele>204.80000305176</ele>
        <time>2022-08-27T02:01:10.000Z</time>
      </trkpt>
      <trkpt lat="45.19639" lon="5.73998">
        <ele>204.80000305176</ele>
        <time>2022-08-27T02:01:11.000Z</time>
      </trkpt>
      <trkpt lat="45.19649" lon="5.74003">
        <ele>204.80000305176</ele>
        <time>2022-08-27T02:01:17.000Z</time>
      </trkpt>
      <trkpt lat="45.19665" lon="5.74008">
        <ele>204.80000305176</ele>
        <time>2022-08-27T02:01:25.000Z</time>
      </trkpt>
      <trkpt lat="45.19675" lon="5.74012">
        <ele>204.80000305176</ele>
        <time>2022-08-27T02:01:30.000Z</time>
      </trkpt>
      <trkpt lat="45.19684" lon="5.74019">
        <ele>204.80000305176</ele>
        <time>2022-08-27T02:01:36.000Z</time>
      </trkpt>
      <trkpt lat="45.19684" lon="5.74021">
        <ele>204.80000305176</ele>
        <time>2022-08-27T02:01:37.000Z</time>
      </trkpt>
      <trkpt lat="45.19687" lon="5.74032">
        <ele>205</ele>
        <time>2022-08-27T02:01:42.000Z</time>
      </trkpt>
      <trkpt lat="45.19689" lon="5.74047">
        <ele>205.19999694824</ele>
        <time>2022-08-27T02:01:48.000Z</time>
      </trkpt>
      <trkpt lat="45.19691" lon="5.74055">
        <ele>205.19999694824</ele>
        <time>2022-08-27T02:01:51.000Z</time>
      </trkpt>
      <trkpt lat="45.19692" lon="5.74065">
        <ele>205.19999694824</ele>
        <time>2022-08-27T02:01:54.000Z</time>
      </trkpt>
      <trkpt lat="45.19694" lon="5.74073">
        <ele>205.19999694824</ele>
        <time>2022-08-27T02:01:57.000Z</time>
      </trkpt>
      <trkpt lat="45.19696" lon="5.74082">
        <ele>205.19999694824</ele>
        <time>2022-08-27T02:02:01.000Z</time>
      </trkpt>
      <trkpt lat="45.19698" lon="5.74098">
        <ele>205.19999694824</ele>
        <time>2022-08-27T02:02:07.000Z</time>
      </trkpt>
      <trkpt lat="45.19701" lon="5.74115">
        <ele>205.19999694824</ele>
        <time>2022-08-27T02:02:13.000Z</time>
      </trkpt>
      <trkpt lat="45.19703" lon="5.7413">
        <ele>205.19999694824</ele>
        <time>2022-08-27T02:02:18.000Z</time>
      </trkpt>
      <trkpt lat="45.19708" lon="5.7415">
        <ele>205.39999389648</ele>
        <time>2022-08-27T02:02:25.000Z</time>
      </trkpt>
      <trkpt lat="45.19713" lon="5.74173">
        <ele>205.19999694824</ele>
        <time>2022-08-27T02:02:33.000Z</time>
      </trkpt>
      <trkpt lat="45.19717" lon="5.74193">
        <ele>205.19999694824</ele>
        <time>2022-08-27T02:02:40.000Z</time>
      </trkpt>
      <trkpt lat="45.1972" lon="5.74209">
        <ele>205.39999389648</ele>
        <time>2022-08-27T02:02:46.000Z</time>
      </trkpt>
      <trkpt lat="45.19725" lon="5.74234">
        <ele>205.39999389648</ele>
        <time>2022-08-27T02:02:54.000Z</time>
      </trkpt>
      <trkpt lat="45.19728" lon="5.74242">
        <ele>205.60000610352</ele>
        <time>2022-08-27T02:03:00.000Z</time>
      </trkpt>
      <trkpt lat="45.19729" lon="5.74243">
        <ele>205.80000305176</ele>
        <time>2022-08-27T02:03:01.000Z</time>
      </trkpt>
      <trkpt lat="45.1973" lon="5.74243">
        <ele>206</ele>
        <time>2022-08-27T02:03:02.000Z</time>
      </trkpt>
      <trkpt lat="45.19737" lon="5.74247">
        <ele>206.80000305176</ele>
        <time>2022-08-27T02:03:06.000Z</time>
      </trkpt>
      <trkpt lat="45.19741" lon="5.74248">
        <ele>207</ele>
        <time>2022-08-27T02:03:08.000Z</time>
      </trkpt>
      <trkpt lat="45.19752" lon="5.74249">
        <ele>207.19999694824</ele>
        <time>2022-08-27T02:03:13.000Z</time>
      </trkpt>
      <trkpt lat="45.1976" lon="5.74248">
        <ele>207.19999694824</ele>
        <time>2022-08-27T02:03:17.000Z</time>
      </trkpt>
      <trkpt lat="45.19766" lon="5.74247">
        <ele>207.19999694824</ele>
        <time>2022-08-27T02:03:20.000Z</time>
      </trkpt>
      <trkpt lat="45.19783" lon="5.74245">
        <ele>207.19999694824</ele>
        <time>2022-08-27T02:03:28.000Z</time>
      </trkpt>
      <trkpt lat="45.19785" lon="5.74244">
        <ele>207.19999694824</ele>
        <time>2022-08-27T02:03:29.000Z</time>
      </trkpt>
      <trkpt lat="45.19803" lon="5.74242">
        <ele>207.19999694824</ele>
        <time>2022-08-27T02:03:37.000Z</time>
      </trkpt>
      <trkpt lat="45.19805" lon="5.74242">
        <ele>207.19999694824</ele>
        <time>2022-08-27T02:03:38.000Z</time>
      </trkpt>
      <trkpt lat="45.19823" lon="5.74236">
        <ele>207.19999694824</ele>
        <time>2022-08-27T02:03:46.000Z</time>
      </trkpt>
      <trkpt lat="45.19836" lon="5.7423">
        <ele>207.19999694824</ele>
        <time>2022-08-27T02:03:52.000Z</time>
      </trkpt>
      <trkpt lat="45.19847" lon="5.74225">
        <ele>207.39999389648</ele>
        <time>2022-08-27T02:03:57.000Z</time>
      </trkpt>
      <trkpt lat="45.1986" lon="5.74219">
        <ele>207.39999389648</ele>
        <time>2022-08-27T02:04:03.000Z</time>
      </trkpt>
      <trkpt lat="45.19877" lon="5.74213">
        <ele>207.39999389648</ele>
        <time>2022-08-27T02:04:11.000Z</time>
      </trkpt>
      <trkpt lat="45.19879" lon="5.74212">
        <ele>207.39999389648</ele>
        <time>2022-08-27T02:04:12.000Z</time>
      </trkpt>
      <trkpt lat="45.19892" lon="5.74206">
        <ele>207.39999389648</ele>
        <time>2022-08-27T02:04:18.000Z</time>
      </trkpt>
      <trkpt lat="45.19909" lon="5.74196">
        <ele>207.39999389648</ele>
        <time>2022-08-27T02:04:26.000Z</time>
      </trkpt>
      <trkpt lat="45.19922" lon="5.74187">
        <ele>207.39999389648</ele>
        <time>2022-08-27T02:04:32.000Z</time>
      </trkpt>
      <trkpt lat="45.19938" lon="5.74175">
        <ele>207.60000610352</ele>
        <time>2022-08-27T02:04:40.000Z</time>
      </trkpt>
      <trkpt lat="45.19942" lon="5.74171">
        <ele>207.60000610352</ele>
        <time>2022-08-27T02:04:42.000Z</time>
      </trkpt>
      <trkpt lat="45.19955" lon="5.74161">
        <ele>207.60000610352</ele>
        <time>2022-08-27T02:04:48.000Z</time>
      </trkpt>
      <trkpt lat="45.19968" lon="5.74147">
        <ele>207.60000610352</ele>
        <time>2022-08-27T02:04:55.000Z</time>
      </trkpt>
      <trkpt lat="45.1998" lon="5.74134">
        <ele>207.60000610352</ele>
        <time>2022-08-27T02:05:02.000Z</time>
      </trkpt>
      <trkpt lat="45.19988" lon="5.74122">
        <ele>208.19999694824</ele>
        <time>2022-08-27T02:05:07.000Z</time>
      </trkpt>
      <trkpt lat="45.19993" lon="5.74116">
        <ele>208.60000610352</ele>
        <time>2022-08-27T02:05:10.000Z</time>
      </trkpt>
      <trkpt lat="45.19998" lon="5.74107">
        <ele>209.19999694824</ele>
        <time>2022-08-27T02:05:14.000Z</time>
      </trkpt>
      <trkpt lat="45.20003" lon="5.74097">
        <ele>209.60000610352</ele>
        <time>2022-08-27T02:05:18.000Z</time>
      </trkpt>
      <trkpt lat="45.20007" lon="5.7409">
        <ele>210.19999694824</ele>
        <time>2022-08-27T02:05:21.000Z</time>
      </trkpt>
      <trkpt lat="45.20011" lon="5.74085">
        <ele>210.60000610352</ele>
        <time>2022-08-27T02:05:24.000Z</time>
      </trkpt>
      <trkpt lat="45.20026" lon="5.74065">
        <ele>211</ele>
        <time>2022-08-27T02:05:32.000Z</time>
      </trkpt>
      <trkpt lat="45.20028" lon="5.74063">
        <ele>211</ele>
        <time>2022-08-27T02:05:33.000Z</time>
      </trkpt>
      <trkpt lat="45.2003" lon="5.74062">
        <ele>211</ele>
        <time>2022-08-27T02:05:34.000Z</time>
      </trkpt>
      <trkpt lat="45.20035" lon="5.74065">
        <ele>211</ele>
        <time>2022-08-27T02:05:37.000Z</time>
      </trkpt>
      <trkpt lat="45.20042" lon="5.74076">
        <ele>211.19999694824</ele>
        <time>2022-08-27T02:05:42.000Z</time>
      </trkpt>
      <trkpt lat="45.20044" lon="5.74079">
        <ele>211.19999694824</ele>
        <time>2022-08-27T02:05:43.000Z</time>
      </trkpt>
      <trkpt lat="45.20057" lon="5.74096">
        <ele>211.60000610352</ele>
        <time>2022-08-27T02:05:51.000Z</time>
      </trkpt>
      <trkpt lat="45.20068" lon="5.74109">
        <ele>211.60000610352</ele>
        <time>2022-08-27T02:05:57.000Z</time>
      </trkpt>
      <trkpt lat="45.20083" lon="5.74127">
        <ele>211.60000610352</ele>
        <time>2022-08-27T02:06:05.000Z</time>
      </trkpt>
      <trkpt lat="45.20096" lon="5.74144">
        <ele>211.60000610352</ele>
        <time>2022-08-27T02:06:13.000Z</time>
      </trkpt>
      <trkpt lat="45.20098" lon="5.74147">
        <ele>211.60000610352</ele>
        <time>2022-08-27T02:06:14.000Z</time>
      </trkpt>
      <trkpt lat="45.20112" lon="5.74165">
        <ele>211.39999389648</ele>
        <time>2022-08-27T02:06:22.000Z</time>
      </trkpt>
      <trkpt lat="45.20115" lon="5.74165">
        <ele>211.39999389648</ele>
        <time>2022-08-27T02:06:24.000Z</time>
      </trkpt>
      <trkpt lat="45.20119" lon="5.74162">
        <ele>211.39999389648</ele>
        <time>2022-08-27T02:06:26.000Z</time>
      </trkpt>
      <trkpt lat="45.20126" lon="5.7415">
        <ele>210.80000305176</ele>
        <time>2022-08-27T02:06:31.000Z</time>
      </trkpt>
      <trkpt lat="45.20134" lon="5.74135">
        <ele>210.19999694824</ele>
        <time>2022-08-27T02:06:36.000Z</time>
      </trkpt>
      <trkpt lat="45.20137" lon="5.74129">
        <ele>209.80000305176</ele>
        <time>2022-08-27T02:06:38.000Z</time>
      </trkpt>
      <trkpt lat="45.20143" lon="5.7412">
        <ele>209</ele>
        <time>2022-08-27T02:06:42.000Z</time>
      </trkpt>
      <trkpt lat="45.20145" lon="5.74116">
        <ele>208.80000305176</ele>
        <time>2022-08-27T02:06:44.000Z</time>
      </trkpt>
      <trkpt lat="45.20151" lon="5.74106">
        <ele>208</ele>
        <time>2022-08-27T02:06:48.000Z</time>
      </trkpt>
      <trkpt lat="45.20156" lon="5.74099">
        <ele>207.60000610352</ele>
        <time>2022-08-27T02:06:51.000Z</time>
      </trkpt>
      <trkpt lat="45.20167" lon="5.74077">
        <ele>207</ele>
        <time>2022-08-27T02:06:59.000Z</time>
      </trkpt>
      <trkpt lat="45.20168" lon="5.74074">
        <ele>207</ele>
        <time>2022-08-27T02:07:00.000Z</time>
      </trkpt>
      <trkpt lat="45.20171" lon="5.74067">
        <ele>206.80000305176</ele>
        <time>2022-08-27T02:07:02.000Z</time>
      </trkpt>
      <trkpt lat="45.20176" lon="5.74056">
        <ele>206.60000610352</ele>
        <time>2022-08-27T02:07:05.000Z</time>
      </trkpt>
      <trkpt lat="45.20183" lon="5.7404">
        <ele>206.60000610352</ele>
        <time>2022-08-27T02:07:10.000Z</time>
      </trkpt>
      <trkpt lat="45.20184" lon="5.74037">
        <ele>206.60000610352</ele>
        <time>2022-08-27T02:07:11.000Z</time>
      </trkpt>
      <trkpt lat="45.20193" lon="5.74022">
        <ele>206.60000610352</ele>
        <time>2022-08-27T02:07:17.000Z</time>
      </trkpt>
      <trkpt lat="45.20203" lon="5.74008">
        <ele>206.60000610352</ele>
        <time>2022-08-27T02:07:23.000Z</time>
      </trkpt>
      <trkpt lat="45.20208" lon="5.74006">
        <ele>206.39999389648</ele>
        <time>2022-08-27T02:07:25.000Z</time>
      </trkpt>
      <trkpt lat="45.20216" lon="5.74004">
        <ele>206.39999389648</ele>
        <time>2022-08-27T02:07:28.000Z</time>
      </trkpt>
      <trkpt lat="45.20224" lon="5.73991">
        <ele>206.19999694824</ele>
        <time>2022-08-27T02:07:33.000Z</time>
      </trkpt>
      <trkpt lat="45.2023" lon="5.73965">
        <ele>206</ele>
        <time>2022-08-27T02:07:40.000Z</time>
      </trkpt>
      <trkpt lat="45.20235" lon="5.73939">
        <ele>206</ele>
        <time>2022-08-27T02:07:48.000Z</time>
      </trkpt>
      <trkpt lat="45.2024" lon="5.7392">
        <ele>206.19999694824</ele>
        <time>2022-08-27T02:07:54.000Z</time>
      </trkpt>
      <trkpt lat="45.20246" lon="5.73897">
        <ele>206.19999694824</ele>
        <time>2022-08-27T02:08:01.000Z</time>
      </trkpt>
      <trkpt lat="45.20247" lon="5.73894">
        <ele>206.19999694824</ele>
        <time>2022-08-27T02:08:02.000Z</time>
      </trkpt>
      <trkpt lat="45.20251" lon="5.73878">
        <ele>206.19999694824</ele>
        <time>2022-08-27T02:08:07.000Z</time>
      </trkpt>
      <trkpt lat="45.20257" lon="5.73852">
        <ele>206.19999694824</ele>
        <time>2022-08-27T02:08:15.000Z</time>
      </trkpt>
      <trkpt lat="45.20257" lon="5.7385">
        <ele>206.19999694824</ele>
        <time>2022-08-27T02:08:16.000Z</time>
      </trkpt>
      <trkpt lat="45.20262" lon="5.73835">
        <ele>206.39999389648</ele>
        <time>2022-08-27T02:08:21.000Z</time>
      </trkpt>
      <trkpt lat="45.20263" lon="5.73831">
        <ele>206.39999389648</ele>
        <time>2022-08-27T02:08:23.000Z</time>
      </trkpt>
      <trkpt lat="45.20267" lon="5.73824">
        <ele>206.39999389648</ele>
        <time>2022-08-27T02:08:27.000Z</time>
      </trkpt>
      <trkpt lat="45.20271" lon="5.73821">
        <ele>206.60000610352</ele>
        <time>2022-08-27T02:08:29.000Z</time>
      </trkpt>
      <trkpt lat="45.20275" lon="5.73824">
        <ele>206.60000610352</ele>
        <time>2022-08-27T02:08:32.000Z</time>
      </trkpt>
      <trkpt lat="45.20277" lon="5.73829">
        <ele>206.80000305176</ele>
        <time>2022-08-27T02:08:34.000Z</time>
      </trkpt>
      <trkpt lat="45.20279" lon="5.73839">
        <ele>206.80000305176</ele>
        <time>2022-08-27T02:08:37.000Z</time>
      </trkpt>
      <trkpt lat="45.20283" lon="5.73856">
        <ele>207.19999694824</ele>
        <time>2022-08-27T02:08:43.000Z</time>
      </trkpt>
      <trkpt lat="45.20283" lon="5.7386">
        <ele>207.19999694824</ele>
        <time>2022-08-27T02:08:44.000Z</time>
      </trkpt>
      <trkpt lat="45.20284" lon="5.73867">
        <ele>207.39999389648</ele>
        <time>2022-08-27T02:08:47.000Z</time>
      </trkpt>
      <trkpt lat="45.20292" lon="5.73879">
        <ele>208</ele>
        <time>2022-08-27T02:08:53.000Z</time>
      </trkpt>
      <trkpt lat="45.20293" lon="5.73881">
        <ele>208</ele>
        <time>2022-08-27T02:08:54.000Z</time>
      </trkpt>
      <trkpt lat="45.20298" lon="5.73888">
        <ele>208.39999389648</ele>
        <time>2022-08-27T02:08:56.000Z</time>
      </trkpt>
      <trkpt lat="45.20304" lon="5.73896">
        <ele>208.60000610352</ele>
        <time>2022-08-27T02:08:59.000Z</time>
      </trkpt>
      <trkpt lat="45.20309" lon="5.73906">
        <ele>209</ele>
        <time>2022-08-27T02:09:03.000Z</time>
      </trkpt>
      <trkpt lat="45.20315" lon="5.73913">
        <ele>209.39999389648</ele>
        <time>2022-08-27T02:09:06.000Z</time>
      </trkpt>
      <trkpt lat="45.20319" lon="5.73919">
        <ele>209.80000305176</ele>
        <time>2022-08-27T02:09:09.000Z</time>
      </trkpt>
      <trkpt lat="45.20323" lon="5.73922">
        <ele>210</ele>
        <time>2022-08-27T02:09:11.000Z</time>
      </trkpt>
      <trkpt lat="45.20324" lon="5.73924">
        <ele>210.19999694824</ele>
        <time>2022-08-27T02:09:12.000Z</time>
      </trkpt>
      <trkpt lat="45.20336" lon="5.73931">
        <ele>211.19999694824</ele>
        <time>2022-08-27T02:09:20.000Z</time>
      </trkpt>
      <trkpt lat="45.20338" lon="5.73932">
        <ele>211.19999694824</ele>
        <time>2022-08-27T02:09:21.000Z</time>
      </trkpt>
      <trkpt lat="45.20343" lon="5.73938">
        <ele>211.80000305176</ele>
        <time>2022-08-27T02:09:25.000Z</time>
      </trkpt>
      <trkpt lat="45.20349" lon="5.7394">
        <ele>212</ele>
        <time>2022-08-27T02:09:28.000Z</time>
      </trkpt>
      <trkpt lat="45.20356" lon="5.73943">
        <ele>212.19999694824</ele>
        <time>2022-08-27T02:09:31.000Z</time>
      </trkpt>
      <trkpt lat="45.20365" lon="5.7395">
        <ele>212.60000610352</ele>
        <time>2022-08-27T02:09:35.000Z</time>
      </trkpt>
      <trkpt lat="45.20378" lon="5.73959">
        <ele>213.39999389648</ele>
        <time>2022-08-27T02:09:41.000Z</time>
      </trkpt>
      <trkpt lat="45.20379" lon="5.73961">
        <ele>213.39999389648</ele>
        <time>2022-08-27T02:09:42.000Z</time>
      </trkpt>
      <trkpt lat="45.20391" lon="5.73979">
        <ele>214.39999389648</ele>
        <time>2022-08-27T02:09:50.000Z</time>
      </trkpt>
      <trkpt lat="45.20401" lon="5.73997">
        <ele>215</ele>
        <time>2022-08-27T02:09:58.000Z</time>
      </trkpt>
      <trkpt lat="45.20404" lon="5.74006">
        <ele>215.39999389648</ele>
        <time>2022-08-27T02:10:02.000Z</time>
      </trkpt>
      <trkpt lat="45.20409" lon="5.74017">
        <ele>215.80000305176</ele>
        <time>2022-08-27T02:10:06.000Z</time>
      </trkpt>
      <trkpt lat="45.20417" lon="5.74032">
        <ele>216.39999389648</ele>
        <time>2022-08-27T02:10:12.000Z</time>
      </trkpt>
      <trkpt lat="45.20422" lon="5.74044">
        <ele>216.80000305176</ele>
        <time>2022-08-27T02:10:16.000Z</time>
      </trkpt>
      <trkpt lat="45.20429" lon="5.7406">
        <ele>217.60000610352</ele>
        <time>2022-08-27T02:10:22.000Z</time>
      </trkpt>
      <trkpt lat="45.20431" lon="5.74065">
        <ele>217.60000610352</ele>
        <time>2022-08-27T02:10:24.000Z</time>
      </trkpt>
      <trkpt lat="45.2044" lon="5.74087">
        <ele>218.39999389648</ele>
        <time>2022-08-27T02:10:32.000Z</time>
      </trkpt>
      <trkpt lat="45.20444" lon="5.74092">
        <ele>218.60000610352</ele>
        <time>2022-08-27T02:10:34.000Z</time>
      </trkpt>
      <trkpt lat="45.20454" lon="5.74097">
        <ele>219</ele>
        <time>2022-08-27T02:10:39.000Z</time>
      </trkpt>
      <trkpt lat="45.20462" lon="5.74088">
        <ele>219.39999389648</ele>
        <time>2022-08-27T02:10:44.000Z</time>
      </trkpt>
      <trkpt lat="45.20466" lon="5.74081">
        <ele>219.60000610352</ele>
        <time>2022-08-27T02:10:47.000Z</time>
      </trkpt>
      <trkpt lat="45.20471" lon="5.74069">
        <ele>219.80000305176</ele>
        <time>2022-08-27T02:10:51.000Z</time>
      </trkpt>
      <trkpt lat="45.20477" lon="5.7405">
        <ele>220</ele>
        <time>2022-08-27T02:10:57.000Z</time>
      </trkpt>
      <trkpt lat="45.20482" lon="5.74022">
        <ele>220.19999694824</ele>
        <time>2022-08-27T02:11:05.000Z</time>
      </trkpt>
      <trkpt lat="45.20483" lon="5.74003">
        <ele>220.39999389648</ele>
        <time>2022-08-27T02:11:11.000Z</time>
      </trkpt>
      <trkpt lat="45.20482" lon="5.73989">
        <ele>220.60000610352</ele>
        <time>2022-08-27T02:11:16.000Z</time>
      </trkpt>
      <trkpt lat="45.20481" lon="5.73981">
        <ele>220.80000305176</ele>
        <time>2022-08-27T02:11:19.000Z</time>
      </trkpt>
      <trkpt lat="45.2048" lon="5.73953">
        <ele>220.80000305176</ele>
        <time>2022-08-27T02:11:27.000Z</time>
      </trkpt>
      <trkpt lat="45.2048" lon="5.73931">
        <ele>220.80000305176</ele>
        <time>2022-08-27T02:11:34.000Z</time>
      </trkpt>
      <trkpt lat="45.20481" lon="5.73929">
        <ele>220.80000305176</ele>
        <time>2022-08-27T02:11:35.000Z</time>
      </trkpt>
      <trkpt lat="45.20484" lon="5.73921">
        <ele>221</ele>
        <time>2022-08-27T02:11:38.000Z</time>
      </trkpt>
      <trkpt lat="45.20487" lon="5.73916">
        <ele>221</ele>
        <time>2022-08-27T02:11:40.000Z</time>
      </trkpt>
      <trkpt lat="45.20498" lon="5.73903">
        <ele>221.80000305176</ele>
        <time>2022-08-27T02:11:47.000Z</time>
      </trkpt>
      <trkpt lat="45.20505" lon="5.739">
        <ele>223</ele>
        <time>2022-08-27T02:11:52.000Z</time>
      </trkpt>
      <trkpt lat="45.20507" lon="5.73898">
        <ele>223.39999389648</ele>
        <time>2022-08-27T02:11:54.000Z</time>
      </trkpt>
      <trkpt lat="45.20511" lon="5.73888">
        <ele>224</ele>
        <time>2022-08-27T02:11:58.000Z</time>
      </trkpt>
      <trkpt lat="45.20514" lon="5.73881">
        <ele>224.39999389648</ele>
        <time>2022-08-27T02:12:01.000Z</time>
      </trkpt>
      <trkpt lat="45.2052" lon="5.73861">
        <ele>225</ele>
        <time>2022-08-27T02:12:07.000Z</time>
      </trkpt>
      <trkpt lat="45.2052" lon="5.73859">
        <ele>225.19999694824</ele>
        <time>2022-08-27T02:12:08.000Z</time>
      </trkpt>
      <trkpt lat="45.20519" lon="5.73856">
        <ele>225.39999389648</ele>
        <time>2022-08-27T02:12:09.000Z</time>
      </trkpt>
      <trkpt lat="45.20518" lon="5.73851">
        <ele>225.39999389648</ele>
        <time>2022-08-27T02:12:11.000Z</time>
      </trkpt>
      <trkpt lat="45.20508" lon="5.73838">
        <ele>224.19999694824</ele>
        <time>2022-08-27T02:12:18.000Z</time>
      </trkpt>
      <trkpt lat="45.20505" lon="5.73836">
        <ele>224</ele>
        <time>2022-08-27T02:12:19.000Z</time>
      </trkpt>
      <trkpt lat="45.20492" lon="5.73825">
        <ele>223</ele>
        <time>2022-08-27T02:12:25.000Z</time>
      </trkpt>
      <trkpt lat="45.2048" lon="5.73814">
        <ele>222.19999694824</ele>
        <time>2022-08-27T02:12:32.000Z</time>
      </trkpt>
      <trkpt lat="45.20478" lon="5.73812">
        <ele>222</ele>
        <time>2022-08-27T02:12:33.000Z</time>
      </trkpt>
      <trkpt lat="45.20477" lon="5.73811">
        <ele>221.80000305176</ele>
        <time>2022-08-27T02:12:34.000Z</time>
      </trkpt>
      <trkpt lat="45.20469" lon="5.73803">
        <ele>221.19999694824</ele>
        <time>2022-08-27T02:12:38.000Z</time>
      </trkpt>
      <trkpt lat="45.20466" lon="5.738">
        <ele>220.80000305176</ele>
        <time>2022-08-27T02:12:40.000Z</time>
      </trkpt>
      <trkpt lat="45.20456" lon="5.73792">
        <ele>220.39999389648</ele>
        <time>2022-08-27T02:12:45.000Z</time>
      </trkpt>
      <trkpt lat="45.20442" lon="5.73774">
        <ele>219.80000305176</ele>
        <time>2022-08-27T02:12:52.000Z</time>
      </trkpt>
      <trkpt lat="45.20441" lon="5.73772">
        <ele>219.80000305176</ele>
        <time>2022-08-27T02:12:53.000Z</time>
      </trkpt>
      <trkpt lat="45.20426" lon="5.73756">
        <ele>219.19999694824</ele>
        <time>2022-08-27T02:13:00.000Z</time>
      </trkpt>
      <trkpt lat="45.20416" lon="5.73743">
        <ele>218.80000305176</ele>
        <time>2022-08-27T02:13:06.000Z</time>
      </trkpt>
      <trkpt lat="45.20414" lon="5.7374">
        <ele>218.60000610352</ele>
        <time>2022-08-27T02:13:07.000Z</time>
      </trkpt>
      <trkpt lat="45.2041" lon="5.73734">
        <ele>218.39999389648</ele>
        <time>2022-08-27T02:13:09.000Z</time>
      </trkpt>
      <trkpt lat="45.20408" lon="5.73732">
        <ele>218.39999389648</ele>
        <time>2022-08-27T02:13:10.000Z</time>
      </trkpt>
      <trkpt lat="45.20404" lon="5.73728">
        <ele>218.19999694824</ele>
        <time>2022-08-27T02:13:12.000Z</time>
      </trkpt>
      <trkpt lat="45.20398" lon="5.73721">
        <ele>218</ele>
        <time>2022-08-27T02:13:15.000Z</time>
      </trkpt>
      <trkpt lat="45.20393" lon="5.73712">
        <ele>217.60000610352</ele>
        <time>2022-08-27T02:13:19.000Z</time>
      </trkpt>
      <trkpt lat="45.20389" lon="5.73707">
        <ele>217.39999389648</ele>
        <time>2022-08-27T02:13:21.000Z</time>
      </trkpt>
      <trkpt lat="45.20382" lon="5.73699">
        <ele>217.19999694824</ele>
        <time>2022-08-27T02:13:25.000Z</time>
      </trkpt>
      <trkpt lat="45.20381" lon="5.73699">
        <ele>217.19999694824</ele>
        <time>2022-08-27T02:13:26.000Z</time>
      </trkpt>
      <trkpt lat="45.20377" lon="5.73701">
        <ele>217</ele>
        <time>2022-08-27T02:13:29.000Z</time>
      </trkpt>
      <trkpt lat="45.20375" lon="5.73704">
        <ele>216.80000305176</ele>
        <time>2022-08-27T02:13:30.000Z</time>
      </trkpt>
      <trkpt lat="45.20372" lon="5.73709">
        <ele>216.39999389648</ele>
        <time>2022-08-27T02:13:32.000Z</time>
      </trkpt>
      <trkpt lat="45.20362" lon="5.7372">
        <ele>215.39999389648</ele>
        <time>2022-08-27T02:13:37.000Z</time>
      </trkpt>
      <trkpt lat="45.20356" lon="5.73726">
        <ele>215</ele>
        <time>2022-08-27T02:13:40.000Z</time>
      </trkpt>
      <trkpt lat="45.20347" lon="5.73735">
        <ele>214.80000305176</ele>
        <time>2022-08-27T02:13:44.000Z</time>
      </trkpt>
      <trkpt lat="45.2034" lon="5.73745">
        <ele>214.39999389648</ele>
        <time>2022-08-27T02:13:49.000Z</time>
      </trkpt>
      <trkpt lat="45.20338" lon="5.73747">
        <ele>214.39999389648</ele>
        <time>2022-08-27T02:13:50.000Z</time>
      </trkpt>
      <trkpt lat="45.20327" lon="5.73758">
        <ele>213.19999694824</ele>
        <time>2022-08-27T02:13:57.000Z</time>
      </trkpt>
      <trkpt lat="45.20315" lon="5.73772">
        <ele>212.19999694824</ele>
        <time>2022-08-27T02:14:05.000Z</time>
      </trkpt>
      <trkpt lat="45.20313" lon="5.73773">
        <ele>212.19999694824</ele>
        <time>2022-08-27T02:14:06.000Z</time>
      </trkpt>
      <trkpt lat="45.20305" lon="5.73781">
        <ele>211.19999694824</ele>
        <time>2022-08-27T02:14:11.000Z</time>
      </trkpt>
      <trkpt lat="45.20303" lon="5.73782">
        <ele>211.19999694824</ele>
        <time>2022-08-27T02:14:12.000Z</time>
      </trkpt>
      <trkpt lat="45.20299" lon="5.73784">
        <ele>211</ele>
        <time>2022-08-27T02:14:14.000Z</time>
      </trkpt>
      <trkpt lat="45.20295" lon="5.73788">
        <ele>210.39999389648</ele>
        <time>2022-08-27T02:14:16.000Z</time>
      </trkpt>
      <trkpt lat="45.20292" lon="5.7379">
        <ele>210</ele>
        <time>2022-08-27T02:14:17.000Z</time>
      </trkpt>
      <trkpt lat="45.20277" lon="5.73802">
        <ele>209</ele>
        <time>2022-08-27T02:14:24.000Z</time>
      </trkpt>
      <trkpt lat="45.20275" lon="5.73803">
        <ele>208.80000305176</ele>
        <time>2022-08-27T02:14:25.000Z</time>
      </trkpt>
      <trkpt lat="45.20273" lon="5.73803">
        <ele>208.80000305176</ele>
        <time>2022-08-27T02:14:26.000Z</time>
      </trkpt>
      <trkpt lat="45.20269" lon="5.73803">
        <ele>206.60000610352</ele>
        <time>2022-08-27T02:14:28.000Z</time>
      </trkpt>
      <trkpt lat="45.20268" lon="5.73802">
        <ele>206.60000610352</ele>
        <time>2022-08-27T02:14:29.000Z</time>
      </trkpt>
      <trkpt lat="45.20267" lon="5.73798">
        <ele>206.39999389648</ele>
        <time>2022-08-27T02:14:31.000Z</time>
      </trkpt>
      <trkpt lat="45.20268" lon="5.73788">
        <ele>205.60000610352</ele>
        <time>2022-08-27T02:14:34.000Z</time>
      </trkpt>
      <trkpt lat="45.20268" lon="5.73785">
        <ele>205.39999389648</ele>
        <time>2022-08-27T02:14:35.000Z</time>
      </trkpt>
      <trkpt lat="45.20268" lon="5.73765">
        <ele>205.19999694824</ele>
        <time>2022-08-27T02:14:41.000Z</time>
      </trkpt>
      <trkpt lat="45.20269" lon="5.73741">
        <ele>205.19999694824</ele>
        <time>2022-08-27T02:14:48.000Z</time>
      </trkpt>
      <trkpt lat="45.20269" lon="5.73738">
        <ele>205.19999694824</ele>
        <time>2022-08-27T02:14:49.000Z</time>
      </trkpt>
      <trkpt lat="45.20265" lon="5.73712">
        <ele>205</ele>
        <time>2022-08-27T02:14:57.000Z</time>
      </trkpt>
      <trkpt lat="45.20261" lon="5.73688">
        <ele>205</ele>
        <time>2022-08-27T02:15:05.000Z</time>
      </trkpt>
      <trkpt lat="45.20259" lon="5.7368">
        <ele>205.19999694824</ele>
        <time>2022-08-27T02:15:07.000Z</time>
      </trkpt>
      <trkpt lat="45.20257" lon="5.73661">
        <ele>205.39999389648</ele>
        <time>2022-08-27T02:15:13.000Z</time>
      </trkpt>
      <trkpt lat="45.20258" lon="5.73659">
        <ele>205.39999389648</ele>
        <time>2022-08-27T02:15:14.000Z</time>
      </trkpt>
      <trkpt lat="45.20263" lon="5.73653">
        <ele>205.60000610352</ele>
        <time>2022-08-27T02:15:18.000Z</time>
      </trkpt>
      <trkpt lat="45.20265" lon="5.73651">
        <ele>206</ele>
        <time>2022-08-27T02:15:20.000Z</time>
      </trkpt>
      <trkpt lat="45.20268" lon="5.73647">
        <ele>206.60000610352</ele>
        <time>2022-08-27T02:15:23.000Z</time>
      </trkpt>
      <trkpt lat="45.20272" lon="5.73643">
        <ele>207.19999694824</ele>
        <time>2022-08-27T02:15:26.000Z</time>
      </trkpt>
      <trkpt lat="45.20273" lon="5.73642">
        <ele>207.19999694824</ele>
        <time>2022-08-27T02:15:27.000Z</time>
      </trkpt>
      <trkpt lat="45.20276" lon="5.73639">
        <ele>207.80000305176</ele>
        <time>2022-08-27T02:15:29.000Z</time>
      </trkpt>
      <trkpt lat="45.20281" lon="5.73637">
        <ele>208.39999389648</ele>
        <time>2022-08-27T02:15:32.000Z</time>
      </trkpt>
      <trkpt lat="45.20286" lon="5.73634">
        <ele>208.80000305176</ele>
        <time>2022-08-27T02:15:34.000Z</time>
      </trkpt>
      <trkpt lat="45.20293" lon="5.73631">
        <ele>209.80000305176</ele>
        <time>2022-08-27T02:15:38.000Z</time>
      </trkpt>
      <trkpt lat="45.20295" lon="5.73629">
        <ele>210.19999694824</ele>
        <time>2022-08-27T02:15:39.000Z</time>
      </trkpt>
      <trkpt lat="45.20298" lon="5.73625">
        <ele>210.80000305176</ele>
        <time>2022-08-27T02:15:41.000Z</time>
      </trkpt>
      <trkpt lat="45.20299" lon="5.73623">
        <ele>211</ele>
        <time>2022-08-27T02:15:42.000Z</time>
      </trkpt>
      <trkpt lat="45.203" lon="5.73619">
        <ele>211.19999694824</ele>
        <time>2022-08-27T02:15:44.000Z</time>
      </trkpt>
      <trkpt lat="45.2031" lon="5.73606">
        <ele>212.19999694824</ele>
        <time>2022-08-27T02:15:51.000Z</time>
      </trkpt>
      <trkpt lat="45.20315" lon="5.736">
        <ele>212.60000610352</ele>
        <time>2022-08-27T02:15:54.000Z</time>
      </trkpt>
      <trkpt lat="45.20316" lon="5.73598">
        <ele>213</ele>
        <time>2022-08-27T02:15:56.000Z</time>
      </trkpt>
      <trkpt lat="45.20315" lon="5.73591">
        <ele>213.19999694824</ele>
        <time>2022-08-27T02:15:59.000Z</time>
      </trkpt>
      <trkpt lat="45.2031" lon="5.73581">
        <ele>212.80000305176</ele>
        <time>2022-08-27T02:16:03.000Z</time>
      </trkpt>
      <trkpt lat="45.20302" lon="5.73568">
        <ele>212</ele>
        <time>2022-08-27T02:16:08.000Z</time>
      </trkpt>
      <trkpt lat="45.20301" lon="5.73567">
        <ele>212</ele>
        <time>2022-08-27T02:16:09.000Z</time>
      </trkpt>
      <trkpt lat="45.20291" lon="5.73557">
        <ele>211.19999694824</ele>
        <time>2022-08-27T02:16:15.000Z</time>
      </trkpt>
      <trkpt lat="45.20288" lon="5.73555">
        <ele>211</ele>
        <time>2022-08-27T02:16:16.000Z</time>
      </trkpt>
      <trkpt lat="45.20286" lon="5.73554">
        <ele>211</ele>
        <time>2022-08-27T02:16:17.000Z</time>
      </trkpt>
      <trkpt lat="45.20277" lon="5.73555">
        <ele>210.60000610352</ele>
        <time>2022-08-27T02:16:20.000Z</time>
      </trkpt>
      <trkpt lat="45.20266" lon="5.73561">
        <ele>209.80000305176</ele>
        <time>2022-08-27T02:16:24.000Z</time>
      </trkpt>
      <trkpt lat="45.20255" lon="5.73568">
        <ele>208.60000610352</ele>
        <time>2022-08-27T02:16:29.000Z</time>
      </trkpt>
      <trkpt lat="45.20253" lon="5.73569">
        <ele>208.19999694824</ele>
        <time>2022-08-27T02:16:30.000Z</time>
      </trkpt>
      <trkpt lat="45.20247" lon="5.73574">
        <ele>207.39999389648</ele>
        <time>2022-08-27T02:16:33.000Z</time>
      </trkpt>
      <trkpt lat="45.20239" lon="5.73579">
        <ele>206.39999389648</ele>
        <time>2022-08-27T02:16:37.000Z</time>
      </trkpt>
      <trkpt lat="45.20236" lon="5.73581">
        <ele>205.80000305176</ele>
        <time>2022-08-27T02:16:41.000Z</time>
      </trkpt>
      <trkpt lat="45.20235" lon="5.7358">
        <ele>205.60000610352</ele>
        <time>2022-08-27T02:16:42.000Z</time>
      </trkpt>
      <trkpt lat="45.20227" lon="5.73569">
        <ele>205.60000610352</ele>
        <time>2022-08-27T02:16:48.000Z</time>
      </trkpt>
      <trkpt lat="45.20219" lon="5.73551">
        <ele>205.60000610352</ele>
        <time>2022-08-27T02:16:54.000Z</time>
      </trkpt>
      <trkpt lat="45.20208" lon="5.73532">
        <ele>205.39999389648</ele>
        <time>2022-08-27T02:17:00.000Z</time>
      </trkpt>
      <trkpt lat="45.20207" lon="5.73529">
        <ele>205.39999389648</ele>
        <time>2022-08-27T02:17:01.000Z</time>
      </trkpt>
      <trkpt lat="45.20205" lon="5.73526">
        <ele>205.39999389648</ele>
        <time>2022-08-27T02:17:02.000Z</time>
      </trkpt>
      <trkpt lat="45.20193" lon="5.73511">
        <ele>205</ele>
        <time>2022-08-27T02:17:09.000Z</time>
      </trkpt>
      <trkpt lat="45.20191" lon="5.73508">
        <ele>205</ele>
        <time>2022-08-27T02:17:10.000Z</time>
      </trkpt>
      <trkpt lat="45.20179" lon="5.7349">
        <ele>205</ele>
        <time>2022-08-27T02:17:17.000Z</time>
      </trkpt>
      <trkpt lat="45.20178" lon="5.73484">
        <ele>204.80000305176</ele>
        <time>2022-08-27T02:17:19.000Z</time>
      </trkpt>
      <trkpt lat="45.2018" lon="5.7348">
        <ele>204.80000305176</ele>
        <time>2022-08-27T02:17:21.000Z</time>
      </trkpt>
      <trkpt lat="45.20192" lon="5.73462">
        <ele>205.60000610352</ele>
        <time>2022-08-27T02:17:30.000Z</time>
      </trkpt>
      <trkpt lat="45.20205" lon="5.73452">
        <ele>206.60000610352</ele>
        <time>2022-08-27T02:17:37.000Z</time>
      </trkpt>
      <trkpt lat="45.20212" lon="5.73446">
        <ele>207.60000610352</ele>
        <time>2022-08-27T02:17:41.000Z</time>
      </trkpt>
      <trkpt lat="45.20211" lon="5.73445">
        <ele>207.80000305176</ele>
        <time>2022-08-27T02:17:42.000Z</time>
      </trkpt>
      <trkpt lat="45.2021" lon="5.7344">
        <ele>208</ele>
        <time>2022-08-27T02:17:43.000Z</time>
      </trkpt>
      <trkpt lat="45.20209" lon="5.73428">
        <ele>208</ele>
        <time>2022-08-27T02:17:48.000Z</time>
      </trkpt>
      <trkpt lat="45.20209" lon="5.73427">
        <ele>208</ele>
        <time>2022-08-27T02:17:49.000Z</time>
      </trkpt>
      <trkpt lat="45.20208" lon="5.73425">
        <ele>208</ele>
        <time>2022-08-27T02:17:50.000Z</time>
      </trkpt>
      <trkpt lat="45.20205" lon="5.73417">
        <ele>208</ele>
        <time>2022-08-27T02:17:54.000Z</time>
      </trkpt>
      <trkpt lat="45.20196" lon="5.73407">
        <ele>207.80000305176</ele>
        <time>2022-08-27T02:17:59.000Z</time>
      </trkpt>
      <trkpt lat="45.20193" lon="5.73404">
        <ele>207.60000610352</ele>
        <time>2022-08-27T02:18:00.000Z</time>
      </trkpt>
      <trkpt lat="45.20182" lon="5.734">
        <ele>207.39999389648</ele>
        <time>2022-08-27T02:18:05.000Z</time>
      </trkpt>
      <trkpt lat="45.20179" lon="5.73399">
        <ele>207.39999389648</ele>
        <time>2022-08-27T02:18:06.000Z</time>
      </trkpt>
      <trkpt lat="45.20165" lon="5.73394">
        <ele>207.39999389648</ele>
        <time>2022-08-27T02:18:10.000Z</time>
      </trkpt>
      <trkpt lat="45.2016" lon="5.73393">
        <ele>207.19999694824</ele>
        <time>2022-08-27T02:18:12.000Z</time>
      </trkpt>
      <trkpt lat="45.20156" lon="5.73393">
        <ele>207.19999694824</ele>
        <time>2022-08-27T02:18:13.000Z</time>
      </trkpt>
      <trkpt lat="45.20137" lon="5.7339">
        <ele>206.80000305176</ele>
        <time>2022-08-27T02:18:18.000Z</time>
      </trkpt>
      <trkpt lat="45.20122" lon="5.73383">
        <ele>206.80000305176</ele>
        <time>2022-08-27T02:18:25.000Z</time>
      </trkpt>
      <trkpt lat="45.2011" lon="5.73376">
        <ele>206.60000610352</ele>
        <time>2022-08-27T02:18:32.000Z</time>
      </trkpt>
      <trkpt lat="45.20109" lon="5.73374">
        <ele>206.60000610352</ele>
        <time>2022-08-27T02:18:33.000Z</time>
      </trkpt>
      <trkpt lat="45.20101" lon="5.73368">
        <ele>206.60000610352</ele>
        <time>2022-08-27T02:18:37.000Z</time>
      </trkpt>
      <trkpt lat="45.20092" lon="5.73363">
        <ele>206.60000610352</ele>
        <time>2022-08-27T02:18:41.000Z</time>
      </trkpt>
      <trkpt lat="45.20086" lon="5.7336">
        <ele>206.39999389648</ele>
        <time>2022-08-27T02:18:44.000Z</time>
      </trkpt>
      <trkpt lat="45.20074" lon="5.73353">
        <ele>206.39999389648</ele>
        <time>2022-08-27T02:18:50.000Z</time>
      </trkpt>
      <trkpt lat="45.20055" lon="5.73346">
        <ele>206.80000305176</ele>
        <time>2022-08-27T02:18:59.000Z</time>
      </trkpt>
      <trkpt lat="45.20036" lon="5.73338">
        <ele>207</ele>
        <time>2022-08-27T02:19:07.000Z</time>
      </trkpt>
      <trkpt lat="45.20023" lon="5.73331">
        <ele>207.39999389648</ele>
        <time>2022-08-27T02:19:13.000Z</time>
      </trkpt>
      <trkpt lat="45.20006" lon="5.73325">
        <ele>207.39999389648</ele>
        <time>2022-08-27T02:19:20.000Z</time>
      </trkpt>
      <trkpt lat="45.19994" lon="5.73321">
        <ele>207.60000610352</ele>
        <time>2022-08-27T02:19:25.000Z</time>
      </trkpt>
      <trkpt lat="45.19992" lon="5.7332">
        <ele>207.60000610352</ele>
        <time>2022-08-27T02:19:26.000Z</time>
      </trkpt>
      <trkpt lat="45.19975" lon="5.73314">
        <ele>208</ele>
        <time>2022-08-27T02:19:34.000Z</time>
      </trkpt>
      <trkpt lat="45.19957" lon="5.73305">
        <ele>208</ele>
        <time>2022-08-27T02:19:42.000Z</time>
      </trkpt>
      <trkpt lat="45.19941" lon="5.73301">
        <ele>208.39999389648</ele>
        <time>2022-08-27T02:19:49.000Z</time>
      </trkpt>
      <trkpt lat="45.19924" lon="5.73293">
        <ele>208.39999389648</ele>
        <time>2022-08-27T02:19:57.000Z</time>
      </trkpt>
      <trkpt lat="45.19907" lon="5.73283">
        <ele>208.60000610352</ele>
        <time>2022-08-27T02:20:05.000Z</time>
      </trkpt>
      <trkpt lat="45.19905" lon="5.73282">
        <ele>208.60000610352</ele>
        <time>2022-08-27T02:20:06.000Z</time>
      </trkpt>
      <trkpt lat="45.19892" lon="5.73273">
        <ele>208.60000610352</ele>
        <time>2022-08-27T02:20:12.000Z</time>
      </trkpt>
      <trkpt lat="45.19882" lon="5.73268">
        <ele>208.60000610352</ele>
        <time>2022-08-27T02:20:17.000Z</time>
      </trkpt>
      <trkpt lat="45.19874" lon="5.73267">
        <ele>208.60000610352</ele>
        <time>2022-08-27T02:20:21.000Z</time>
      </trkpt>
      <trkpt lat="45.1987" lon="5.73266">
        <ele>208.39999389648</ele>
        <time>2022-08-27T02:20:23.000Z</time>
      </trkpt>
      <trkpt lat="45.19868" lon="5.73266">
        <ele>208.39999389648</ele>
        <time>2022-08-27T02:20:25.000Z</time>
      </trkpt>
      <trkpt lat="45.19865" lon="5.73266">
        <ele>208.19999694824</ele>
        <time>2022-08-27T02:20:27.000Z</time>
      </trkpt>
      <trkpt lat="45.19848" lon="5.73262">
        <ele>208.39999389648</ele>
        <time>2022-08-27T02:20:35.000Z</time>
      </trkpt>
      <trkpt lat="45.19828" lon="5.73255">
        <ele>208.19999694824</ele>
        <time>2022-08-27T02:20:43.000Z</time>
      </trkpt>
      <trkpt lat="45.19826" lon="5.73254">
        <ele>208.19999694824</ele>
        <time>2022-08-27T02:20:44.000Z</time>
      </trkpt>
      <trkpt lat="45.19818" lon="5.7325">
        <ele>208</ele>
        <time>2022-08-27T02:20:49.000Z</time>
      </trkpt>
      <trkpt lat="45.19817" lon="5.73251">
        <ele>208</ele>
        <time>2022-08-27T02:20:50.000Z</time>
      </trkpt>
      <trkpt lat="45.19816" lon="5.73251">
        <ele>208</ele>
        <time>2022-08-27T02:20:51.000Z</time>
      </trkpt>
      <trkpt lat="45.19814" lon="5.73255">
        <ele>208</ele>
        <time>2022-08-27T02:20:54.000Z</time>
      </trkpt>
      <trkpt lat="45.19808" lon="5.73258">
        <ele>208.19999694824</ele>
        <time>2022-08-27T02:20:57.000Z</time>
      </trkpt>
      <trkpt lat="45.19804" lon="5.73257">
        <ele>208.19999694824</ele>
        <time>2022-08-27T02:20:59.000Z</time>
      </trkpt>
      <trkpt lat="45.19785" lon="5.73249">
        <ele>208.39999389648</ele>
        <time>2022-08-27T02:21:06.000Z</time>
      </trkpt>
      <trkpt lat="45.19782" lon="5.73248">
        <ele>208.39999389648</ele>
        <time>2022-08-27T02:21:07.000Z</time>
      </trkpt>
      <trkpt lat="45.19766" lon="5.73245">
        <ele>208.60000610352</ele>
        <time>2022-08-27T02:21:14.000Z</time>
      </trkpt>
      <trkpt lat="45.19748" lon="5.73247">
        <ele>208.80000305176</ele>
        <time>2022-08-27T02:21:22.000Z</time>
      </trkpt>
      <trkpt lat="45.19745" lon="5.73257">
        <ele>209</ele>
        <time>2022-08-27T02:21:25.000Z</time>
      </trkpt>
      <trkpt lat="45.19742" lon="5.73268">
        <ele>209.39999389648</ele>
        <time>2022-08-27T02:21:28.000Z</time>
      </trkpt>
      <trkpt lat="45.19737" lon="5.73288">
        <ele>209.60000610352</ele>
        <time>2022-08-27T02:21:34.000Z</time>
      </trkpt>
      <trkpt lat="45.19735" lon="5.73295">
        <ele>209.80000305176</ele>
        <time>2022-08-27T02:21:36.000Z</time>
      </trkpt>
      <trkpt lat="45.19729" lon="5.7332">
        <ele>209.80000305176</ele>
        <time>2022-08-27T02:21:44.000Z</time>
      </trkpt>
      <trkpt lat="45.19727" lon="5.73326">
        <ele>209.80000305176</ele>
        <time>2022-08-27T02:21:46.000Z</time>
      </trkpt>
      <trkpt lat="45.19722" lon="5.73345">
        <ele>209.39999389648</ele>
        <time>2022-08-27T02:21:52.000Z</time>
      </trkpt>
      <trkpt lat="45.19715" lon="5.73366">
        <ele>209</ele>
        <time>2022-08-27T02:21:58.000Z</time>
      </trkpt>
      <trkpt lat="45.19711" lon="5.73375">
        <ele>208.60000610352</ele>
        <time>2022-08-27T02:22:01.000Z</time>
      </trkpt>
      <trkpt lat="45.19709" lon="5.73377">
        <ele>208.39999389648</ele>
        <time>2022-08-27T02:22:02.000Z</time>
      </trkpt>
      <trkpt lat="45.19702" lon="5.73386">
        <ele>207.60000610352</ele>
        <time>2022-08-27T02:22:07.000Z</time>
      </trkpt>
      <trkpt lat="45.19698" lon="5.73388">
        <ele>207.19999694824</ele>
        <time>2022-08-27T02:22:09.000Z</time>
      </trkpt>
      <trkpt lat="45.19696" lon="5.73387">
        <ele>207</ele>
        <time>2022-08-27T02:22:10.000Z</time>
      </trkpt>
      <trkpt lat="45.19694" lon="5.73385">
        <ele>206.80000305176</ele>
        <time>2022-08-27T02:22:12.000Z</time>
      </trkpt>
      <trkpt lat="45.19692" lon="5.73383">
        <ele>206.80000305176</ele>
        <time>2022-08-27T02:22:13.000Z</time>
      </trkpt>
      <trkpt lat="45.19691" lon="5.7338">
        <ele>206.80000305176</ele>
        <time>2022-08-27T02:22:14.000Z</time>
      </trkpt>
      <trkpt lat="45.19687" lon="5.73369">
        <ele>206.80000305176</ele>
        <time>2022-08-27T02:22:18.000Z</time>
      </trkpt>
      <trkpt lat="45.19676" lon="5.7335">
        <ele>207</ele>
        <time>2022-08-27T02:22:25.000Z</time>
      </trkpt>
      <trkpt lat="45.19663" lon="5.73332">
        <ele>207</ele>
        <time>2022-08-27T02:22:32.000Z</time>
      </trkpt>
      <trkpt lat="45.1966" lon="5.73327">
        <ele>207</ele>
        <time>2022-08-27T02:22:34.000Z</time>
      </trkpt>
      <trkpt lat="45.19649" lon="5.73313">
        <ele>207</ele>
        <time>2022-08-27T02:22:40.000Z</time>
      </trkpt>
      <trkpt lat="45.19636" lon="5.73295">
        <ele>207.19999694824</ele>
        <time>2022-08-27T02:22:48.000Z</time>
      </trkpt>
      <trkpt lat="45.19625" lon="5.73278">
        <ele>207.39999389648</ele>
        <time>2022-08-27T02:22:55.000Z</time>
      </trkpt>
      <trkpt lat="45.19611" lon="5.73258">
        <ele>207.80000305176</ele>
        <time>2022-08-27T02:23:03.000Z</time>
      </trkpt>
      <trkpt lat="45.196" lon="5.73241">
        <ele>208</ele>
        <time>2022-08-27T02:23:10.000Z</time>
      </trkpt>
      <trkpt lat="45.19587" lon="5.73221">
        <ele>208</ele>
        <time>2022-08-27T02:23:18.000Z</time>
      </trkpt>
      <trkpt lat="45.19585" lon="5.73218">
        <ele>208</ele>
        <time>2022-08-27T02:23:19.000Z</time>
      </trkpt>
      <trkpt lat="45.19574" lon="5.73202">
        <ele>208.60000610352</ele>
        <time>2022-08-27T02:23:26.000Z</time>
      </trkpt>
      <trkpt lat="45.19565" lon="5.73187">
        <ele>208.39999389648</ele>
        <time>2022-08-27T02:23:32.000Z</time>
      </trkpt>
      <trkpt lat="45.19552" lon="5.73169">
        <ele>209</ele>
        <time>2022-08-27T02:23:40.000Z</time>
      </trkpt>
      <trkpt lat="45.19539" lon="5.73149">
        <ele>209.39999389648</ele>
        <time>2022-08-27T02:23:48.000Z</time>
      </trkpt>
      <trkpt lat="45.19534" lon="5.73142">
        <ele>209.39999389648</ele>
        <time>2022-08-27T02:23:51.000Z</time>
      </trkpt>
      <trkpt lat="45.1952" lon="5.73123">
        <ele>209.60000610352</ele>
        <time>2022-08-27T02:23:59.000Z</time>
      </trkpt>
      <trkpt lat="45.19519" lon="5.7312">
        <ele>209.60000610352</ele>
        <time>2022-08-27T02:24:00.000Z</time>
      </trkpt>
      <trkpt lat="45.19505" lon="5.731">
        <ele>209.80000305176</ele>
        <time>2022-08-27T02:24:08.000Z</time>
      </trkpt>
      <trkpt lat="45.19491" lon="5.73082">
        <ele>209.80000305176</ele>
        <time>2022-08-27T02:24:16.000Z</time>
      </trkpt>
      <trkpt lat="45.19488" lon="5.73079">
        <ele>209.80000305176</ele>
        <time>2022-08-27T02:24:18.000Z</time>
      </trkpt>
      <trkpt lat="45.19484" lon="5.73073">
        <ele>210</ele>
        <time>2022-08-27T02:24:21.000Z</time>
      </trkpt>
      <trkpt lat="45.19484" lon="5.73066">
        <ele>210.39999389648</ele>
        <time>2022-08-27T02:24:24.000Z</time>
      </trkpt>
      <trkpt lat="45.19485" lon="5.7306">
        <ele>210.39999389648</ele>
        <time>2022-08-27T02:24:26.000Z</time>
      </trkpt>
      <trkpt lat="45.19486" lon="5.73058">
        <ele>210.39999389648</ele>
        <time>2022-08-27T02:24:27.000Z</time>
      </trkpt>
      <trkpt lat="45.195" lon="5.73042">
        <ele>210.60000610352</ele>
        <time>2022-08-27T02:24:34.000Z</time>
      </trkpt>
      <trkpt lat="45.19502" lon="5.73039">
        <ele>210.60000610352</ele>
        <time>2022-08-27T02:24:35.000Z</time>
      </trkpt>
      <trkpt lat="45.19513" lon="5.73027">
        <ele>211</ele>
        <time>2022-08-27T02:24:41.000Z</time>
      </trkpt>
      <trkpt lat="45.19524" lon="5.73012">
        <ele>211</ele>
        <time>2022-08-27T02:24:48.000Z</time>
      </trkpt>
      <trkpt lat="45.19538" lon="5.72993">
        <ele>210.60000610352</ele>
        <time>2022-08-27T02:24:56.000Z</time>
      </trkpt>
      <trkpt lat="45.19534" lon="5.72977">
        <ele>210.19999694824</ele>
        <time>2022-08-27T02:25:01.000Z</time>
      </trkpt>
      <trkpt lat="45.19524" lon="5.72959">
        <ele>210</ele>
        <time>2022-08-27T02:25:08.000Z</time>
      </trkpt>
      <trkpt lat="45.19517" lon="5.72949">
        <ele>209.60000610352</ele>
        <time>2022-08-27T02:25:12.000Z</time>
      </trkpt>
      <trkpt lat="45.1951" lon="5.72939">
        <ele>209.60000610352</ele>
        <time>2022-08-27T02:25:16.000Z</time>
      </trkpt>
      <trkpt lat="45.19496" lon="5.72917">
        <ele>209.19999694824</ele>
        <time>2022-08-27T02:25:24.000Z</time>
      </trkpt>
      <trkpt lat="45.19495" lon="5.72915">
        <ele>209.19999694824</ele>
        <time>2022-08-27T02:25:25.000Z</time>
      </trkpt>
      <trkpt lat="45.19481" lon="5.72895">
        <ele>208.80000305176</ele>
        <time>2022-08-27T02:25:32.000Z</time>
      </trkpt>
      <trkpt lat="45.19475" lon="5.72886">
        <ele>208.60000610352</ele>
        <time>2022-08-27T02:25:35.000Z</time>
      </trkpt>
      <trkpt lat="45.19472" lon="5.72881">
        <ele>208.60000610352</ele>
        <time>2022-08-27T02:25:37.000Z</time>
      </trkpt>
      <trkpt lat="45.19461" lon="5.72857">
        <ele>208.60000610352</ele>
        <time>2022-08-27T02:25:45.000Z</time>
      </trkpt>
      <trkpt lat="45.19452" lon="5.72834">
        <ele>208.19999694824</ele>
        <time>2022-08-27T02:25:52.000Z</time>
      </trkpt>
      <trkpt lat="45.19451" lon="5.72831">
        <ele>208.19999694824</ele>
        <time>2022-08-27T02:25:53.000Z</time>
      </trkpt>
      <trkpt lat="45.19444" lon="5.72811">
        <ele>207.60000610352</ele>
        <time>2022-08-27T02:25:59.000Z</time>
      </trkpt>
      <trkpt lat="45.19441" lon="5.72797">
        <ele>207.80000305176</ele>
        <time>2022-08-27T02:26:03.000Z</time>
      </trkpt>
      <trkpt lat="45.19439" lon="5.72787">
        <ele>207.60000610352</ele>
        <time>2022-08-27T02:26:06.000Z</time>
      </trkpt>
      <trkpt lat="45.19438" lon="5.72783">
        <ele>207.60000610352</ele>
        <time>2022-08-27T02:26:07.000Z</time>
      </trkpt>
      <trkpt lat="45.19434" lon="5.72762">
        <ele>207.39999389648</ele>
        <time>2022-08-27T02:26:13.000Z</time>
      </trkpt>
      <trkpt lat="45.1943" lon="5.72739">
        <ele>207</ele>
        <time>2022-08-27T02:26:20.000Z</time>
      </trkpt>
      <trkpt lat="45.19428" lon="5.72728">
        <ele>206.39999389648</ele>
        <time>2022-08-27T02:26:23.000Z</time>
      </trkpt>
      <trkpt lat="45.19427" lon="5.72722">
        <ele>206.19999694824</ele>
        <time>2022-08-27T02:26:25.000Z</time>
      </trkpt>
      <trkpt lat="45.19421" lon="5.72696">
        <ele>205.60000610352</ele>
        <time>2022-08-27T02:26:32.000Z</time>
      </trkpt>
      <trkpt lat="45.19421" lon="5.72693">
        <ele>205.39999389648</ele>
        <time>2022-08-27T02:26:33.000Z</time>
      </trkpt>
      <trkpt lat="45.1942" lon="5.72689">
        <ele>205.19999694824</ele>
        <time>2022-08-27T02:26:34.000Z</time>
      </trkpt>
      <trkpt lat="45.19419" lon="5.72685">
        <ele>205.19999694824</ele>
        <time>2022-08-27T02:26:35.000Z</time>
      </trkpt>
      <trkpt lat="45.19415" lon="5.72663">
        <ele>205.19999694824</ele>
        <time>2022-08-27T02:26:41.000Z</time>
      </trkpt>
      <trkpt lat="45.19409" lon="5.72642">
        <ele>205</ele>
        <time>2022-08-27T02:26:47.000Z</time>
      </trkpt>
      <trkpt lat="45.19405" lon="5.72618">
        <ele>204.80000305176</ele>
        <time>2022-08-27T02:26:54.000Z</time>
      </trkpt>
      <trkpt lat="45.194" lon="5.72591">
        <ele>205</ele>
        <time>2022-08-27T02:27:01.000Z</time>
      </trkpt>
      <trkpt lat="45.19395" lon="5.72566">
        <ele>205</ele>
        <time>2022-08-27T02:27:08.000Z</time>
      </trkpt>
      <trkpt lat="45.19392" lon="5.72541">
        <ele>205.60000610352</ele>
        <time>2022-08-27T02:27:15.000Z</time>
      </trkpt>
      <trkpt lat="45.19391" lon="5.72535">
        <ele>206</ele>
        <time>2022-08-27T02:27:17.000Z</time>
      </trkpt>
      <trkpt lat="45.19391" lon="5.72524">
        <ele>206.39999389648</ele>
        <time>2022-08-27T02:27:20.000Z</time>
      </trkpt>
      <trkpt lat="45.1939" lon="5.72518">
        <ele>206.80000305176</ele>
        <time>2022-08-27T02:27:22.000Z</time>
      </trkpt>
      <trkpt lat="45.19387" lon="5.72502">
        <ele>207</ele>
        <time>2022-08-27T02:27:27.000Z</time>
      </trkpt>
      <trkpt lat="45.19382" lon="5.72482">
        <ele>207.60000610352</ele>
        <time>2022-08-27T02:27:33.000Z</time>
      </trkpt>
      <trkpt lat="45.19379" lon="5.72464">
        <ele>207.80000305176</ele>
        <time>2022-08-27T02:27:38.000Z</time>
      </trkpt>
      <trkpt lat="45.19375" lon="5.72449">
        <ele>208.39999389648</ele>
        <time>2022-08-27T02:27:43.000Z</time>
      </trkpt>
      <trkpt lat="45.1937" lon="5.72425">
        <ele>208.80000305176</ele>
        <time>2022-08-27T02:27:49.000Z</time>
      </trkpt>
      <trkpt lat="45.19365" lon="5.72402">
        <ele>209</ele>
        <time>2022-08-27T02:27:55.000Z</time>
      </trkpt>
      <trkpt lat="45.19363" lon="5.72381">
        <ele>209.39999389648</ele>
        <time>2022-08-27T02:28:01.000Z</time>
      </trkpt>
      <trkpt lat="45.19362" lon="5.72371">
        <ele>209.80000305176</ele>
        <time>2022-08-27T02:28:04.000Z</time>
      </trkpt>
      <trkpt lat="45.19362" lon="5.72357">
        <ele>210.19999694824</ele>
        <time>2022-08-27T02:28:08.000Z</time>
      </trkpt>
      <trkpt lat="45.19363" lon="5.72331">
        <ele>210.60000610352</ele>
        <time>2022-08-27T02:28:16.000Z</time>
      </trkpt>
      <trkpt lat="45.19363" lon="5.72315">
        <ele>210.60000610352</ele>
        <time>2022-08-27T02:28:21.000Z</time>
      </trkpt>
      <trkpt lat="45.19362" lon="5.72301">
        <ele>210.80000305176</ele>
        <time>2022-08-27T02:28:25.000Z</time>
      </trkpt>
      <trkpt lat="45.19362" lon="5.7229">
        <ele>211</ele>
        <time>2022-08-27T02:28:28.000Z</time>
      </trkpt>
      <trkpt lat="45.19359" lon="5.72263">
        <ele>211.19999694824</ele>
        <time>2022-08-27T02:28:36.000Z</time>
      </trkpt>
      <trkpt lat="45.19357" lon="5.72246">
        <ele>211</ele>
        <time>2022-08-27T02:28:41.000Z</time>
      </trkpt>
      <trkpt lat="45.19355" lon="5.72223">
        <ele>211</ele>
        <time>2022-08-27T02:28:48.000Z</time>
      </trkpt>
      <trkpt lat="45.19354" lon="5.72202">
        <ele>210.80000305176</ele>
        <time>2022-08-27T02:28:54.000Z</time>
      </trkpt>
      <trkpt lat="45.19354" lon="5.72198">
        <ele>210.80000305176</ele>
        <time>2022-08-27T02:28:55.000Z</time>
      </trkpt>
      <trkpt lat="45.19352" lon="5.72173">
        <ele>210.80000305176</ele>
        <time>2022-08-27T02:29:02.000Z</time>
      </trkpt>
      <trkpt lat="45.1935" lon="5.72152">
        <ele>210.60000610352</ele>
        <time>2022-08-27T02:29:07.000Z</time>
      </trkpt>
      <trkpt lat="45.19347" lon="5.72127">
        <ele>210.19999694824</ele>
        <time>2022-08-27T02:29:14.000Z</time>
      </trkpt>
      <trkpt lat="45.19347" lon="5.72123">
        <ele>210.19999694824</ele>
        <time>2022-08-27T02:29:15.000Z</time>
      </trkpt>
      <trkpt lat="45.19344" lon="5.72097">
        <ele>210</ele>
        <time>2022-08-27T02:29:22.000Z</time>
      </trkpt>
      <trkpt lat="45.19342" lon="5.72071">
        <ele>209.80000305176</ele>
        <time>2022-08-27T02:29:29.000Z</time>
      </trkpt>
      <trkpt lat="45.1934" lon="5.72057">
        <ele>209.80000305176</ele>
        <time>2022-08-27T02:29:33.000Z</time>
      </trkpt>
      <trkpt lat="45.19339" lon="5.72043">
        <ele>209.60000610352</ele>
        <time>2022-08-27T02:29:37.000Z</time>
      </trkpt>
      <trkpt lat="45.19338" lon="5.7202">
        <ele>209.19999694824</ele>
        <time>2022-08-27T02:29:44.000Z</time>
      </trkpt>
      <trkpt lat="45.19337" lon="5.71997">
        <ele>209.19999694824</ele>
        <time>2022-08-27T02:29:50.000Z</time>
      </trkpt>
      <trkpt lat="45.1934" lon="5.71978">
        <ele>208.80000305176</ele>
        <time>2022-08-27T02:29:56.000Z</time>
      </trkpt>
      <trkpt lat="45.19339" lon="5.71969">
        <ele>209</ele>
        <time>2022-08-27T02:29:59.000Z</time>
      </trkpt>
      <trkpt lat="45.19337" lon="5.71966">
        <ele>209</ele>
        <time>2022-08-27T02:30:00.000Z</time>
      </trkpt>
      <trkpt lat="45.19326" lon="5.71956">
        <ele>208.80000305176</ele>
        <time>2022-08-27T02:30:05.000Z</time>
      </trkpt>
      <trkpt lat="45.19312" lon="5.71961">
        <ele>208.80000305176</ele>
        <time>2022-08-27T02:30:11.000Z</time>
      </trkpt>
      <trkpt lat="45.19296" lon="5.71973">
        <ele>209</ele>
        <time>2022-08-27T02:30:18.000Z</time>
      </trkpt>
      <trkpt lat="45.19294" lon="5.71974">
        <ele>209</ele>
        <time>2022-08-27T02:30:19.000Z</time>
      </trkpt>
      <trkpt lat="45.19277" lon="5.71987">
        <ele>209.60000610352</ele>
        <time>2022-08-27T02:30:27.000Z</time>
      </trkpt>
      <trkpt lat="45.1927" lon="5.71992">
        <ele>209.60000610352</ele>
        <time>2022-08-27T02:30:30.000Z</time>
      </trkpt>
      <trkpt lat="45.19252" lon="5.72004">
        <ele>209.39999389648</ele>
        <time>2022-08-27T02:30:38.000Z</time>
      </trkpt>
      <trkpt lat="45.1925" lon="5.72006">
        <ele>209.39999389648</ele>
        <time>2022-08-27T02:30:39.000Z</time>
      </trkpt>
      <trkpt lat="45.19239" lon="5.72011">
        <ele>209.19999694824</ele>
        <time>2022-08-27T02:30:44.000Z</time>
      </trkpt>
      <trkpt lat="45.19238" lon="5.72009">
        <ele>209.19999694824</ele>
        <time>2022-08-27T02:30:45.000Z</time>
      </trkpt>
      <trkpt lat="45.19237" lon="5.72001">
        <ele>209.19999694824</ele>
        <time>2022-08-27T02:30:47.000Z</time>
      </trkpt>
      <trkpt lat="45.1924" lon="5.71973">
        <ele>208.60000610352</ele>
        <time>2022-08-27T02:30:54.000Z</time>
      </trkpt>
      <trkpt lat="45.19241" lon="5.7197">
        <ele>208.39999389648</ele>
        <time>2022-08-27T02:30:55.000Z</time>
      </trkpt>
      <trkpt lat="45.19245" lon="5.71944">
        <ele>207.80000305176</ele>
        <time>2022-08-27T02:31:02.000Z</time>
      </trkpt>
      <trkpt lat="45.19246" lon="5.71937">
        <ele>207.60000610352</ele>
        <time>2022-08-27T02:31:04.000Z</time>
      </trkpt>
      <trkpt lat="45.1925" lon="5.71913">
        <ele>207.39999389648</ele>
        <time>2022-08-27T02:31:11.000Z</time>
      </trkpt>
      <trkpt lat="45.19253" lon="5.71899">
        <ele>207.19999694824</ele>
        <time>2022-08-27T02:31:15.000Z</time>
      </trkpt>
      <trkpt lat="45.1926" lon="5.71873">
        <ele>206.80000305176</ele>
        <time>2022-08-27T02:31:23.000Z</time>
      </trkpt>
      <trkpt lat="45.19262" lon="5.71863">
        <ele>206.60000610352</ele>
        <time>2022-08-27T02:31:26.000Z</time>
      </trkpt>
      <trkpt lat="45.19266" lon="5.7184">
        <ele>206.80000305176</ele>
        <time>2022-08-27T02:31:33.000Z</time>
      </trkpt>
      <trkpt lat="45.19274" lon="5.71818">
        <ele>206.60000610352</ele>
        <time>2022-08-27T02:31:40.000Z</time>
      </trkpt>
      <trkpt lat="45.19281" lon="5.718">
        <ele>206.80000305176</ele>
        <time>2022-08-27T02:31:46.000Z</time>
      </trkpt>
      <trkpt lat="45.19289" lon="5.71779">
        <ele>206.80000305176</ele>
        <time>2022-08-27T02:31:53.000Z</time>
      </trkpt>
      <trkpt lat="45.19292" lon="5.71766">
        <ele>207</ele>
        <time>2022-08-27T02:31:57.000Z</time>
      </trkpt>
      <trkpt lat="45.19292" lon="5.71763">
        <ele>206.80000305176</ele>
        <time>2022-08-27T02:31:58.000Z</time>
      </trkpt>
      <trkpt lat="45.19302" lon="5.71737">
        <ele>206.60000610352</ele>
        <time>2022-08-27T02:32:06.000Z</time>
      </trkpt>
      <trkpt lat="45.1931" lon="5.71716">
        <ele>207</ele>
        <time>2022-08-27T02:32:13.000Z</time>
      </trkpt>
      <trkpt lat="45.1932" lon="5.71694">
        <ele>207</ele>
        <time>2022-08-27T02:32:20.000Z</time>
      </trkpt>
      <trkpt lat="45.19321" lon="5.7169">
        <ele>207</ele>
        <time>2022-08-27T02:32:21.000Z</time>
      </trkpt>
      <trkpt lat="45.19331" lon="5.71669">
        <ele>207</ele>
        <time>2022-08-27T02:32:28.000Z</time>
      </trkpt>
      <trkpt lat="45.19342" lon="5.71648">
        <ele>207</ele>
        <time>2022-08-27T02:32:36.000Z</time>
      </trkpt>
      <trkpt lat="45.19354" lon="5.71626">
        <ele>207</ele>
        <time>2022-08-27T02:32:44.000Z</time>
      </trkpt>
      <trkpt lat="45.19365" lon="5.7161">
        <ele>207.19999694824</ele>
        <time>2022-08-27T02:32:50.000Z</time>
      </trkpt>
      <trkpt lat="45.1938" lon="5.7159">
        <ele>207.19999694824</ele>
        <time>2022-08-27T02:32:58.000Z</time>
      </trkpt>
      <trkpt lat="45.19382" lon="5.71588">
        <ele>207.19999694824</ele>
        <time>2022-08-27T02:32:59.000Z</time>
      </trkpt>
      <trkpt lat="45.19396" lon="5.7157">
        <ele>207.39999389648</ele>
        <time>2022-08-27T02:33:07.000Z</time>
      </trkpt>
      <trkpt lat="45.19411" lon="5.71555">
        <ele>207.39999389648</ele>
        <time>2022-08-27T02:33:15.000Z</time>
      </trkpt>
      <trkpt lat="45.19412" lon="5.71553">
        <ele>207.39999389648</ele>
        <time>2022-08-27T02:33:16.000Z</time>
      </trkpt>
      <trkpt lat="45.19427" lon="5.71536">
        <ele>207.19999694824</ele>
        <time>2022-08-27T02:33:24.000Z</time>
      </trkpt>
      <trkpt lat="45.19438" lon="5.71525">
        <ele>207.39999389648</ele>
        <time>2022-08-27T02:33:30.000Z</time>
      </trkpt>
      <trkpt lat="45.19456" lon="5.71513">
        <ele>207.39999389648</ele>
        <time>2022-08-27T02:33:38.000Z</time>
      </trkpt>
      <trkpt lat="45.19459" lon="5.71511">
        <ele>207.39999389648</ele>
        <time>2022-08-27T02:33:39.000Z</time>
      </trkpt>
      <trkpt lat="45.19477" lon="5.71497">
        <ele>207.39999389648</ele>
        <time>2022-08-27T02:33:47.000Z</time>
      </trkpt>
      <trkpt lat="45.19495" lon="5.71483">
        <ele>207.39999389648</ele>
        <time>2022-08-27T02:33:55.000Z</time>
      </trkpt>
      <trkpt lat="45.19507" lon="5.71475">
        <ele>207.39999389648</ele>
        <time>2022-08-27T02:34:01.000Z</time>
      </trkpt>
      <trkpt lat="45.19523" lon="5.71469">
        <ele>207.39999389648</ele>
        <time>2022-08-27T02:34:08.000Z</time>
      </trkpt>
      <trkpt lat="45.19527" lon="5.71467">
        <ele>207.60000610352</ele>
        <time>2022-08-27T02:34:10.000Z</time>
      </trkpt>
      <trkpt lat="45.19534" lon="5.71464">
        <ele>207.60000610352</ele>
        <time>2022-08-27T02:34:13.000Z</time>
      </trkpt>
      <trkpt lat="45.19545" lon="5.7146">
        <ele>207.60000610352</ele>
        <time>2022-08-27T02:34:18.000Z</time>
      </trkpt>
      <trkpt lat="45.19565" lon="5.71456">
        <ele>207.60000610352</ele>
        <time>2022-08-27T02:34:26.000Z</time>
      </trkpt>
      <trkpt lat="45.19583" lon="5.71452">
        <ele>207.80000305176</ele>
        <time>2022-08-27T02:34:33.000Z</time>
      </trkpt>
      <trkpt lat="45.19588" lon="5.71451">
        <ele>207.80000305176</ele>
        <time>2022-08-27T02:34:35.000Z</time>
      </trkpt>
      <trkpt lat="45.19605" lon="5.71449">
        <ele>207.60000610352</ele>
        <time>2022-08-27T02:34:42.000Z</time>
      </trkpt>
      <trkpt lat="45.19624" lon="5.71446">
        <ele>208</ele>
        <time>2022-08-27T02:34:50.000Z</time>
      </trkpt>
      <trkpt lat="45.19627" lon="5.71446">
        <ele>208.19999694824</ele>
        <time>2022-08-27T02:34:51.000Z</time>
      </trkpt>
      <trkpt lat="45.19643" lon="5.71447">
        <ele>207.80000305176</ele>
        <time>2022-08-27T02:34:58.000Z</time>
      </trkpt>
      <trkpt lat="45.19663" lon="5.71449">
        <ele>207.80000305176</ele>
        <time>2022-08-27T02:35:07.000Z</time>
      </trkpt>
      <trkpt lat="45.19683" lon="5.7145">
        <ele>207.80000305176</ele>
        <time>2022-08-27T02:35:15.000Z</time>
      </trkpt>
      <trkpt lat="45.197" lon="5.7145">
        <ele>207.60000610352</ele>
        <time>2022-08-27T02:35:22.000Z</time>
      </trkpt>
      <trkpt lat="45.19702" lon="5.71449">
        <ele>207.60000610352</ele>
        <time>2022-08-27T02:35:23.000Z</time>
      </trkpt>
      <trkpt lat="45.19721" lon="5.71451">
        <ele>207.60000610352</ele>
        <time>2022-08-27T02:35:31.000Z</time>
      </trkpt>
      <trkpt lat="45.19733" lon="5.71452">
        <ele>207.60000610352</ele>
        <time>2022-08-27T02:35:36.000Z</time>
      </trkpt>
      <trkpt lat="45.19752" lon="5.71452">
        <ele>207.80000305176</ele>
        <time>2022-08-27T02:35:44.000Z</time>
      </trkpt>
      <trkpt lat="45.19754" lon="5.71452">
        <ele>207.80000305176</ele>
        <time>2022-08-27T02:35:45.000Z</time>
      </trkpt>
      <trkpt lat="45.1976" lon="5.7145">
        <ele>207.80000305176</ele>
        <time>2022-08-27T02:35:48.000Z</time>
      </trkpt>
      <trkpt lat="45.19761" lon="5.71449">
        <ele>207.80000305176</ele>
        <time>2022-08-27T02:35:49.000Z</time>
      </trkpt>
      <trkpt lat="45.19766" lon="5.71439">
        <ele>207.60000610352</ele>
        <time>2022-08-27T02:35:53.000Z</time>
      </trkpt>
      <trkpt lat="45.19768" lon="5.71437">
        <ele>207.60000610352</ele>
        <time>2022-08-27T02:35:54.000Z</time>
      </trkpt>
      <trkpt lat="45.19783" lon="5.71432">
        <ele>207.60000610352</ele>
        <time>2022-08-27T02:36:01.000Z</time>
      </trkpt>
      <trkpt lat="45.19803" lon="5.71431">
        <ele>208</ele>
        <time>2022-08-27T02:36:09.000Z</time>
      </trkpt>
      <trkpt lat="45.19814" lon="5.7143">
        <ele>208.19999694824</ele>
        <time>2022-08-27T02:36:14.000Z</time>
      </trkpt>
      <trkpt lat="45.19832" lon="5.7143">
        <ele>208</ele>
        <time>2022-08-27T02:36:22.000Z</time>
      </trkpt>
      <trkpt lat="45.19835" lon="5.7143">
        <ele>208</ele>
        <time>2022-08-27T02:36:23.000Z</time>
      </trkpt>
      <trkpt lat="45.1985" lon="5.71429">
        <ele>208</ele>
        <time>2022-08-27T02:36:30.000Z</time>
      </trkpt>
      <trkpt lat="45.19869" lon="5.7143">
        <ele>208.19999694824</ele>
        <time>2022-08-27T02:36:38.000Z</time>
      </trkpt>
      <trkpt lat="45.19885" lon="5.71429">
        <ele>208.19999694824</ele>
        <time>2022-08-27T02:36:44.000Z</time>
      </trkpt>
      <trkpt lat="45.19904" lon="5.71426">
        <ele>208.19999694824</ele>
        <time>2022-08-27T02:36:52.000Z</time>
      </trkpt>
      <trkpt lat="45.19924" lon="5.71423">
        <ele>208.19999694824</ele>
        <time>2022-08-27T02:37:00.000Z</time>
      </trkpt>
      <trkpt lat="45.19941" lon="5.71412">
        <ele>207.80000305176</ele>
        <time>2022-08-27T02:37:07.000Z</time>
      </trkpt>
      <trkpt lat="45.19949" lon="5.7139">
        <ele>207.80000305176</ele>
        <time>2022-08-27T02:37:13.000Z</time>
      </trkpt>
      <trkpt lat="45.1995" lon="5.71379">
        <ele>208</ele>
        <time>2022-08-27T02:37:16.000Z</time>
      </trkpt>
      <trkpt lat="45.19948" lon="5.71368">
        <ele>208.19999694824</ele>
        <time>2022-08-27T02:37:19.000Z</time>
      </trkpt>
      <trkpt lat="45.19941" lon="5.71342">
        <ele>208.60000610352</ele>
        <time>2022-08-27T02:37:27.000Z</time>
      </trkpt>
      <trkpt lat="45.1994" lon="5.71338">
        <ele>208.80000305176</ele>
        <time>2022-08-27T02:37:28.000Z</time>
      </trkpt>
      <trkpt lat="45.19933" lon="5.71314">
        <ele>209.19999694824</ele>
        <time>2022-08-27T02:37:36.000Z</time>
      </trkpt>
      <trkpt lat="45.19929" lon="5.71296">
        <ele>209.80000305176</ele>
        <time>2022-08-27T02:37:42.000Z</time>
      </trkpt>
      <trkpt lat="45.19928" lon="5.71292">
        <ele>209.80000305176</ele>
        <time>2022-08-27T02:37:43.000Z</time>
      </trkpt>
      <trkpt lat="45.19924" lon="5.71267">
        <ele>210.19999694824</ele>
        <time>2022-08-27T02:37:51.000Z</time>
      </trkpt>
      <trkpt lat="45.19918" lon="5.71243">
        <ele>210.60000610352</ele>
        <time>2022-08-27T02:37:59.000Z</time>
      </trkpt>
      <trkpt lat="45.19916" lon="5.71237">
        <ele>211</ele>
        <time>2022-08-27T02:38:01.000Z</time>
      </trkpt>
      <trkpt lat="45.19912" lon="5.71218">
        <ele>211.60000610352</ele>
        <time>2022-08-27T02:38:07.000Z</time>
      </trkpt>
      <trkpt lat="45.19909" lon="5.71206">
        <ele>212</ele>
        <time>2022-08-27T02:38:11.000Z</time>
      </trkpt>
      <trkpt lat="45.19906" lon="5.71194">
        <ele>212.39999389648</ele>
        <time>2022-08-27T02:38:15.000Z</time>
      </trkpt>
      <trkpt lat="45.199" lon="5.71169">
        <ele>213</ele>
        <time>2022-08-27T02:38:23.000Z</time>
      </trkpt>
      <trkpt lat="45.199" lon="5.71165">
        <ele>213.19999694824</ele>
        <time>2022-08-27T02:38:24.000Z</time>
      </trkpt>
      <trkpt lat="45.19897" lon="5.71152">
        <ele>213.80000305176</ele>
        <time>2022-08-27T02:38:28.000Z</time>
      </trkpt>
      <trkpt lat="45.19893" lon="5.71133">
        <ele>214.19999694824</ele>
        <time>2022-08-27T02:38:34.000Z</time>
      </trkpt>
      <trkpt lat="45.19891" lon="5.71125">
        <ele>214.80000305176</ele>
        <time>2022-08-27T02:38:37.000Z</time>
      </trkpt>
      <trkpt lat="45.19889" lon="5.71118">
        <ele>214.80000305176</ele>
        <time>2022-08-27T02:38:39.000Z</time>
      </trkpt>
      <trkpt lat="45.19884" lon="5.71103">
        <ele>215</ele>
        <time>2022-08-27T02:38:44.000Z</time>
      </trkpt>
      <trkpt lat="45.19881" lon="5.7109">
        <ele>215.19999694824</ele>
        <time>2022-08-27T02:38:48.000Z</time>
      </trkpt>
      <trkpt lat="45.19879" lon="5.71081">
        <ele>215.39999389648</ele>
        <time>2022-08-27T02:38:51.000Z</time>
      </trkpt>
      <trkpt lat="45.19878" lon="5.71077">
        <ele>215.39999389648</ele>
        <time>2022-08-27T02:38:52.000Z</time>
      </trkpt>
      <trkpt lat="45.19876" lon="5.71069">
        <ele>215.60000610352</ele>
        <time>2022-08-27T02:38:55.000Z</time>
      </trkpt>
      <trkpt lat="45.19871" lon="5.71045">
        <ele>215.39999389648</ele>
        <time>2022-08-27T02:39:02.000Z</time>
      </trkpt>
      <trkpt lat="45.19871" lon="5.71042">
        <ele>215.39999389648</ele>
        <time>2022-08-27T02:39:03.000Z</time>
      </trkpt>
      <trkpt lat="45.19865" lon="5.71018">
        <ele>215.19999694824</ele>
        <time>2022-08-27T02:39:10.000Z</time>
      </trkpt>
      <trkpt lat="45.19859" lon="5.70996">
        <ele>214.19999694824</ele>
        <time>2022-08-27T02:39:17.000Z</time>
      </trkpt>
      <trkpt lat="45.19858" lon="5.70993">
        <ele>214.19999694824</ele>
        <time>2022-08-27T02:39:18.000Z</time>
      </trkpt>
      <trkpt lat="45.19856" lon="5.70987">
        <ele>213.80000305176</ele>
        <time>2022-08-27T02:39:20.000Z</time>
      </trkpt>
      <trkpt lat="45.1985" lon="5.70983">
        <ele>213.80000305176</ele>
        <time>2022-08-27T02:39:23.000Z</time>
      </trkpt>
      <trkpt lat="45.19845" lon="5.70983">
        <ele>213.80000305176</ele>
        <time>2022-08-27T02:39:25.000Z</time>
      </trkpt>
      <trkpt lat="45.19841" lon="5.70987">
        <ele>214</ele>
        <time>2022-08-27T02:39:27.000Z</time>
      </trkpt>
      <trkpt lat="45.19832" lon="5.70997">
        <ele>213.80000305176</ele>
        <time>2022-08-27T02:39:35.000Z</time>
      </trkpt>
      <trkpt lat="45.19828" lon="5.71001">
        <ele>213.80000305176</ele>
        <time>2022-08-27T02:39:42.000Z</time>
      </trkpt>
      <trkpt lat="45.19829" lon="5.70999">
        <ele>213.60000610352</ele>
        <time>2022-08-27T02:39:51.000Z</time>
      </trkpt>
      <trkpt lat="45.19829" lon="5.70999">
        <ele>213.60000610352</ele>
        <time>2022-08-27T02:39:59.000Z</time>
      </trkpt>
      <trkpt lat="45.19827" lon="5.71002">
        <ele>213.80000305176</ele>
        <time>2022-08-27T02:40:12.000Z</time>
      </trkpt>
      <trkpt lat="45.19827" lon="5.71002">
        <ele>213.80000305176</ele>
        <time>2022-08-27T02:40:20.000Z</time>
      </trkpt>
      <trkpt lat="45.19827" lon="5.71003">
        <ele>213.80000305176</ele>
        <time>2022-08-27T02:40:32.000Z</time>
      </trkpt>
      <trkpt lat="45.19816" lon="5.71011">
        <ele>213.39999389648</ele>
        <time>2022-08-27T02:40:41.000Z</time>
      </trkpt>
      <trkpt lat="45.19805" lon="5.71008">
        <ele>213.19999694824</ele>
        <time>2022-08-27T02:40:46.000Z</time>
      </trkpt>
      <trkpt lat="45.19803" lon="5.71008">
        <ele>213.19999694824</ele>
        <time>2022-08-27T02:40:47.000Z</time>
      </trkpt>
      <trkpt lat="45.19801" lon="5.71007">
        <ele>213.19999694824</ele>
        <time>2022-08-27T02:40:48.000Z</time>
      </trkpt>
      <trkpt lat="45.19795" lon="5.71006">
        <ele>213.19999694824</ele>
        <time>2022-08-27T02:40:52.000Z</time>
      </trkpt>
      <trkpt lat="45.19795" lon="5.71004">
        <ele>213.19999694824</ele>
        <time>2022-08-27T02:40:53.000Z</time>
      </trkpt>
      <trkpt lat="45.19798" lon="5.70999">
        <ele>213.19999694824</ele>
        <time>2022-08-27T02:40:56.000Z</time>
      </trkpt>
      <trkpt lat="45.19813" lon="5.70985">
        <ele>213.39999389648</ele>
        <time>2022-08-27T02:41:05.000Z</time>
      </trkpt>
      <trkpt lat="45.19816" lon="5.70982">
        <ele>213.19999694824</ele>
        <time>2022-08-27T02:41:07.000Z</time>
      </trkpt>
      <trkpt lat="45.19816" lon="5.70981">
        <ele>213</ele>
        <time>2022-08-27T02:41:09.000Z</time>
      </trkpt>
      <trkpt lat="45.19816" lon="5.70979">
        <ele>213</ele>
        <time>2022-08-27T02:41:10.000Z</time>
      </trkpt>
      <trkpt lat="45.19816" lon="5.70978">
        <ele>213.19999694824</ele>
        <time>2022-08-27T02:41:17.000Z</time>
      </trkpt>
      <trkpt lat="45.19816" lon="5.70978">
        <ele>213.19999694824</ele>
        <time>2022-08-27T02:41:24.000Z</time>
      </trkpt>
      <trkpt lat="45.19816" lon="5.70977">
        <ele>213.19999694824</ele>
        <time>2022-08-27T02:41:37.000Z</time>
      </trkpt>
      <trkpt lat="45.19816" lon="5.70977">
        <ele>213.19999694824</ele>
        <time>2022-08-27T02:41:47.000Z</time>
      </trkpt>
      <trkpt lat="45.19816" lon="5.70977">
        <ele>213</ele>
        <time>2022-08-27T02:41:59.000Z</time>
      </trkpt>
      <trkpt lat="45.19816" lon="5.70976">
        <ele>213.19999694824</ele>
        <time>2022-08-27T02:42:16.000Z</time>
      </trkpt>
      <trkpt lat="45.19816" lon="5.70976">
        <ele>213</ele>
        <time>2022-08-27T02:42:31.000Z</time>
      </trkpt>
      <trkpt lat="45.19816" lon="5.70977">
        <ele>213</ele>
        <time>2022-08-27T02:42:42.000Z</time>
      </trkpt>
      <trkpt lat="45.19816" lon="5.70977">
        <ele>213</ele>
        <time>2022-08-27T02:42:53.000Z</time>
      </trkpt>
      <trkpt lat="45.19816" lon="5.70977">
        <ele>213</ele>
        <time>2022-08-27T02:42:59.000Z</time>
      </trkpt>
      <trkpt lat="45.19817" lon="5.70977">
        <ele>213</ele>
        <time>2022-08-27T02:43:05.000Z</time>
      </trkpt>
      <trkpt lat="45.1981" lon="5.70976">
        <ele>213</ele>
        <time>2022-08-27T02:43:19.000Z</time>
      </trkpt>
      <trkpt lat="45.198" lon="5.70983">
        <ele>212.80000305176</ele>
        <time>2022-08-27T02:43:26.000Z</time>
      </trkpt>
      <trkpt lat="45.19789" lon="5.7099">
        <ele>213</ele>
        <time>2022-08-27T02:43:33.000Z</time>
      </trkpt>
      <trkpt lat="45.19781" lon="5.70995">
        <ele>213</ele>
        <time>2022-08-27T02:43:40.000Z</time>
      </trkpt>
      <trkpt lat="45.1978" lon="5.70995">
        <ele>213</ele>
        <time>2022-08-27T02:43:42.000Z</time>
      </trkpt>
      <trkpt lat="45.1978" lon="5.70995">
        <ele>213</ele>
        <time>2022-08-27T02:43:44.000Z</time>
      </trkpt>
      <trkpt lat="45.1978" lon="5.70995">
        <ele>213</ele>
        <time>2022-08-27T02:43:48.000Z</time>
      </trkpt>
      <trkpt lat="45.19781" lon="5.70994">
        <ele>212.80000305176</ele>
        <time>2022-08-27T02:43:55.000Z</time>
      </trkpt>
      <trkpt lat="45.19782" lon="5.70994">
        <ele>212.80000305176</ele>
        <time>2022-08-27T02:44:07.000Z</time>
      </trkpt>
      <trkpt lat="45.19777" lon="5.70991">
        <ele>212.80000305176</ele>
        <time>2022-08-27T02:44:20.000Z</time>
      </trkpt>
      <trkpt lat="45.19768" lon="5.70975">
        <ele>213</ele>
        <time>2022-08-27T02:44:27.000Z</time>
      </trkpt>
      <trkpt lat="45.19763" lon="5.70966">
        <ele>213</ele>
        <time>2022-08-27T02:44:31.000Z</time>
      </trkpt>
      <trkpt lat="45.19763" lon="5.70962">
        <ele>213</ele>
        <time>2022-08-27T02:44:33.000Z</time>
      </trkpt>
      <trkpt lat="45.19772" lon="5.70951">
        <ele>213.39999389648</ele>
        <time>2022-08-27T02:44:41.000Z</time>
      </trkpt>
      <trkpt lat="45.19782" lon="5.70942">
        <ele>213.39999389648</ele>
        <time>2022-08-27T02:44:48.000Z</time>
      </trkpt>
      <trkpt lat="45.19783" lon="5.70942">
        <ele>213.39999389648</ele>
        <time>2022-08-27T02:44:50.000Z</time>
      </trkpt>
      <trkpt lat="45.19783" lon="5.70942">
        <ele>213.39999389648</ele>
        <time>2022-08-27T02:44:52.000Z</time>
      </trkpt>
      <trkpt lat="45.19784" lon="5.7094">
        <ele>213.39999389648</ele>
        <time>2022-08-27T02:44:56.000Z</time>
      </trkpt>
      <trkpt lat="45.19785" lon="5.70938">
        <ele>213.39999389648</ele>
        <time>2022-08-27T02:45:03.000Z</time>
      </trkpt>
      <trkpt lat="45.19785" lon="5.70933">
        <ele>213.39999389648</ele>
        <time>2022-08-27T02:45:13.000Z</time>
      </trkpt>
      <trkpt lat="45.19784" lon="5.7093">
        <ele>213.39999389648</ele>
        <time>2022-08-27T02:45:23.000Z</time>
      </trkpt>
      <trkpt lat="45.19774" lon="5.70934">
        <ele>213.60000610352</ele>
        <time>2022-08-27T02:45:34.000Z</time>
      </trkpt>
      <trkpt lat="45.19772" lon="5.70936">
        <ele>213.60000610352</ele>
        <time>2022-08-27T02:45:35.000Z</time>
      </trkpt>
      <trkpt lat="45.1977" lon="5.70941">
        <ele>213.60000610352</ele>
        <time>2022-08-27T02:45:38.000Z</time>
      </trkpt>
      <trkpt lat="45.19766" lon="5.70943">
        <ele>213.39999389648</ele>
        <time>2022-08-27T02:45:40.000Z</time>
      </trkpt>
      <trkpt lat="45.19749" lon="5.70951">
        <ele>213.19999694824</ele>
        <time>2022-08-27T02:45:48.000Z</time>
      </trkpt>
      <trkpt lat="45.19741" lon="5.70965">
        <ele>213</ele>
        <time>2022-08-27T02:45:53.000Z</time>
      </trkpt>
      <trkpt lat="45.19727" lon="5.70984">
        <ele>212.39999389648</ele>
        <time>2022-08-27T02:45:59.000Z</time>
      </trkpt>
      <trkpt lat="45.19719" lon="5.70988">
        <ele>212.19999694824</ele>
        <time>2022-08-27T02:46:02.000Z</time>
      </trkpt>
      <trkpt lat="45.19709" lon="5.70994">
        <ele>212</ele>
        <time>2022-08-27T02:46:06.000Z</time>
      </trkpt>
      <trkpt lat="45.19691" lon="5.71002">
        <ele>211.60000610352</ele>
        <time>2022-08-27T02:46:13.000Z</time>
      </trkpt>
      <trkpt lat="45.19675" lon="5.71007">
        <ele>211.19999694824</ele>
        <time>2022-08-27T02:46:20.000Z</time>
      </trkpt>
      <trkpt lat="45.19669" lon="5.71009">
        <ele>211.19999694824</ele>
        <time>2022-08-27T02:46:22.000Z</time>
      </trkpt>
      <trkpt lat="45.19659" lon="5.71014">
        <ele>211</ele>
        <time>2022-08-27T02:46:26.000Z</time>
      </trkpt>
      <trkpt lat="45.1964" lon="5.71021">
        <ele>210.19999694824</ele>
        <time>2022-08-27T02:46:34.000Z</time>
      </trkpt>
      <trkpt lat="45.19635" lon="5.71022">
        <ele>210</ele>
        <time>2022-08-27T02:46:36.000Z</time>
      </trkpt>
      <trkpt lat="45.19622" lon="5.71023">
        <ele>209.80000305176</ele>
        <time>2022-08-27T02:46:41.000Z</time>
      </trkpt>
      <trkpt lat="45.19601" lon="5.71029">
        <ele>209.39999389648</ele>
        <time>2022-08-27T02:46:49.000Z</time>
      </trkpt>
      <trkpt lat="45.19589" lon="5.71035">
        <ele>209</ele>
        <time>2022-08-27T02:46:54.000Z</time>
      </trkpt>
      <trkpt lat="45.19582" lon="5.71038">
        <ele>208.80000305176</ele>
        <time>2022-08-27T02:46:57.000Z</time>
      </trkpt>
      <trkpt lat="45.19565" lon="5.71047">
        <ele>208.80000305176</ele>
        <time>2022-08-27T02:47:04.000Z</time>
      </trkpt>
      <trkpt lat="45.19557" lon="5.71052">
        <ele>208.60000610352</ele>
        <time>2022-08-27T02:47:07.000Z</time>
      </trkpt>
      <trkpt lat="45.19544" lon="5.71058">
        <ele>208.19999694824</ele>
        <time>2022-08-27T02:47:13.000Z</time>
      </trkpt>
      <trkpt lat="45.1953" lon="5.7106">
        <ele>208</ele>
        <time>2022-08-27T02:47:19.000Z</time>
      </trkpt>
      <trkpt lat="45.19523" lon="5.71059">
        <ele>208.19999694824</ele>
        <time>2022-08-27T02:47:22.000Z</time>
      </trkpt>
      <trkpt lat="45.19508" lon="5.71056">
        <ele>208.19999694824</ele>
        <time>2022-08-27T02:47:28.000Z</time>
      </trkpt>
      <trkpt lat="45.19506" lon="5.71055">
        <ele>208.19999694824</ele>
        <time>2022-08-27T02:47:29.000Z</time>
      </trkpt>
      <trkpt lat="45.19498" lon="5.71053">
        <ele>208.39999389648</ele>
        <time>2022-08-27T02:47:32.000Z</time>
      </trkpt>
      <trkpt lat="45.19495" lon="5.71052">
        <ele>208.39999389648</ele>
        <time>2022-08-27T02:47:33.000Z</time>
      </trkpt>
      <trkpt lat="45.19492" lon="5.71047">
        <ele>208.60000610352</ele>
        <time>2022-08-27T02:47:37.000Z</time>
      </trkpt>
      <trkpt lat="45.1949" lon="5.71044">
        <ele>208.60000610352</ele>
        <time>2022-08-27T02:47:38.000Z</time>
      </trkpt>
      <trkpt lat="45.19477" lon="5.71032">
        <ele>208.60000610352</ele>
        <time>2022-08-27T02:47:45.000Z</time>
      </trkpt>
      <trkpt lat="45.19458" lon="5.71028">
        <ele>208.19999694824</ele>
        <time>2022-08-27T02:47:51.000Z</time>
      </trkpt>
      <trkpt lat="45.19455" lon="5.71027">
        <ele>208.39999389648</ele>
        <time>2022-08-27T02:47:52.000Z</time>
      </trkpt>
      <trkpt lat="45.19444" lon="5.71022">
        <ele>208.39999389648</ele>
        <time>2022-08-27T02:47:57.000Z</time>
      </trkpt>
      <trkpt lat="45.19429" lon="5.71007">
        <ele>208.39999389648</ele>
        <time>2022-08-27T02:48:05.000Z</time>
      </trkpt>
      <trkpt lat="45.19412" lon="5.70986">
        <ele>208.60000610352</ele>
        <time>2022-08-27T02:48:13.000Z</time>
      </trkpt>
      <trkpt lat="45.19399" lon="5.70968">
        <ele>208.60000610352</ele>
        <time>2022-08-27T02:48:20.000Z</time>
      </trkpt>
      <trkpt lat="45.19386" lon="5.70951">
        <ele>208.80000305176</ele>
        <time>2022-08-27T02:48:27.000Z</time>
      </trkpt>
      <trkpt lat="45.19373" lon="5.70935">
        <ele>208.80000305176</ele>
        <time>2022-08-27T02:48:34.000Z</time>
      </trkpt>
      <trkpt lat="45.19361" lon="5.70922">
        <ele>208.80000305176</ele>
        <time>2022-08-27T02:48:40.000Z</time>
      </trkpt>
      <trkpt lat="45.19347" lon="5.70903">
        <ele>208.80000305176</ele>
        <time>2022-08-27T02:48:48.000Z</time>
      </trkpt>
      <trkpt lat="45.19332" lon="5.70884">
        <ele>208.80000305176</ele>
        <time>2022-08-27T02:48:55.000Z</time>
      </trkpt>
      <trkpt lat="45.1933" lon="5.70882">
        <ele>208.80000305176</ele>
        <time>2022-08-27T02:48:56.000Z</time>
      </trkpt>
      <trkpt lat="45.19317" lon="5.70861">
        <ele>208.39999389648</ele>
        <time>2022-08-27T02:49:04.000Z</time>
      </trkpt>
      <trkpt lat="45.19308" lon="5.70847">
        <ele>209.19999694824</ele>
        <time>2022-08-27T02:49:10.000Z</time>
      </trkpt>
      <trkpt lat="45.19303" lon="5.7084">
        <ele>209</ele>
        <time>2022-08-27T02:49:13.000Z</time>
      </trkpt>
      <trkpt lat="45.19289" lon="5.70822">
        <ele>209</ele>
        <time>2022-08-27T02:49:21.000Z</time>
      </trkpt>
      <trkpt lat="45.19287" lon="5.70819">
        <ele>209</ele>
        <time>2022-08-27T02:49:22.000Z</time>
      </trkpt>
      <trkpt lat="45.19281" lon="5.70812">
        <ele>209</ele>
        <time>2022-08-27T02:49:25.000Z</time>
      </trkpt>
      <trkpt lat="45.19271" lon="5.708">
        <ele>209.19999694824</ele>
        <time>2022-08-27T02:49:30.000Z</time>
      </trkpt>
      <trkpt lat="45.19259" lon="5.70782">
        <ele>209.39999389648</ele>
        <time>2022-08-27T02:49:37.000Z</time>
      </trkpt>
      <trkpt lat="45.19257" lon="5.7078">
        <ele>209.39999389648</ele>
        <time>2022-08-27T02:49:38.000Z</time>
      </trkpt>
      <trkpt lat="45.19246" lon="5.70762">
        <ele>209.39999389648</ele>
        <time>2022-08-27T02:49:45.000Z</time>
      </trkpt>
      <trkpt lat="45.19234" lon="5.70743">
        <ele>209.80000305176</ele>
        <time>2022-08-27T02:49:51.000Z</time>
      </trkpt>
      <trkpt lat="45.19233" lon="5.7074">
        <ele>209.60000610352</ele>
        <time>2022-08-27T02:49:52.000Z</time>
      </trkpt>
      <trkpt lat="45.19221" lon="5.7072">
        <ele>209.60000610352</ele>
        <time>2022-08-27T02:49:58.000Z</time>
      </trkpt>
      <trkpt lat="45.19208" lon="5.707">
        <ele>209.60000610352</ele>
        <time>2022-08-27T02:50:05.000Z</time>
      </trkpt>
      <trkpt lat="45.19206" lon="5.70696">
        <ele>209.80000305176</ele>
        <time>2022-08-27T02:50:06.000Z</time>
      </trkpt>
      <trkpt lat="45.19195" lon="5.70673">
        <ele>210</ele>
        <time>2022-08-27T02:50:13.000Z</time>
      </trkpt>
      <trkpt lat="45.19185" lon="5.70656">
        <ele>210</ele>
        <time>2022-08-27T02:50:20.000Z</time>
      </trkpt>
      <trkpt lat="45.19182" lon="5.70651">
        <ele>210</ele>
        <time>2022-08-27T02:50:22.000Z</time>
      </trkpt>
      <trkpt lat="45.19179" lon="5.70645">
        <ele>210</ele>
        <time>2022-08-27T02:50:25.000Z</time>
      </trkpt>
      <trkpt lat="45.19175" lon="5.70641">
        <ele>210.19999694824</ele>
        <time>2022-08-27T02:50:27.000Z</time>
      </trkpt>
      <trkpt lat="45.19168" lon="5.7063">
        <ele>210.19999694824</ele>
        <time>2022-08-27T02:50:31.000Z</time>
      </trkpt>
      <trkpt lat="45.19166" lon="5.70628">
        <ele>210.19999694824</ele>
        <time>2022-08-27T02:50:32.000Z</time>
      </trkpt>
      <trkpt lat="45.19157" lon="5.70612">
        <ele>210</ele>
        <time>2022-08-27T02:50:38.000Z</time>
      </trkpt>
      <trkpt lat="45.19155" lon="5.7061">
        <ele>210</ele>
        <time>2022-08-27T02:50:39.000Z</time>
      </trkpt>
      <trkpt lat="45.19151" lon="5.70603">
        <ele>210.19999694824</ele>
        <time>2022-08-27T02:50:42.000Z</time>
      </trkpt>
      <trkpt lat="45.19138" lon="5.7058">
        <ele>210.39999389648</ele>
        <time>2022-08-27T02:50:50.000Z</time>
      </trkpt>
      <trkpt lat="45.19137" lon="5.70578">
        <ele>210.60000610352</ele>
        <time>2022-08-27T02:50:51.000Z</time>
      </trkpt>
      <trkpt lat="45.19125" lon="5.70559">
        <ele>210.80000305176</ele>
        <time>2022-08-27T02:50:58.000Z</time>
      </trkpt>
      <trkpt lat="45.19116" lon="5.70539">
        <ele>211</ele>
        <time>2022-08-27T02:51:05.000Z</time>
      </trkpt>
      <trkpt lat="45.19113" lon="5.70531">
        <ele>211</ele>
        <time>2022-08-27T02:51:08.000Z</time>
      </trkpt>
      <trkpt lat="45.1911" lon="5.70523">
        <ele>211</ele>
        <time>2022-08-27T02:51:10.000Z</time>
      </trkpt>
      <trkpt lat="45.19107" lon="5.70516">
        <ele>211.19999694824</ele>
        <time>2022-08-27T02:51:12.000Z</time>
      </trkpt>
      <trkpt lat="45.19099" lon="5.70503">
        <ele>211.19999694824</ele>
        <time>2022-08-27T02:51:17.000Z</time>
      </trkpt>
      <trkpt lat="45.1909" lon="5.70488">
        <ele>211.39999389648</ele>
        <time>2022-08-27T02:51:22.000Z</time>
      </trkpt>
      <trkpt lat="45.19088" lon="5.70485">
        <ele>211.39999389648</ele>
        <time>2022-08-27T02:51:23.000Z</time>
      </trkpt>
      <trkpt lat="45.19083" lon="5.70475">
        <ele>211.39999389648</ele>
        <time>2022-08-27T02:51:27.000Z</time>
      </trkpt>
      <trkpt lat="45.19084" lon="5.70473">
        <ele>211.39999389648</ele>
        <time>2022-08-27T02:51:28.000Z</time>
      </trkpt>
      <trkpt lat="45.19096" lon="5.70466">
        <ele>211.80000305176</ele>
        <time>2022-08-27T02:51:34.000Z</time>
      </trkpt>
      <trkpt lat="45.19109" lon="5.70456">
        <ele>212</ele>
        <time>2022-08-27T02:51:40.000Z</time>
      </trkpt>
      <trkpt lat="45.19113" lon="5.70454">
        <ele>211.80000305176</ele>
        <time>2022-08-27T02:51:42.000Z</time>
      </trkpt>
      <trkpt lat="45.19117" lon="5.7045">
        <ele>211.80000305176</ele>
        <time>2022-08-27T02:51:44.000Z</time>
      </trkpt>
      <trkpt lat="45.19137" lon="5.70444">
        <ele>212</ele>
        <time>2022-08-27T02:51:52.000Z</time>
      </trkpt>
      <trkpt lat="45.19153" lon="5.70433">
        <ele>211.80000305176</ele>
        <time>2022-08-27T02:52:00.000Z</time>
      </trkpt>
      <trkpt lat="45.19166" lon="5.70423">
        <ele>212.19999694824</ele>
        <time>2022-08-27T02:52:06.000Z</time>
      </trkpt>
      <trkpt lat="45.19169" lon="5.70422">
        <ele>212.19999694824</ele>
        <time>2022-08-27T02:52:07.000Z</time>
      </trkpt>
      <trkpt lat="45.19182" lon="5.70416">
        <ele>212.60000610352</ele>
        <time>2022-08-27T02:52:13.000Z</time>
      </trkpt>
      <trkpt lat="45.19193" lon="5.70409">
        <ele>213.19999694824</ele>
        <time>2022-08-27T02:52:17.000Z</time>
      </trkpt>
      <trkpt lat="45.19202" lon="5.70402">
        <ele>213.19999694824</ele>
        <time>2022-08-27T02:52:21.000Z</time>
      </trkpt>
      <trkpt lat="45.1922" lon="5.70393">
        <ele>213.39999389648</ele>
        <time>2022-08-27T02:52:29.000Z</time>
      </trkpt>
      <trkpt lat="45.19227" lon="5.70393">
        <ele>213.39999389648</ele>
        <time>2022-08-27T02:52:34.000Z</time>
      </trkpt>
      <trkpt lat="45.19229" lon="5.70394">
        <ele>213.39999389648</ele>
        <time>2022-08-27T02:52:35.000Z</time>
      </trkpt>
      <trkpt lat="45.19232" lon="5.70395">
        <ele>213.39999389648</ele>
        <time>2022-08-27T02:52:37.000Z</time>
      </trkpt>
      <trkpt lat="45.19232" lon="5.70396">
        <ele>213.39999389648</ele>
        <time>2022-08-27T02:52:38.000Z</time>
      </trkpt>
      <trkpt lat="45.19234" lon="5.7039">
        <ele>214</ele>
        <time>2022-08-27T02:52:44.000Z</time>
      </trkpt>
      <trkpt lat="45.19235" lon="5.7039">
        <ele>214.19999694824</ele>
        <time>2022-08-27T02:52:45.000Z</time>
      </trkpt>
      <trkpt lat="45.19243" lon="5.70385">
        <ele>214.80000305176</ele>
        <time>2022-08-27T02:52:50.000Z</time>
      </trkpt>
      <trkpt lat="45.19246" lon="5.7038">
        <ele>214.80000305176</ele>
        <time>2022-08-27T02:52:52.000Z</time>
      </trkpt>
      <trkpt lat="45.19248" lon="5.70353">
        <ele>215</ele>
        <time>2022-08-27T02:53:00.000Z</time>
      </trkpt>
      <trkpt lat="45.19248" lon="5.70343">
        <ele>215.39999389648</ele>
        <time>2022-08-27T02:53:03.000Z</time>
      </trkpt>
      <trkpt lat="45.19247" lon="5.70329">
        <ele>215.60000610352</ele>
        <time>2022-08-27T02:53:07.000Z</time>
      </trkpt>
      <trkpt lat="45.19249" lon="5.70307">
        <ele>216.39999389648</ele>
        <time>2022-08-27T02:53:14.000Z</time>
      </trkpt>
      <trkpt lat="45.19249" lon="5.70304">
        <ele>216.60000610352</ele>
        <time>2022-08-27T02:53:15.000Z</time>
      </trkpt>
      <trkpt lat="45.19249" lon="5.70279">
        <ele>217</ele>
        <time>2022-08-27T02:53:22.000Z</time>
      </trkpt>
      <trkpt lat="45.19252" lon="5.70253">
        <ele>217</ele>
        <time>2022-08-27T02:53:30.000Z</time>
      </trkpt>
      <trkpt lat="45.19253" lon="5.7025">
        <ele>217.19999694824</ele>
        <time>2022-08-27T02:53:31.000Z</time>
      </trkpt>
      <trkpt lat="45.19255" lon="5.70242">
        <ele>217</ele>
        <time>2022-08-27T02:53:34.000Z</time>
      </trkpt>
      <trkpt lat="45.19253" lon="5.70236">
        <ele>216.80000305176</ele>
        <time>2022-08-27T02:53:36.000Z</time>
      </trkpt>
      <trkpt lat="45.1925" lon="5.70214">
        <ele>217.19999694824</ele>
        <time>2022-08-27T02:53:43.000Z</time>
      </trkpt>
      <trkpt lat="45.1925" lon="5.70207">
        <ele>217.60000610352</ele>
        <time>2022-08-27T02:53:45.000Z</time>
      </trkpt>
      <trkpt lat="45.1925" lon="5.70183">
        <ele>218.19999694824</ele>
        <time>2022-08-27T02:53:52.000Z</time>
      </trkpt>
      <trkpt lat="45.1925" lon="5.70157">
        <ele>218.39999389648</ele>
        <time>2022-08-27T02:53:59.000Z</time>
      </trkpt>
      <trkpt lat="45.1925" lon="5.70147">
        <ele>218.19999694824</ele>
        <time>2022-08-27T02:54:02.000Z</time>
      </trkpt>
      <trkpt lat="45.1925" lon="5.70118">
        <ele>218.19999694824</ele>
        <time>2022-08-27T02:54:10.000Z</time>
      </trkpt>
      <trkpt lat="45.1925" lon="5.70115">
        <ele>218.19999694824</ele>
        <time>2022-08-27T02:54:11.000Z</time>
      </trkpt>
      <trkpt lat="45.1925" lon="5.70089">
        <ele>217.80000305176</ele>
        <time>2022-08-27T02:54:18.000Z</time>
      </trkpt>
      <trkpt lat="45.19251" lon="5.70069">
        <ele>217.19999694824</ele>
        <time>2022-08-27T02:54:24.000Z</time>
      </trkpt>
      <trkpt lat="45.19251" lon="5.70067">
        <ele>217</ele>
        <time>2022-08-27T02:54:25.000Z</time>
      </trkpt>
      <trkpt lat="45.19255" lon="5.70064">
        <ele>216.80000305176</ele>
        <time>2022-08-27T02:54:28.000Z</time>
      </trkpt>
      <trkpt lat="45.19269" lon="5.70063">
        <ele>216.60000610352</ele>
        <time>2022-08-27T02:54:35.000Z</time>
      </trkpt>
      <trkpt lat="45.19273" lon="5.70062">
        <ele>216.60000610352</ele>
        <time>2022-08-27T02:54:37.000Z</time>
      </trkpt>
      <trkpt lat="45.19291" lon="5.70058">
        <ele>216.39999389648</ele>
        <time>2022-08-27T02:54:44.000Z</time>
      </trkpt>
      <trkpt lat="45.1931" lon="5.70054">
        <ele>215.80000305176</ele>
        <time>2022-08-27T02:54:51.000Z</time>
      </trkpt>
      <trkpt lat="45.19323" lon="5.7005">
        <ele>215.60000610352</ele>
        <time>2022-08-27T02:54:56.000Z</time>
      </trkpt>
      <trkpt lat="45.19328" lon="5.70049">
        <ele>215.39999389648</ele>
        <time>2022-08-27T02:54:58.000Z</time>
      </trkpt>
      <trkpt lat="45.19346" lon="5.70045">
        <ele>215</ele>
        <time>2022-08-27T02:55:05.000Z</time>
      </trkpt>
      <trkpt lat="45.19349" lon="5.70044">
        <ele>215</ele>
        <time>2022-08-27T02:55:06.000Z</time>
      </trkpt>
      <trkpt lat="45.19369" lon="5.70039">
        <ele>215</ele>
        <time>2022-08-27T02:55:14.000Z</time>
      </trkpt>
      <trkpt lat="45.19372" lon="5.70039">
        <ele>215</ele>
        <time>2022-08-27T02:55:15.000Z</time>
      </trkpt>
      <trkpt lat="45.1938" lon="5.70038">
        <ele>214.80000305176</ele>
        <time>2022-08-27T02:55:19.000Z</time>
      </trkpt>
      <trkpt lat="45.1938" lon="5.7004">
        <ele>214.60000610352</ele>
        <time>2022-08-27T02:55:20.000Z</time>
      </trkpt>
      <trkpt lat="45.19377" lon="5.70043">
        <ele>214.39999389648</ele>
        <time>2022-08-27T02:55:22.000Z</time>
      </trkpt>
      <trkpt lat="45.19374" lon="5.70044">
        <ele>214.39999389648</ele>
        <time>2022-08-27T02:55:23.000Z</time>
      </trkpt>
      <trkpt lat="45.1936" lon="5.70052">
        <ele>213.60000610352</ele>
        <time>2022-08-27T02:55:29.000Z</time>
      </trkpt>
      <trkpt lat="45.19358" lon="5.70053">
        <ele>213.39999389648</ele>
        <time>2022-08-27T02:55:30.000Z</time>
      </trkpt>
      <trkpt lat="45.19345" lon="5.70058">
        <ele>213.19999694824</ele>
        <time>2022-08-27T02:55:35.000Z</time>
      </trkpt>
      <trkpt lat="45.19337" lon="5.70061">
        <ele>213.19999694824</ele>
        <time>2022-08-27T02:55:38.000Z</time>
      </trkpt>
      <trkpt lat="45.19323" lon="5.70067">
        <ele>212.80000305176</ele>
        <time>2022-08-27T02:55:44.000Z</time>
      </trkpt>
      <trkpt lat="45.19304" lon="5.70071">
        <ele>212.39999389648</ele>
        <time>2022-08-27T02:55:51.000Z</time>
      </trkpt>
      <trkpt lat="45.19301" lon="5.70072">
        <ele>212.39999389648</ele>
        <time>2022-08-27T02:55:52.000Z</time>
      </trkpt>
      <trkpt lat="45.19298" lon="5.70072">
        <ele>212.19999694824</ele>
        <time>2022-08-27T02:55:53.000Z</time>
      </trkpt>
      <trkpt lat="45.1928" lon="5.7008">
        <ele>212</ele>
        <time>2022-08-27T02:56:00.000Z</time>
      </trkpt>
      <trkpt lat="45.19278" lon="5.70081">
        <ele>212</ele>
        <time>2022-08-27T02:56:01.000Z</time>
      </trkpt>
      <trkpt lat="45.19271" lon="5.70084">
        <ele>211.80000305176</ele>
        <time>2022-08-27T02:56:05.000Z</time>
      </trkpt>
      <trkpt lat="45.19272" lon="5.70084">
        <ele>211.80000305176</ele>
        <time>2022-08-27T02:56:07.000Z</time>
      </trkpt>
      <trkpt lat="45.19281" lon="5.70084">
        <ele>211.80000305176</ele>
        <time>2022-08-27T02:56:11.000Z</time>
      </trkpt>
      <trkpt lat="45.19298" lon="5.70082">
        <ele>212.19999694824</ele>
        <time>2022-08-27T02:56:18.000Z</time>
      </trkpt>
      <trkpt lat="45.19302" lon="5.70081">
        <ele>212.39999389648</ele>
        <time>2022-08-27T02:56:20.000Z</time>
      </trkpt>
      <trkpt lat="45.19317" lon="5.70076">
        <ele>212.39999389648</ele>
        <time>2022-08-27T02:56:26.000Z</time>
      </trkpt>
      <trkpt lat="45.19332" lon="5.70072">
        <ele>212.19999694824</ele>
        <time>2022-08-27T02:56:32.000Z</time>
      </trkpt>
      <trkpt lat="45.19351" lon="5.70065">
        <ele>212</ele>
        <time>2022-08-27T02:56:40.000Z</time>
      </trkpt>
      <trkpt lat="45.19369" lon="5.7006">
        <ele>212.19999694824</ele>
        <time>2022-08-27T02:56:47.000Z</time>
      </trkpt>
      <trkpt lat="45.19372" lon="5.70059">
        <ele>212.19999694824</ele>
        <time>2022-08-27T02:56:48.000Z</time>
      </trkpt>
      <trkpt lat="45.19391" lon="5.70054">
        <ele>212</ele>
        <time>2022-08-27T02:56:56.000Z</time>
      </trkpt>
      <trkpt lat="45.19393" lon="5.70054">
        <ele>212</ele>
        <time>2022-08-27T02:56:57.000Z</time>
      </trkpt>
      <trkpt lat="45.19412" lon="5.70048">
        <ele>212</ele>
        <time>2022-08-27T02:57:04.000Z</time>
      </trkpt>
      <trkpt lat="45.19417" lon="5.70047">
        <ele>211.80000305176</ele>
        <time>2022-08-27T02:57:06.000Z</time>
      </trkpt>
      <trkpt lat="45.19436" lon="5.70041">
        <ele>211.60000610352</ele>
        <time>2022-08-27T02:57:14.000Z</time>
      </trkpt>
      <trkpt lat="45.19439" lon="5.7004">
        <ele>211.60000610352</ele>
        <time>2022-08-27T02:57:15.000Z</time>
      </trkpt>
      <trkpt lat="45.19459" lon="5.70035">
        <ele>211.60000610352</ele>
        <time>2022-08-27T02:57:22.000Z</time>
      </trkpt>
      <trkpt lat="45.19461" lon="5.70034">
        <ele>211.60000610352</ele>
        <time>2022-08-27T02:57:23.000Z</time>
      </trkpt>
      <trkpt lat="45.19479" lon="5.70028">
        <ele>211.60000610352</ele>
        <time>2022-08-27T02:57:30.000Z</time>
      </trkpt>
      <trkpt lat="45.19484" lon="5.70026">
        <ele>211.60000610352</ele>
        <time>2022-08-27T02:57:32.000Z</time>
      </trkpt>
      <trkpt lat="45.19498" lon="5.70021">
        <ele>211.60000610352</ele>
        <time>2022-08-27T02:57:38.000Z</time>
      </trkpt>
      <trkpt lat="45.19518" lon="5.70012">
        <ele>211.60000610352</ele>
        <time>2022-08-27T02:57:45.000Z</time>
      </trkpt>
      <trkpt lat="45.19522" lon="5.70009">
        <ele>211.60000610352</ele>
        <time>2022-08-27T02:57:47.000Z</time>
      </trkpt>
      <trkpt lat="45.1954" lon="5.69999">
        <ele>211.60000610352</ele>
        <time>2022-08-27T02:57:54.000Z</time>
      </trkpt>
      <trkpt lat="45.19541" lon="5.69998">
        <ele>211.60000610352</ele>
        <time>2022-08-27T02:57:55.000Z</time>
      </trkpt>
      <trkpt lat="45.1956" lon="5.69987">
        <ele>211.39999389648</ele>
        <time>2022-08-27T02:58:02.000Z</time>
      </trkpt>
      <trkpt lat="45.19564" lon="5.69984">
        <ele>211.39999389648</ele>
        <time>2022-08-27T02:58:04.000Z</time>
      </trkpt>
      <trkpt lat="45.19577" lon="5.69976">
        <ele>211.60000610352</ele>
        <time>2022-08-27T02:58:10.000Z</time>
      </trkpt>
      <trkpt lat="45.19584" lon="5.69971">
        <ele>211.19999694824</ele>
        <time>2022-08-27T02:58:13.000Z</time>
      </trkpt>
      <trkpt lat="45.19596" lon="5.69963">
        <ele>211.19999694824</ele>
        <time>2022-08-27T02:58:18.000Z</time>
      </trkpt>
      <trkpt lat="45.19613" lon="5.69951">
        <ele>211.19999694824</ele>
        <time>2022-08-27T02:58:25.000Z</time>
      </trkpt>
      <trkpt lat="45.19616" lon="5.6995">
        <ele>211.39999389648</ele>
        <time>2022-08-27T02:58:26.000Z</time>
      </trkpt>
      <trkpt lat="45.19633" lon="5.69938">
        <ele>210.80000305176</ele>
        <time>2022-08-27T02:58:33.000Z</time>
      </trkpt>
      <trkpt lat="45.1964" lon="5.69932">
        <ele>210.60000610352</ele>
        <time>2022-08-27T02:58:36.000Z</time>
      </trkpt>
      <trkpt lat="45.19657" lon="5.69915">
        <ele>210.60000610352</ele>
        <time>2022-08-27T02:58:43.000Z</time>
      </trkpt>
      <trkpt lat="45.19661" lon="5.6991">
        <ele>210.60000610352</ele>
        <time>2022-08-27T02:58:45.000Z</time>
      </trkpt>
      <trkpt lat="45.19676" lon="5.69894">
        <ele>210.60000610352</ele>
        <time>2022-08-27T02:58:52.000Z</time>
      </trkpt>
      <trkpt lat="45.1968" lon="5.6989">
        <ele>210.60000610352</ele>
        <time>2022-08-27T02:58:54.000Z</time>
      </trkpt>
      <trkpt lat="45.19695" lon="5.69873">
        <ele>210.39999389648</ele>
        <time>2022-08-27T02:59:01.000Z</time>
      </trkpt>
      <trkpt lat="45.19699" lon="5.69868">
        <ele>210.39999389648</ele>
        <time>2022-08-27T02:59:03.000Z</time>
      </trkpt>
      <trkpt lat="45.19713" lon="5.6985">
        <ele>210.39999389648</ele>
        <time>2022-08-27T02:59:10.000Z</time>
      </trkpt>
      <trkpt lat="45.19726" lon="5.69835">
        <ele>210.19999694824</ele>
        <time>2022-08-27T02:59:16.000Z</time>
      </trkpt>
      <trkpt lat="45.1973" lon="5.6983">
        <ele>210.19999694824</ele>
        <time>2022-08-27T02:59:18.000Z</time>
      </trkpt>
      <trkpt lat="45.19731" lon="5.69827">
        <ele>210.19999694824</ele>
        <time>2022-08-27T02:59:19.000Z</time>
      </trkpt>
      <trkpt lat="45.19743" lon="5.69811">
        <ele>209.80000305176</ele>
        <time>2022-08-27T02:59:25.000Z</time>
      </trkpt>
      <trkpt lat="45.19757" lon="5.69795">
        <ele>210</ele>
        <time>2022-08-27T02:59:32.000Z</time>
      </trkpt>
      <trkpt lat="45.19759" lon="5.69793">
        <ele>210.19999694824</ele>
        <time>2022-08-27T02:59:33.000Z</time>
      </trkpt>
      <trkpt lat="45.19774" lon="5.69773">
        <ele>210.19999694824</ele>
        <time>2022-08-27T02:59:41.000Z</time>
      </trkpt>
      <trkpt lat="45.19787" lon="5.69753">
        <ele>210.19999694824</ele>
        <time>2022-08-27T02:59:48.000Z</time>
      </trkpt>
      <trkpt lat="45.19789" lon="5.6975">
        <ele>210.19999694824</ele>
        <time>2022-08-27T02:59:49.000Z</time>
      </trkpt>
      <trkpt lat="45.19803" lon="5.69731">
        <ele>209.80000305176</ele>
        <time>2022-08-27T02:59:56.000Z</time>
      </trkpt>
      <trkpt lat="45.19805" lon="5.69728">
        <ele>209.80000305176</ele>
        <time>2022-08-27T02:59:57.000Z</time>
      </trkpt>
      <trkpt lat="45.19819" lon="5.6971">
        <ele>209.39999389648</ele>
        <time>2022-08-27T03:00:04.000Z</time>
      </trkpt>
      <trkpt lat="45.19831" lon="5.69692">
        <ele>209.39999389648</ele>
        <time>2022-08-27T03:00:11.000Z</time>
      </trkpt>
      <trkpt lat="45.19841" lon="5.6968">
        <ele>209.19999694824</ele>
        <time>2022-08-27T03:00:16.000Z</time>
      </trkpt>
      <trkpt lat="45.19847" lon="5.69671">
        <ele>209.19999694824</ele>
        <time>2022-08-27T03:00:19.000Z</time>
      </trkpt>
      <trkpt lat="45.19858" lon="5.69655">
        <ele>209</ele>
        <time>2022-08-27T03:00:25.000Z</time>
      </trkpt>
      <trkpt lat="45.19871" lon="5.69637">
        <ele>208.80000305176</ele>
        <time>2022-08-27T03:00:32.000Z</time>
      </trkpt>
      <trkpt lat="45.19875" lon="5.69631">
        <ele>208.60000610352</ele>
        <time>2022-08-27T03:00:34.000Z</time>
      </trkpt>
      <trkpt lat="45.19883" lon="5.69621">
        <ele>208.60000610352</ele>
        <time>2022-08-27T03:00:38.000Z</time>
      </trkpt>
      <trkpt lat="45.19897" lon="5.69601">
        <ele>208.60000610352</ele>
        <time>2022-08-27T03:00:45.000Z</time>
      </trkpt>
      <trkpt lat="45.19899" lon="5.69598">
        <ele>208.60000610352</ele>
        <time>2022-08-27T03:00:46.000Z</time>
      </trkpt>
      <trkpt lat="45.19912" lon="5.6958">
        <ele>208.60000610352</ele>
        <time>2022-08-27T03:00:53.000Z</time>
      </trkpt>
      <trkpt lat="45.19927" lon="5.6956">
        <ele>208.60000610352</ele>
        <time>2022-08-27T03:01:01.000Z</time>
      </trkpt>
      <trkpt lat="45.19929" lon="5.69557">
        <ele>208.60000610352</ele>
        <time>2022-08-27T03:01:02.000Z</time>
      </trkpt>
      <trkpt lat="45.19941" lon="5.69542">
        <ele>208.39999389648</ele>
        <time>2022-08-27T03:01:08.000Z</time>
      </trkpt>
      <trkpt lat="45.19944" lon="5.69537">
        <ele>208.19999694824</ele>
        <time>2022-08-27T03:01:10.000Z</time>
      </trkpt>
      <trkpt lat="45.19955" lon="5.69524">
        <ele>208.39999389648</ele>
        <time>2022-08-27T03:01:15.000Z</time>
      </trkpt>
      <trkpt lat="45.19957" lon="5.69521">
        <ele>208.39999389648</ele>
        <time>2022-08-27T03:01:16.000Z</time>
      </trkpt>
      <trkpt lat="45.1997" lon="5.69503">
        <ele>208</ele>
        <time>2022-08-27T03:01:23.000Z</time>
      </trkpt>
      <trkpt lat="45.19982" lon="5.69488">
        <ele>208</ele>
        <time>2022-08-27T03:01:29.000Z</time>
      </trkpt>
      <trkpt lat="45.19997" lon="5.69468">
        <ele>207.80000305176</ele>
        <time>2022-08-27T03:01:37.000Z</time>
      </trkpt>
      <trkpt lat="45.20008" lon="5.69455">
        <ele>207.60000610352</ele>
        <time>2022-08-27T03:01:43.000Z</time>
      </trkpt>
      <trkpt lat="45.20021" lon="5.69438">
        <ele>207.80000305176</ele>
        <time>2022-08-27T03:01:50.000Z</time>
      </trkpt>
      <trkpt lat="45.20033" lon="5.69419">
        <ele>207.80000305176</ele>
        <time>2022-08-27T03:01:57.000Z</time>
      </trkpt>
      <trkpt lat="45.20037" lon="5.69414">
        <ele>207.60000610352</ele>
        <time>2022-08-27T03:01:59.000Z</time>
      </trkpt>
      <trkpt lat="45.2005" lon="5.69396">
        <ele>208</ele>
        <time>2022-08-27T03:02:06.000Z</time>
      </trkpt>
      <trkpt lat="45.20055" lon="5.69388">
        <ele>207.60000610352</ele>
        <time>2022-08-27T03:02:09.000Z</time>
      </trkpt>
      <trkpt lat="45.20068" lon="5.69371">
        <ele>207.60000610352</ele>
        <time>2022-08-27T03:02:16.000Z</time>
      </trkpt>
      <trkpt lat="45.2008" lon="5.69353">
        <ele>207.60000610352</ele>
        <time>2022-08-27T03:02:23.000Z</time>
      </trkpt>
      <trkpt lat="45.20082" lon="5.6935">
        <ele>207.60000610352</ele>
        <time>2022-08-27T03:02:24.000Z</time>
      </trkpt>
      <trkpt lat="45.20097" lon="5.69329">
        <ele>207.39999389648</ele>
        <time>2022-08-27T03:02:32.000Z</time>
      </trkpt>
      <trkpt lat="45.20111" lon="5.69306">
        <ele>207.80000305176</ele>
        <time>2022-08-27T03:02:40.000Z</time>
      </trkpt>
      <trkpt lat="45.20114" lon="5.69301">
        <ele>207.80000305176</ele>
        <time>2022-08-27T03:02:42.000Z</time>
      </trkpt>
      <trkpt lat="45.20126" lon="5.69284">
        <ele>207.60000610352</ele>
        <time>2022-08-27T03:02:49.000Z</time>
      </trkpt>
      <trkpt lat="45.2013" lon="5.69279">
        <ele>207.80000305176</ele>
        <time>2022-08-27T03:02:51.000Z</time>
      </trkpt>
      <trkpt lat="45.20144" lon="5.6926">
        <ele>207.60000610352</ele>
        <time>2022-08-27T03:02:58.000Z</time>
      </trkpt>
      <trkpt lat="45.20146" lon="5.69257">
        <ele>207.60000610352</ele>
        <time>2022-08-27T03:02:59.000Z</time>
      </trkpt>
      <trkpt lat="45.2016" lon="5.69238">
        <ele>207.60000610352</ele>
        <time>2022-08-27T03:03:07.000Z</time>
      </trkpt>
      <trkpt lat="45.20174" lon="5.69219">
        <ele>207.39999389648</ele>
        <time>2022-08-27T03:03:15.000Z</time>
      </trkpt>
      <trkpt lat="45.20176" lon="5.69217">
        <ele>207.60000610352</ele>
        <time>2022-08-27T03:03:16.000Z</time>
      </trkpt>
      <trkpt lat="45.20188" lon="5.69197">
        <ele>207.39999389648</ele>
        <time>2022-08-27T03:03:23.000Z</time>
      </trkpt>
      <trkpt lat="45.2019" lon="5.69195">
        <ele>207.39999389648</ele>
        <time>2022-08-27T03:03:24.000Z</time>
      </trkpt>
      <trkpt lat="45.20201" lon="5.69179">
        <ele>207.80000305176</ele>
        <time>2022-08-27T03:03:30.000Z</time>
      </trkpt>
      <trkpt lat="45.20215" lon="5.69161">
        <ele>207.60000610352</ele>
        <time>2022-08-27T03:03:38.000Z</time>
      </trkpt>
      <trkpt lat="45.20227" lon="5.69147">
        <ele>207.39999389648</ele>
        <time>2022-08-27T03:03:46.000Z</time>
      </trkpt>
      <trkpt lat="45.20241" lon="5.69127">
        <ele>207.60000610352</ele>
        <time>2022-08-27T03:03:54.000Z</time>
      </trkpt>
      <trkpt lat="45.20253" lon="5.69109">
        <ele>207.60000610352</ele>
        <time>2022-08-27T03:04:01.000Z</time>
      </trkpt>
      <trkpt lat="45.20258" lon="5.69102">
        <ele>207.19999694824</ele>
        <time>2022-08-27T03:04:04.000Z</time>
      </trkpt>
      <trkpt lat="45.2026" lon="5.69099">
        <ele>207.19999694824</ele>
        <time>2022-08-27T03:04:05.000Z</time>
      </trkpt>
      <trkpt lat="45.20269" lon="5.69085">
        <ele>207.19999694824</ele>
        <time>2022-08-27T03:04:11.000Z</time>
      </trkpt>
      <trkpt lat="45.20283" lon="5.69068">
        <ele>207.19999694824</ele>
        <time>2022-08-27T03:04:19.000Z</time>
      </trkpt>
      <trkpt lat="45.20297" lon="5.69048">
        <ele>207.60000610352</ele>
        <time>2022-08-27T03:04:27.000Z</time>
      </trkpt>
      <trkpt lat="45.20308" lon="5.69033">
        <ele>207.60000610352</ele>
        <time>2022-08-27T03:04:33.000Z</time>
      </trkpt>
      <trkpt lat="45.2032" lon="5.69018">
        <ele>206.60000610352</ele>
        <time>2022-08-27T03:04:41.000Z</time>
      </trkpt>
      <trkpt lat="45.20332" lon="5.69003">
        <ele>206.39999389648</ele>
        <time>2022-08-27T03:04:50.000Z</time>
      </trkpt>
      <trkpt lat="45.20335" lon="5.69">
        <ele>206.19999694824</ele>
        <time>2022-08-27T03:04:52.000Z</time>
      </trkpt>
      <trkpt lat="45.20341" lon="5.68991">
        <ele>206</ele>
        <time>2022-08-27T03:04:57.000Z</time>
      </trkpt>
      <trkpt lat="45.20347" lon="5.68983">
        <ele>205.39999389648</ele>
        <time>2022-08-27T03:05:01.000Z</time>
      </trkpt>
      <trkpt lat="45.20351" lon="5.68977">
        <ele>205.39999389648</ele>
        <time>2022-08-27T03:05:04.000Z</time>
      </trkpt>
      <trkpt lat="45.2036" lon="5.68965">
        <ele>205.60000610352</ele>
        <time>2022-08-27T03:05:11.000Z</time>
      </trkpt>
      <trkpt lat="45.20372" lon="5.68948">
        <ele>205.19999694824</ele>
        <time>2022-08-27T03:05:19.000Z</time>
      </trkpt>
      <trkpt lat="45.20375" lon="5.68945">
        <ele>205.19999694824</ele>
        <time>2022-08-27T03:05:21.000Z</time>
      </trkpt>
      <trkpt lat="45.20387" lon="5.68928">
        <ele>205</ele>
        <time>2022-08-27T03:05:29.000Z</time>
      </trkpt>
      <trkpt lat="45.20397" lon="5.68916">
        <ele>205</ele>
        <time>2022-08-27T03:05:36.000Z</time>
      </trkpt>
      <trkpt lat="45.2041" lon="5.68896">
        <ele>204.80000305176</ele>
        <time>2022-08-27T03:05:45.000Z</time>
      </trkpt>
      <trkpt lat="45.20419" lon="5.68882">
        <ele>204.80000305176</ele>
        <time>2022-08-27T03:05:52.000Z</time>
      </trkpt>
      <trkpt lat="45.20429" lon="5.68871">
        <ele>204.60000610352</ele>
        <time>2022-08-27T03:05:58.000Z</time>
      </trkpt>
      <trkpt lat="45.20439" lon="5.68858">
        <ele>204.39999389648</ele>
        <time>2022-08-27T03:06:06.000Z</time>
      </trkpt>
      <trkpt lat="45.20449" lon="5.68845">
        <ele>204.19999694824</ele>
        <time>2022-08-27T03:06:13.000Z</time>
      </trkpt>
      <trkpt lat="45.20457" lon="5.68834">
        <ele>204.19999694824</ele>
        <time>2022-08-27T03:06:19.000Z</time>
      </trkpt>
      <trkpt lat="45.20461" lon="5.68829">
        <ele>204</ele>
        <time>2022-08-27T03:06:21.000Z</time>
      </trkpt>
      <trkpt lat="45.20471" lon="5.68816">
        <ele>204</ele>
        <time>2022-08-27T03:06:28.000Z</time>
      </trkpt>
      <trkpt lat="45.20481" lon="5.68802">
        <ele>203.60000610352</ele>
        <time>2022-08-27T03:06:36.000Z</time>
      </trkpt>
      <trkpt lat="45.20487" lon="5.68791">
        <ele>205</ele>
        <time>2022-08-27T03:06:43.000Z</time>
      </trkpt>
      <trkpt lat="45.20498" lon="5.68779">
        <ele>204.39999389648</ele>
        <time>2022-08-27T03:06:50.000Z</time>
      </trkpt>
      <trkpt lat="45.20506" lon="5.68765">
        <ele>204</ele>
        <time>2022-08-27T03:06:56.000Z</time>
      </trkpt>
      <trkpt lat="45.20515" lon="5.68753">
        <ele>204.19999694824</ele>
        <time>2022-08-27T03:07:02.000Z</time>
      </trkpt>
      <trkpt lat="45.20522" lon="5.68746">
        <ele>203.80000305176</ele>
        <time>2022-08-27T03:07:07.000Z</time>
      </trkpt>
      <trkpt lat="45.20524" lon="5.68743">
        <ele>203.80000305176</ele>
        <time>2022-08-27T03:07:09.000Z</time>
      </trkpt>
      <trkpt lat="45.2053" lon="5.68737">
        <ele>203.60000610352</ele>
        <time>2022-08-27T03:07:15.000Z</time>
      </trkpt>
      <trkpt lat="45.20532" lon="5.68733">
        <ele>203.60000610352</ele>
        <time>2022-08-27T03:07:17.000Z</time>
      </trkpt>
      <trkpt lat="45.20536" lon="5.68726">
        <ele>204</ele>
        <time>2022-08-27T03:07:22.000Z</time>
      </trkpt>
      <trkpt lat="45.20544" lon="5.68714">
        <ele>203.80000305176</ele>
        <time>2022-08-27T03:07:30.000Z</time>
      </trkpt>
      <trkpt lat="45.20553" lon="5.68698">
        <ele>203.80000305176</ele>
        <time>2022-08-27T03:07:38.000Z</time>
      </trkpt>
      <trkpt lat="45.20559" lon="5.6869">
        <ele>203.80000305176</ele>
        <time>2022-08-27T03:07:43.000Z</time>
      </trkpt>
      <trkpt lat="45.20561" lon="5.68687">
        <ele>203.80000305176</ele>
        <time>2022-08-27T03:07:45.000Z</time>
      </trkpt>
      <trkpt lat="45.20573" lon="5.68674">
        <ele>203.80000305176</ele>
        <time>2022-08-27T03:07:53.000Z</time>
      </trkpt>
      <trkpt lat="45.2058" lon="5.68665">
        <ele>203.80000305176</ele>
        <time>2022-08-27T03:07:59.000Z</time>
      </trkpt>
      <trkpt lat="45.2059" lon="5.6865">
        <ele>204</ele>
        <time>2022-08-27T03:08:06.000Z</time>
      </trkpt>
      <trkpt lat="45.20596" lon="5.68643">
        <ele>204</ele>
        <time>2022-08-27T03:08:10.000Z</time>
      </trkpt>
      <trkpt lat="45.20598" lon="5.68641">
        <ele>204</ele>
        <time>2022-08-27T03:08:12.000Z</time>
      </trkpt>
      <trkpt lat="45.20599" lon="5.6864">
        <ele>204</ele>
        <time>2022-08-27T03:08:13.000Z</time>
      </trkpt>
      <trkpt lat="45.20603" lon="5.68632">
        <ele>204</ele>
        <time>2022-08-27T03:08:17.000Z</time>
      </trkpt>
      <trkpt lat="45.20604" lon="5.6863">
        <ele>204</ele>
        <time>2022-08-27T03:08:18.000Z</time>
      </trkpt>
      <trkpt lat="45.20616" lon="5.68616">
        <ele>203.80000305176</ele>
        <time>2022-08-27T03:08:26.000Z</time>
      </trkpt>
      <trkpt lat="45.20624" lon="5.68606">
        <ele>203.80000305176</ele>
        <time>2022-08-27T03:08:32.000Z</time>
      </trkpt>
      <trkpt lat="45.20634" lon="5.68592">
        <ele>204.19999694824</ele>
        <time>2022-08-27T03:08:41.000Z</time>
      </trkpt>
      <trkpt lat="45.20644" lon="5.68579">
        <ele>204</ele>
        <time>2022-08-27T03:08:49.000Z</time>
      </trkpt>
      <trkpt lat="45.20652" lon="5.68566">
        <ele>204</ele>
        <time>2022-08-27T03:08:57.000Z</time>
      </trkpt>
      <trkpt lat="45.20659" lon="5.68554">
        <ele>204.39999389648</ele>
        <time>2022-08-27T03:09:04.000Z</time>
      </trkpt>
      <trkpt lat="45.2067" lon="5.68541">
        <ele>203.80000305176</ele>
        <time>2022-08-27T03:09:11.000Z</time>
      </trkpt>
      <trkpt lat="45.20678" lon="5.68531">
        <ele>203.80000305176</ele>
        <time>2022-08-27T03:09:17.000Z</time>
      </trkpt>
      <trkpt lat="45.20684" lon="5.68521">
        <ele>204.19999694824</ele>
        <time>2022-08-27T03:09:23.000Z</time>
      </trkpt>
      <trkpt lat="45.20685" lon="5.6852">
        <ele>204.19999694824</ele>
        <time>2022-08-27T03:09:24.000Z</time>
      </trkpt>
      <trkpt lat="45.20692" lon="5.68512">
        <ele>204</ele>
        <time>2022-08-27T03:09:30.000Z</time>
      </trkpt>
      <trkpt lat="45.20701" lon="5.68498">
        <ele>204.19999694824</ele>
        <time>2022-08-27T03:09:39.000Z</time>
      </trkpt>
      <trkpt lat="45.2071" lon="5.68486">
        <ele>204.19999694824</ele>
        <time>2022-08-27T03:09:47.000Z</time>
      </trkpt>
      <trkpt lat="45.20715" lon="5.68477">
        <ele>204.39999389648</ele>
        <time>2022-08-27T03:09:53.000Z</time>
      </trkpt>
      <trkpt lat="45.20724" lon="5.68464">
        <ele>204.19999694824</ele>
        <time>2022-08-27T03:10:01.000Z</time>
      </trkpt>
      <trkpt lat="45.20727" lon="5.68458">
        <ele>204.39999389648</ele>
        <time>2022-08-27T03:10:05.000Z</time>
      </trkpt>
      <trkpt lat="45.2073" lon="5.68453">
        <ele>204.39999389648</ele>
        <time>2022-08-27T03:10:08.000Z</time>
      </trkpt>
      <trkpt lat="45.20742" lon="5.68436">
        <ele>204</ele>
        <time>2022-08-27T03:10:17.000Z</time>
      </trkpt>
      <trkpt lat="45.20748" lon="5.68424">
        <ele>204</ele>
        <time>2022-08-27T03:10:25.000Z</time>
      </trkpt>
      <trkpt lat="45.20749" lon="5.68423">
        <ele>204.19999694824</ele>
        <time>2022-08-27T03:10:26.000Z</time>
      </trkpt>
      <trkpt lat="45.20752" lon="5.6842">
        <ele>204.19999694824</ele>
        <time>2022-08-27T03:10:29.000Z</time>
      </trkpt>
      <trkpt lat="45.20754" lon="5.68418">
        <ele>204</ele>
        <time>2022-08-27T03:10:32.000Z</time>
      </trkpt>
      <trkpt lat="45.20764" lon="5.68403">
        <ele>204.39999389648</ele>
        <time>2022-08-27T03:10:41.000Z</time>
      </trkpt>
      <trkpt lat="45.2077" lon="5.68391">
        <ele>204.39999389648</ele>
        <time>2022-08-27T03:10:48.000Z</time>
      </trkpt>
      <trkpt lat="45.20778" lon="5.68377">
        <ele>204.80000305176</ele>
        <time>2022-08-27T03:10:55.000Z</time>
      </trkpt>
      <trkpt lat="45.20794" lon="5.68357">
        <ele>205.19999694824</ele>
        <time>2022-08-27T03:11:03.000Z</time>
      </trkpt>
      <trkpt lat="45.20806" lon="5.68338">
        <ele>205.80000305176</ele>
        <time>2022-08-27T03:11:11.000Z</time>
      </trkpt>
      <trkpt lat="45.20813" lon="5.68327">
        <ele>206.19999694824</ele>
        <time>2022-08-27T03:11:16.000Z</time>
      </trkpt>
      <trkpt lat="45.20814" lon="5.68325">
        <ele>206.39999389648</ele>
        <time>2022-08-27T03:11:17.000Z</time>
      </trkpt>
      <trkpt lat="45.20818" lon="5.68315">
        <ele>206.80000305176</ele>
        <time>2022-08-27T03:11:21.000Z</time>
      </trkpt>
      <trkpt lat="45.20816" lon="5.68312">
        <ele>207</ele>
        <time>2022-08-27T03:11:23.000Z</time>
      </trkpt>
      <trkpt lat="45.20809" lon="5.68315">
        <ele>206.80000305176</ele>
        <time>2022-08-27T03:11:27.000Z</time>
      </trkpt>
      <trkpt lat="45.20799" lon="5.68326">
        <ele>207.19999694824</ele>
        <time>2022-08-27T03:11:34.000Z</time>
      </trkpt>
      <trkpt lat="45.20797" lon="5.68327">
        <ele>207.39999389648</ele>
        <time>2022-08-27T03:11:35.000Z</time>
      </trkpt>
      <trkpt lat="45.20781" lon="5.68341">
        <ele>208.19999694824</ele>
        <time>2022-08-27T03:11:44.000Z</time>
      </trkpt>
      <trkpt lat="45.20779" lon="5.68341">
        <ele>208.39999389648</ele>
        <time>2022-08-27T03:11:45.000Z</time>
      </trkpt>
      <trkpt lat="45.20771" lon="5.68335">
        <ele>208.80000305176</ele>
        <time>2022-08-27T03:11:49.000Z</time>
      </trkpt>
      <trkpt lat="45.20759" lon="5.68322">
        <ele>209</ele>
        <time>2022-08-27T03:11:56.000Z</time>
      </trkpt>
      <trkpt lat="45.20755" lon="5.68321">
        <ele>209.39999389648</ele>
        <time>2022-08-27T03:11:58.000Z</time>
      </trkpt>
      <trkpt lat="45.20754" lon="5.68323">
        <ele>209.39999389648</ele>
        <time>2022-08-27T03:11:59.000Z</time>
      </trkpt>
      <trkpt lat="45.20754" lon="5.68325">
        <ele>209.60000610352</ele>
        <time>2022-08-27T03:12:00.000Z</time>
      </trkpt>
      <trkpt lat="45.20757" lon="5.6833">
        <ele>209.60000610352</ele>
        <time>2022-08-27T03:12:03.000Z</time>
      </trkpt>
      <trkpt lat="45.20771" lon="5.68347">
        <ele>210.39999389648</ele>
        <time>2022-08-27T03:12:10.000Z</time>
      </trkpt>
      <trkpt lat="45.20772" lon="5.68349">
        <ele>210.39999389648</ele>
        <time>2022-08-27T03:12:11.000Z</time>
      </trkpt>
      <trkpt lat="45.20774" lon="5.68351">
        <ele>210.60000610352</ele>
        <time>2022-08-27T03:12:12.000Z</time>
      </trkpt>
      <trkpt lat="45.20781" lon="5.68365">
        <ele>210.80000305176</ele>
        <time>2022-08-27T03:12:19.000Z</time>
      </trkpt>
      <trkpt lat="45.20793" lon="5.68382">
        <ele>211</ele>
        <time>2022-08-27T03:12:27.000Z</time>
      </trkpt>
      <trkpt lat="45.20798" lon="5.6839">
        <ele>211.80000305176</ele>
        <time>2022-08-27T03:12:30.000Z</time>
      </trkpt>
      <trkpt lat="45.20804" lon="5.68397">
        <ele>211.80000305176</ele>
        <time>2022-08-27T03:12:34.000Z</time>
      </trkpt>
      <trkpt lat="45.20818" lon="5.68416">
        <ele>212</ele>
        <time>2022-08-27T03:12:43.000Z</time>
      </trkpt>
      <trkpt lat="45.20821" lon="5.6842">
        <ele>212</ele>
        <time>2022-08-27T03:12:45.000Z</time>
      </trkpt>
      <trkpt lat="45.20834" lon="5.68439">
        <ele>212.19999694824</ele>
        <time>2022-08-27T03:12:53.000Z</time>
      </trkpt>
      <trkpt lat="45.20837" lon="5.68443">
        <ele>212.19999694824</ele>
        <time>2022-08-27T03:12:55.000Z</time>
      </trkpt>
      <trkpt lat="45.20846" lon="5.68456">
        <ele>212.19999694824</ele>
        <time>2022-08-27T03:13:02.000Z</time>
      </trkpt>
      <trkpt lat="45.20862" lon="5.68479">
        <ele>212.39999389648</ele>
        <time>2022-08-27T03:13:12.000Z</time>
      </trkpt>
      <trkpt lat="45.20867" lon="5.68486">
        <ele>212.60000610352</ele>
        <time>2022-08-27T03:13:14.000Z</time>
      </trkpt>
      <trkpt lat="45.2088" lon="5.68507">
        <ele>212.19999694824</ele>
        <time>2022-08-27T03:13:23.000Z</time>
      </trkpt>
      <trkpt lat="45.20882" lon="5.68509">
        <ele>212</ele>
        <time>2022-08-27T03:13:24.000Z</time>
      </trkpt>
      <trkpt lat="45.20895" lon="5.68525">
        <ele>211.60000610352</ele>
        <time>2022-08-27T03:13:32.000Z</time>
      </trkpt>
      <trkpt lat="45.20899" lon="5.68527">
        <ele>211.80000305176</ele>
        <time>2022-08-27T03:13:34.000Z</time>
      </trkpt>
      <trkpt lat="45.20914" lon="5.68527">
        <ele>211.60000610352</ele>
        <time>2022-08-27T03:13:40.000Z</time>
      </trkpt>
      <trkpt lat="45.20925" lon="5.68517">
        <ele>210.60000610352</ele>
        <time>2022-08-27T03:13:46.000Z</time>
      </trkpt>
      <trkpt lat="45.20929" lon="5.68514">
        <ele>210.60000610352</ele>
        <time>2022-08-27T03:13:48.000Z</time>
      </trkpt>
      <trkpt lat="45.20947" lon="5.685">
        <ele>209.60000610352</ele>
        <time>2022-08-27T03:13:56.000Z</time>
      </trkpt>
      <trkpt lat="45.20949" lon="5.68499">
        <ele>209.39999389648</ele>
        <time>2022-08-27T03:13:57.000Z</time>
      </trkpt>
      <trkpt lat="45.20958" lon="5.68495">
        <ele>208.60000610352</ele>
        <time>2022-08-27T03:14:01.000Z</time>
      </trkpt>
      <trkpt lat="45.20969" lon="5.68492">
        <ele>207.60000610352</ele>
        <time>2022-08-27T03:14:05.000Z</time>
      </trkpt>
      <trkpt lat="45.20971" lon="5.68491">
        <ele>207.39999389648</ele>
        <time>2022-08-27T03:14:06.000Z</time>
      </trkpt>
      <trkpt lat="45.20986" lon="5.68483">
        <ele>206.39999389648</ele>
        <time>2022-08-27T03:14:13.000Z</time>
      </trkpt>
      <trkpt lat="45.20988" lon="5.68482">
        <ele>206.19999694824</ele>
        <time>2022-08-27T03:14:14.000Z</time>
      </trkpt>
      <trkpt lat="45.21007" lon="5.68468">
        <ele>205.60000610352</ele>
        <time>2022-08-27T03:14:22.000Z</time>
      </trkpt>
      <trkpt lat="45.21009" lon="5.68466">
        <ele>205.60000610352</ele>
        <time>2022-08-27T03:14:23.000Z</time>
      </trkpt>
      <trkpt lat="45.21024" lon="5.68454">
        <ele>206</ele>
        <time>2022-08-27T03:14:31.000Z</time>
      </trkpt>
      <trkpt lat="45.21041" lon="5.68441">
        <ele>206.39999389648</ele>
        <time>2022-08-27T03:14:39.000Z</time>
      </trkpt>
      <trkpt lat="45.21062" lon="5.68433">
        <ele>206.19999694824</ele>
        <time>2022-08-27T03:14:47.000Z</time>
      </trkpt>
      <trkpt lat="45.21066" lon="5.68432">
        <ele>206</ele>
        <time>2022-08-27T03:14:49.000Z</time>
      </trkpt>
      <trkpt lat="45.21085" lon="5.68433">
        <ele>205.80000305176</ele>
        <time>2022-08-27T03:14:56.000Z</time>
      </trkpt>
      <trkpt lat="45.21093" lon="5.68436">
        <ele>205.60000610352</ele>
        <time>2022-08-27T03:14:59.000Z</time>
      </trkpt>
      <trkpt lat="45.21106" lon="5.68445">
        <ele>205.39999389648</ele>
        <time>2022-08-27T03:15:05.000Z</time>
      </trkpt>
      <trkpt lat="45.21108" lon="5.68447">
        <ele>205.19999694824</ele>
        <time>2022-08-27T03:15:06.000Z</time>
      </trkpt>
      <trkpt lat="45.21119" lon="5.68454">
        <ele>205.19999694824</ele>
        <time>2022-08-27T03:15:11.000Z</time>
      </trkpt>
      <trkpt lat="45.21126" lon="5.68448">
        <ele>204.60000610352</ele>
        <time>2022-08-27T03:15:15.000Z</time>
      </trkpt>
      <trkpt lat="45.2113" lon="5.68435">
        <ele>204.39999389648</ele>
        <time>2022-08-27T03:15:20.000Z</time>
      </trkpt>
      <trkpt lat="45.21134" lon="5.68421">
        <ele>205</ele>
        <time>2022-08-27T03:15:26.000Z</time>
      </trkpt>
      <trkpt lat="45.21145" lon="5.68415">
        <ele>205.60000610352</ele>
        <time>2022-08-27T03:15:32.000Z</time>
      </trkpt>
      <trkpt lat="45.21146" lon="5.68413">
        <ele>205.60000610352</ele>
        <time>2022-08-27T03:15:33.000Z</time>
      </trkpt>
      <trkpt lat="45.21151" lon="5.68398">
        <ele>205.80000305176</ele>
        <time>2022-08-27T03:15:39.000Z</time>
      </trkpt>
      <trkpt lat="45.21155" lon="5.68383">
        <ele>206.39999389648</ele>
        <time>2022-08-27T03:15:44.000Z</time>
      </trkpt>
      <trkpt lat="45.21156" lon="5.6838">
        <ele>206.39999389648</ele>
        <time>2022-08-27T03:15:45.000Z</time>
      </trkpt>
      <trkpt lat="45.21163" lon="5.6836">
        <ele>206.39999389648</ele>
        <time>2022-08-27T03:15:52.000Z</time>
      </trkpt>
      <trkpt lat="45.2117" lon="5.68336">
        <ele>206.80000305176</ele>
        <time>2022-08-27T03:16:00.000Z</time>
      </trkpt>
      <trkpt lat="45.21172" lon="5.6833">
        <ele>206.80000305176</ele>
        <time>2022-08-27T03:16:02.000Z</time>
      </trkpt>
      <trkpt lat="45.2118" lon="5.68306">
        <ele>206.80000305176</ele>
        <time>2022-08-27T03:16:10.000Z</time>
      </trkpt>
      <trkpt lat="45.21182" lon="5.683">
        <ele>206.80000305176</ele>
        <time>2022-08-27T03:16:12.000Z</time>
      </trkpt>
      <trkpt lat="45.21191" lon="5.68284">
        <ele>207</ele>
        <time>2022-08-27T03:16:18.000Z</time>
      </trkpt>
      <trkpt lat="45.21199" lon="5.68261">
        <ele>206.80000305176</ele>
        <time>2022-08-27T03:16:26.000Z</time>
      </trkpt>
      <trkpt lat="45.21202" lon="5.68255">
        <ele>206.80000305176</ele>
        <time>2022-08-27T03:16:28.000Z</time>
      </trkpt>
      <trkpt lat="45.2121" lon="5.68236">
        <ele>207</ele>
        <time>2022-08-27T03:16:35.000Z</time>
      </trkpt>
      <trkpt lat="45.21219" lon="5.68213">
        <ele>206.80000305176</ele>
        <time>2022-08-27T03:16:43.000Z</time>
      </trkpt>
      <trkpt lat="45.21227" lon="5.68194">
        <ele>206.80000305176</ele>
        <time>2022-08-27T03:16:49.000Z</time>
      </trkpt>
      <trkpt lat="45.21239" lon="5.68171">
        <ele>207</ele>
        <time>2022-08-27T03:16:57.000Z</time>
      </trkpt>
      <trkpt lat="45.21241" lon="5.68166">
        <ele>207</ele>
        <time>2022-08-27T03:16:59.000Z</time>
      </trkpt>
      <trkpt lat="45.2125" lon="5.68145">
        <ele>206.80000305176</ele>
        <time>2022-08-27T03:17:07.000Z</time>
      </trkpt>
      <trkpt lat="45.21251" lon="5.68142">
        <ele>206.60000610352</ele>
        <time>2022-08-27T03:17:08.000Z</time>
      </trkpt>
      <trkpt lat="45.21261" lon="5.6812">
        <ele>206.80000305176</ele>
        <time>2022-08-27T03:17:16.000Z</time>
      </trkpt>
      <trkpt lat="45.21264" lon="5.68115">
        <ele>206.80000305176</ele>
        <time>2022-08-27T03:17:18.000Z</time>
      </trkpt>
      <trkpt lat="45.21276" lon="5.68093">
        <ele>206.80000305176</ele>
        <time>2022-08-27T03:17:26.000Z</time>
      </trkpt>
      <trkpt lat="45.21283" lon="5.68077">
        <ele>206.80000305176</ele>
        <time>2022-08-27T03:17:32.000Z</time>
      </trkpt>
      <trkpt lat="45.21296" lon="5.68057">
        <ele>206.60000610352</ele>
        <time>2022-08-27T03:17:40.000Z</time>
      </trkpt>
      <trkpt lat="45.21307" lon="5.68036">
        <ele>206.80000305176</ele>
        <time>2022-08-27T03:17:48.000Z</time>
      </trkpt>
      <trkpt lat="45.21318" lon="5.68015">
        <ele>207</ele>
        <time>2022-08-27T03:17:56.000Z</time>
      </trkpt>
      <trkpt lat="45.21328" lon="5.67994">
        <ele>206.60000610352</ele>
        <time>2022-08-27T03:18:04.000Z</time>
      </trkpt>
      <trkpt lat="45.21337" lon="5.67976">
        <ele>206.80000305176</ele>
        <time>2022-08-27T03:18:10.000Z</time>
      </trkpt>
      <trkpt lat="45.21349" lon="5.67955">
        <ele>206.80000305176</ele>
        <time>2022-08-27T03:18:18.000Z</time>
      </trkpt>
      <trkpt lat="45.21362" lon="5.67935">
        <ele>206.60000610352</ele>
        <time>2022-08-27T03:18:26.000Z</time>
      </trkpt>
      <trkpt lat="45.21367" lon="5.67928">
        <ele>206.60000610352</ele>
        <time>2022-08-27T03:18:29.000Z</time>
      </trkpt>
      <trkpt lat="45.21378" lon="5.67909">
        <ele>206.80000305176</ele>
        <time>2022-08-27T03:18:37.000Z</time>
      </trkpt>
      <trkpt lat="45.21387" lon="5.6789">
        <ele>206.80000305176</ele>
        <time>2022-08-27T03:18:45.000Z</time>
      </trkpt>
      <trkpt lat="45.21397" lon="5.67869">
        <ele>206.60000610352</ele>
        <time>2022-08-27T03:18:52.000Z</time>
      </trkpt>
      <trkpt lat="45.214" lon="5.67864">
        <ele>206.80000305176</ele>
        <time>2022-08-27T03:18:54.000Z</time>
      </trkpt>
      <trkpt lat="45.21409" lon="5.67849">
        <ele>206.80000305176</ele>
        <time>2022-08-27T03:19:00.000Z</time>
      </trkpt>
      <trkpt lat="45.2142" lon="5.67829">
        <ele>206.80000305176</ele>
        <time>2022-08-27T03:19:08.000Z</time>
      </trkpt>
      <trkpt lat="45.21421" lon="5.67826">
        <ele>206.80000305176</ele>
        <time>2022-08-27T03:19:09.000Z</time>
      </trkpt>
      <trkpt lat="45.21433" lon="5.67806">
        <ele>206.80000305176</ele>
        <time>2022-08-27T03:19:17.000Z</time>
      </trkpt>
      <trkpt lat="45.21445" lon="5.67783">
        <ele>206.60000610352</ele>
        <time>2022-08-27T03:19:25.000Z</time>
      </trkpt>
      <trkpt lat="45.21456" lon="5.67764">
        <ele>206.39999389648</ele>
        <time>2022-08-27T03:19:32.000Z</time>
      </trkpt>
      <trkpt lat="45.21468" lon="5.67743">
        <ele>206.60000610352</ele>
        <time>2022-08-27T03:19:39.000Z</time>
      </trkpt>
      <trkpt lat="45.21469" lon="5.6774">
        <ele>206.39999389648</ele>
        <time>2022-08-27T03:19:40.000Z</time>
      </trkpt>
      <trkpt lat="45.21482" lon="5.6772">
        <ele>206.19999694824</ele>
        <time>2022-08-27T03:19:48.000Z</time>
      </trkpt>
      <trkpt lat="45.21487" lon="5.67712">
        <ele>206.39999389648</ele>
        <time>2022-08-27T03:19:51.000Z</time>
      </trkpt>
      <trkpt lat="45.21498" lon="5.67689">
        <ele>206</ele>
        <time>2022-08-27T03:19:59.000Z</time>
      </trkpt>
      <trkpt lat="45.21508" lon="5.67666">
        <ele>206</ele>
        <time>2022-08-27T03:20:07.000Z</time>
      </trkpt>
      <trkpt lat="45.21519" lon="5.67645">
        <ele>205.80000305176</ele>
        <time>2022-08-27T03:20:15.000Z</time>
      </trkpt>
      <trkpt lat="45.21532" lon="5.67626">
        <ele>205.39999389648</ele>
        <time>2022-08-27T03:20:24.000Z</time>
      </trkpt>
      <trkpt lat="45.21543" lon="5.67609">
        <ele>205.39999389648</ele>
        <time>2022-08-27T03:20:32.000Z</time>
      </trkpt>
      <trkpt lat="45.2155" lon="5.67599">
        <ele>205.19999694824</ele>
        <time>2022-08-27T03:20:37.000Z</time>
      </trkpt>
      <trkpt lat="45.21553" lon="5.67595">
        <ele>205.19999694824</ele>
        <time>2022-08-27T03:20:39.000Z</time>
      </trkpt>
      <trkpt lat="45.2156" lon="5.67586">
        <ele>205.19999694824</ele>
        <time>2022-08-27T03:20:47.000Z</time>
      </trkpt>
      <trkpt lat="45.2156" lon="5.67586">
        <ele>205</ele>
        <time>2022-08-27T03:20:48.000Z</time>
      </trkpt>
      <trkpt lat="45.21559" lon="5.67584">
        <ele>204</ele>
        <time>2022-08-27T03:20:51.000Z</time>
      </trkpt>
      <trkpt lat="45.21561" lon="5.67583">
        <ele>203.19999694824</ele>
        <time>2022-08-27T03:20:57.000Z</time>
      </trkpt>
      <trkpt lat="45.2156" lon="5.67581">
        <ele>203</ele>
        <time>2022-08-27T03:21:01.000Z</time>
      </trkpt>
      <trkpt lat="45.21558" lon="5.67584">
        <ele>203</ele>
        <time>2022-08-27T03:21:05.000Z</time>
      </trkpt>
      <trkpt lat="45.21554" lon="5.67588">
        <ele>204.39999389648</ele>
        <time>2022-08-27T03:21:11.000Z</time>
      </trkpt>
      <trkpt lat="45.2155" lon="5.67596">
        <ele>205</ele>
        <time>2022-08-27T03:21:16.000Z</time>
      </trkpt>
      <trkpt lat="45.21541" lon="5.67606">
        <ele>205.19999694824</ele>
        <time>2022-08-27T03:21:24.000Z</time>
      </trkpt>
      <trkpt lat="45.21531" lon="5.6762">
        <ele>205</ele>
        <time>2022-08-27T03:21:31.000Z</time>
      </trkpt>
      <trkpt lat="45.21525" lon="5.6763">
        <ele>205</ele>
        <time>2022-08-27T03:21:36.000Z</time>
      </trkpt>
      <trkpt lat="45.21513" lon="5.67652">
        <ele>205</ele>
        <time>2022-08-27T03:21:46.000Z</time>
      </trkpt>
      <trkpt lat="45.21504" lon="5.6767">
        <ele>205.39999389648</ele>
        <time>2022-08-27T03:21:54.000Z</time>
      </trkpt>
      <trkpt lat="45.21502" lon="5.67675">
        <ele>205.60000610352</ele>
        <time>2022-08-27T03:21:56.000Z</time>
      </trkpt>
      <trkpt lat="45.21494" lon="5.67691">
        <ele>205.80000305176</ele>
        <time>2022-08-27T03:22:03.000Z</time>
      </trkpt>
      <trkpt lat="45.21492" lon="5.67699">
        <ele>205.19999694824</ele>
        <time>2022-08-27T03:22:06.000Z</time>
      </trkpt>
      <trkpt lat="45.21489" lon="5.67708">
        <ele>205.19999694824</ele>
        <time>2022-08-27T03:22:09.000Z</time>
      </trkpt>
      <trkpt lat="45.21479" lon="5.67725">
        <ele>205.39999389648</ele>
        <time>2022-08-27T03:22:16.000Z</time>
      </trkpt>
      <trkpt lat="45.21469" lon="5.67742">
        <ele>205.60000610352</ele>
        <time>2022-08-27T03:22:23.000Z</time>
      </trkpt>
      <trkpt lat="45.21457" lon="5.6776">
        <ele>205.60000610352</ele>
        <time>2022-08-27T03:22:30.000Z</time>
      </trkpt>
      <trkpt lat="45.21456" lon="5.67763">
        <ele>205.60000610352</ele>
        <time>2022-08-27T03:22:31.000Z</time>
      </trkpt>
      <trkpt lat="45.21444" lon="5.67784">
        <ele>205.39999389648</ele>
        <time>2022-08-27T03:22:39.000Z</time>
      </trkpt>
      <trkpt lat="45.21441" lon="5.67789">
        <ele>205.60000610352</ele>
        <time>2022-08-27T03:22:41.000Z</time>
      </trkpt>
      <trkpt lat="45.21429" lon="5.67811">
        <ele>205.39999389648</ele>
        <time>2022-08-27T03:22:49.000Z</time>
      </trkpt>
      <trkpt lat="45.21427" lon="5.67813">
        <ele>205.39999389648</ele>
        <time>2022-08-27T03:22:50.000Z</time>
      </trkpt>
      <trkpt lat="45.21416" lon="5.67834">
        <ele>205.60000610352</ele>
        <time>2022-08-27T03:22:58.000Z</time>
      </trkpt>
      <trkpt lat="45.21415" lon="5.67836">
        <ele>205.60000610352</ele>
        <time>2022-08-27T03:22:59.000Z</time>
      </trkpt>
      <trkpt lat="45.21406" lon="5.67854">
        <ele>205.60000610352</ele>
        <time>2022-08-27T03:23:07.000Z</time>
      </trkpt>
      <trkpt lat="45.21402" lon="5.67861">
        <ele>206.80000305176</ele>
        <time>2022-08-27T03:23:10.000Z</time>
      </trkpt>
      <trkpt lat="45.21397" lon="5.67869">
        <ele>205.39999389648</ele>
        <time>2022-08-27T03:23:14.000Z</time>
      </trkpt>
      <trkpt lat="45.21395" lon="5.67872">
        <ele>204.80000305176</ele>
        <time>2022-08-27T03:23:15.000Z</time>
      </trkpt>
      <trkpt lat="45.21394" lon="5.67874">
        <ele>204.39999389648</ele>
        <time>2022-08-27T03:23:16.000Z</time>
      </trkpt>
      <trkpt lat="45.21384" lon="5.67891">
        <ele>204</ele>
        <time>2022-08-27T03:23:22.000Z</time>
      </trkpt>
      <trkpt lat="45.21373" lon="5.6791">
        <ele>204</ele>
        <time>2022-08-27T03:23:30.000Z</time>
      </trkpt>
      <trkpt lat="45.21365" lon="5.67926">
        <ele>204.39999389648</ele>
        <time>2022-08-27T03:23:36.000Z</time>
      </trkpt>
      <trkpt lat="45.21354" lon="5.67948">
        <ele>204</ele>
        <time>2022-08-27T03:23:44.000Z</time>
      </trkpt>
      <trkpt lat="45.21352" lon="5.67951">
        <ele>204</ele>
        <time>2022-08-27T03:23:45.000Z</time>
      </trkpt>
      <trkpt lat="45.21341" lon="5.67972">
        <ele>204.19999694824</ele>
        <time>2022-08-27T03:23:54.000Z</time>
      </trkpt>
      <trkpt lat="45.21333" lon="5.67988">
        <ele>204</ele>
        <time>2022-08-27T03:24:00.000Z</time>
      </trkpt>
      <trkpt lat="45.21321" lon="5.68009">
        <ele>204.19999694824</ele>
        <time>2022-08-27T03:24:08.000Z</time>
      </trkpt>
      <trkpt lat="45.21319" lon="5.68012">
        <ele>204</ele>
        <time>2022-08-27T03:24:09.000Z</time>
      </trkpt>
      <trkpt lat="45.21306" lon="5.68034">
        <ele>204</ele>
        <time>2022-08-27T03:24:17.000Z</time>
      </trkpt>
      <trkpt lat="45.21302" lon="5.68042">
        <ele>204</ele>
        <time>2022-08-27T03:24:20.000Z</time>
      </trkpt>
      <trkpt lat="45.2129" lon="5.68063">
        <ele>204.19999694824</ele>
        <time>2022-08-27T03:24:28.000Z</time>
      </trkpt>
      <trkpt lat="45.21283" lon="5.68078">
        <ele>204.19999694824</ele>
        <time>2022-08-27T03:24:34.000Z</time>
      </trkpt>
      <trkpt lat="45.21274" lon="5.68094">
        <ele>204.60000610352</ele>
        <time>2022-08-27T03:24:40.000Z</time>
      </trkpt>
      <trkpt lat="45.21262" lon="5.68112">
        <ele>204.60000610352</ele>
        <time>2022-08-27T03:24:47.000Z</time>
      </trkpt>
      <trkpt lat="45.21261" lon="5.68115">
        <ele>204.60000610352</ele>
        <time>2022-08-27T03:24:48.000Z</time>
      </trkpt>
      <trkpt lat="45.21251" lon="5.68135">
        <ele>204.80000305176</ele>
        <time>2022-08-27T03:24:55.000Z</time>
      </trkpt>
      <trkpt lat="45.2124" lon="5.68158">
        <ele>204.60000610352</ele>
        <time>2022-08-27T03:25:03.000Z</time>
      </trkpt>
      <trkpt lat="45.21238" lon="5.68161">
        <ele>204.60000610352</ele>
        <time>2022-08-27T03:25:04.000Z</time>
      </trkpt>
      <trkpt lat="45.21228" lon="5.68185">
        <ele>204.80000305176</ele>
        <time>2022-08-27T03:25:12.000Z</time>
      </trkpt>
      <trkpt lat="45.21227" lon="5.68189">
        <ele>205</ele>
        <time>2022-08-27T03:25:13.000Z</time>
      </trkpt>
      <trkpt lat="45.21222" lon="5.68201">
        <ele>206.80000305176</ele>
        <time>2022-08-27T03:25:17.000Z</time>
      </trkpt>
      <trkpt lat="45.21219" lon="5.6821">
        <ele>206.80000305176</ele>
        <time>2022-08-27T03:25:20.000Z</time>
      </trkpt>
      <trkpt lat="45.2121" lon="5.68232">
        <ele>206.39999389648</ele>
        <time>2022-08-27T03:25:28.000Z</time>
      </trkpt>
      <trkpt lat="45.21207" lon="5.68239">
        <ele>206.39999389648</ele>
        <time>2022-08-27T03:25:30.000Z</time>
      </trkpt>
      <trkpt lat="45.21197" lon="5.68263">
        <ele>206.39999389648</ele>
        <time>2022-08-27T03:25:38.000Z</time>
      </trkpt>
      <trkpt lat="45.21189" lon="5.68283">
        <ele>206.60000610352</ele>
        <time>2022-08-27T03:25:46.000Z</time>
      </trkpt>
      <trkpt lat="45.2118" lon="5.68305">
        <ele>206.60000610352</ele>
        <time>2022-08-27T03:25:53.000Z</time>
      </trkpt>
      <trkpt lat="45.21176" lon="5.68314">
        <ele>206.60000610352</ele>
        <time>2022-08-27T03:25:56.000Z</time>
      </trkpt>
      <trkpt lat="45.21169" lon="5.68333">
        <ele>206.80000305176</ele>
        <time>2022-08-27T03:26:02.000Z</time>
      </trkpt>
      <trkpt lat="45.21166" lon="5.6834">
        <ele>206.60000610352</ele>
        <time>2022-08-27T03:26:04.000Z</time>
      </trkpt>
      <trkpt lat="45.21159" lon="5.68361">
        <ele>206.39999389648</ele>
        <time>2022-08-27T03:26:11.000Z</time>
      </trkpt>
      <trkpt lat="45.21157" lon="5.68367">
        <ele>206.39999389648</ele>
        <time>2022-08-27T03:26:13.000Z</time>
      </trkpt>
      <trkpt lat="45.21149" lon="5.68392">
        <ele>205.80000305176</ele>
        <time>2022-08-27T03:26:20.000Z</time>
      </trkpt>
      <trkpt lat="45.21148" lon="5.68395">
        <ele>205.80000305176</ele>
        <time>2022-08-27T03:26:21.000Z</time>
      </trkpt>
      <trkpt lat="45.21145" lon="5.68407">
        <ele>205.80000305176</ele>
        <time>2022-08-27T03:26:25.000Z</time>
      </trkpt>
      <trkpt lat="45.2114" lon="5.68418">
        <ele>205.60000610352</ele>
        <time>2022-08-27T03:26:29.000Z</time>
      </trkpt>
      <trkpt lat="45.21136" lon="5.68432">
        <ele>205.19999694824</ele>
        <time>2022-08-27T03:26:35.000Z</time>
      </trkpt>
      <trkpt lat="45.21135" lon="5.68458">
        <ele>204.80000305176</ele>
        <time>2022-08-27T03:26:43.000Z</time>
      </trkpt>
      <trkpt lat="45.21135" lon="5.68461">
        <ele>204.60000610352</ele>
        <time>2022-08-27T03:26:44.000Z</time>
      </trkpt>
      <trkpt lat="45.21129" lon="5.68481">
        <ele>204</ele>
        <time>2022-08-27T03:26:50.000Z</time>
      </trkpt>
      <trkpt lat="45.21122" lon="5.68519">
        <ele>204</ele>
        <time>2022-08-27T03:27:00.000Z</time>
      </trkpt>
      <trkpt lat="45.2112" lon="5.68529">
        <ele>204</ele>
        <time>2022-08-27T03:27:03.000Z</time>
      </trkpt>
      <trkpt lat="45.21117" lon="5.68539">
        <ele>203.80000305176</ele>
        <time>2022-08-27T03:27:06.000Z</time>
      </trkpt>
      <trkpt lat="45.21115" lon="5.68547">
        <ele>203.39999389648</ele>
        <time>2022-08-27T03:27:08.000Z</time>
      </trkpt>
      <trkpt lat="45.21114" lon="5.68558">
        <ele>203.19999694824</ele>
        <time>2022-08-27T03:27:12.000Z</time>
      </trkpt>
      <trkpt lat="45.21108" lon="5.6858">
        <ele>203.80000305176</ele>
        <time>2022-08-27T03:27:19.000Z</time>
      </trkpt>
      <trkpt lat="45.21103" lon="5.686">
        <ele>204.39999389648</ele>
        <time>2022-08-27T03:27:25.000Z</time>
      </trkpt>
      <trkpt lat="45.21095" lon="5.68626">
        <ele>204.60000610352</ele>
        <time>2022-08-27T03:27:32.000Z</time>
      </trkpt>
      <trkpt lat="45.21094" lon="5.68629">
        <ele>204.80000305176</ele>
        <time>2022-08-27T03:27:33.000Z</time>
      </trkpt>
      <trkpt lat="45.21093" lon="5.68633">
        <ele>205</ele>
        <time>2022-08-27T03:27:35.000Z</time>
      </trkpt>
      <trkpt lat="45.21087" lon="5.6866">
        <ele>205.80000305176</ele>
        <time>2022-08-27T03:27:43.000Z</time>
      </trkpt>
      <trkpt lat="45.21086" lon="5.68664">
        <ele>206</ele>
        <time>2022-08-27T03:27:44.000Z</time>
      </trkpt>
      <trkpt lat="45.21084" lon="5.68674">
        <ele>206</ele>
        <time>2022-08-27T03:27:47.000Z</time>
      </trkpt>
      <trkpt lat="45.2108" lon="5.68701">
        <ele>206.39999389648</ele>
        <time>2022-08-27T03:27:55.000Z</time>
      </trkpt>
      <trkpt lat="45.21079" lon="5.68705">
        <ele>206.39999389648</ele>
        <time>2022-08-27T03:27:56.000Z</time>
      </trkpt>
      <trkpt lat="45.21074" lon="5.6873">
        <ele>206.60000610352</ele>
        <time>2022-08-27T03:28:04.000Z</time>
      </trkpt>
      <trkpt lat="45.2107" lon="5.68749">
        <ele>206.80000305176</ele>
        <time>2022-08-27T03:28:09.000Z</time>
      </trkpt>
      <trkpt lat="45.21069" lon="5.68757">
        <ele>207</ele>
        <time>2022-08-27T03:28:11.000Z</time>
      </trkpt>
      <trkpt lat="45.21064" lon="5.68778">
        <ele>206.80000305176</ele>
        <time>2022-08-27T03:28:17.000Z</time>
      </trkpt>
      <trkpt lat="45.21061" lon="5.68801">
        <ele>206.80000305176</ele>
        <time>2022-08-27T03:28:24.000Z</time>
      </trkpt>
      <trkpt lat="45.21057" lon="5.68825">
        <ele>206.60000610352</ele>
        <time>2022-08-27T03:28:31.000Z</time>
      </trkpt>
      <trkpt lat="45.21054" lon="5.6884">
        <ele>206.80000305176</ele>
        <time>2022-08-27T03:28:35.000Z</time>
      </trkpt>
      <trkpt lat="45.21054" lon="5.68844">
        <ele>206.80000305176</ele>
        <time>2022-08-27T03:28:36.000Z</time>
      </trkpt>
      <trkpt lat="45.21052" lon="5.68858">
        <ele>206.80000305176</ele>
        <time>2022-08-27T03:28:40.000Z</time>
      </trkpt>
      <trkpt lat="45.21051" lon="5.68865">
        <ele>207</ele>
        <time>2022-08-27T03:28:42.000Z</time>
      </trkpt>
      <trkpt lat="45.21045" lon="5.68891">
        <ele>206.80000305176</ele>
        <time>2022-08-27T03:28:49.000Z</time>
      </trkpt>
      <trkpt lat="45.21039" lon="5.68918">
        <ele>207</ele>
        <time>2022-08-27T03:28:56.000Z</time>
      </trkpt>
      <trkpt lat="45.21036" lon="5.68943">
        <ele>206.80000305176</ele>
        <time>2022-08-27T03:29:03.000Z</time>
      </trkpt>
      <trkpt lat="45.21035" lon="5.6895">
        <ele>206.80000305176</ele>
        <time>2022-08-27T03:29:05.000Z</time>
      </trkpt>
      <trkpt lat="45.21033" lon="5.68972">
        <ele>206.80000305176</ele>
        <time>2022-08-27T03:29:11.000Z</time>
      </trkpt>
      <trkpt lat="45.2103" lon="5.68998">
        <ele>207</ele>
        <time>2022-08-27T03:29:18.000Z</time>
      </trkpt>
      <trkpt lat="45.21029" lon="5.69005">
        <ele>207</ele>
        <time>2022-08-27T03:29:20.000Z</time>
      </trkpt>
      <trkpt lat="45.21026" lon="5.69028">
        <ele>206.80000305176</ele>
        <time>2022-08-27T03:29:26.000Z</time>
      </trkpt>
      <trkpt lat="45.21023" lon="5.69053">
        <ele>206.80000305176</ele>
        <time>2022-08-27T03:29:33.000Z</time>
      </trkpt>
      <trkpt lat="45.21019" lon="5.69079">
        <ele>206.80000305176</ele>
        <time>2022-08-27T03:29:40.000Z</time>
      </trkpt>
      <trkpt lat="45.21018" lon="5.69088">
        <ele>206.80000305176</ele>
        <time>2022-08-27T03:29:42.000Z</time>
      </trkpt>
      <trkpt lat="45.21016" lon="5.69111">
        <ele>207</ele>
        <time>2022-08-27T03:29:48.000Z</time>
      </trkpt>
      <trkpt lat="45.21015" lon="5.69137">
        <ele>206.80000305176</ele>
        <time>2022-08-27T03:29:55.000Z</time>
      </trkpt>
      <trkpt lat="45.21012" lon="5.69162">
        <ele>206.80000305176</ele>
        <time>2022-08-27T03:30:02.000Z</time>
      </trkpt>
      <trkpt lat="45.2101" lon="5.69185">
        <ele>206.60000610352</ele>
        <time>2022-08-27T03:30:08.000Z</time>
      </trkpt>
      <trkpt lat="45.21007" lon="5.69211">
        <ele>207</ele>
        <time>2022-08-27T03:30:15.000Z</time>
      </trkpt>
      <trkpt lat="45.21006" lon="5.6922">
        <ele>207</ele>
        <time>2022-08-27T03:30:17.000Z</time>
      </trkpt>
      <trkpt lat="45.21002" lon="5.69243">
        <ele>206.80000305176</ele>
        <time>2022-08-27T03:30:24.000Z</time>
      </trkpt>
      <trkpt lat="45.20999" lon="5.69268">
        <ele>206.80000305176</ele>
        <time>2022-08-27T03:30:31.000Z</time>
      </trkpt>
      <trkpt lat="45.20994" lon="5.69295">
        <ele>207</ele>
        <time>2022-08-27T03:30:38.000Z</time>
      </trkpt>
      <trkpt lat="45.20994" lon="5.69303">
        <ele>207</ele>
        <time>2022-08-27T03:30:40.000Z</time>
      </trkpt>
      <trkpt lat="45.20991" lon="5.69329">
        <ele>206.80000305176</ele>
        <time>2022-08-27T03:30:48.000Z</time>
      </trkpt>
      <trkpt lat="45.20987" lon="5.69358">
        <ele>207.19999694824</ele>
        <time>2022-08-27T03:30:55.000Z</time>
      </trkpt>
      <trkpt lat="45.20985" lon="5.69364">
        <ele>207.19999694824</ele>
        <time>2022-08-27T03:30:57.000Z</time>
      </trkpt>
      <trkpt lat="45.20978" lon="5.69387">
        <ele>206.80000305176</ele>
        <time>2022-08-27T03:31:04.000Z</time>
      </trkpt>
      <trkpt lat="45.20975" lon="5.69398">
        <ele>207.19999694824</ele>
        <time>2022-08-27T03:31:07.000Z</time>
      </trkpt>
      <trkpt lat="45.20965" lon="5.69425">
        <ele>207.19999694824</ele>
        <time>2022-08-27T03:31:15.000Z</time>
      </trkpt>
      <trkpt lat="45.20963" lon="5.69433">
        <ele>207.19999694824</ele>
        <time>2022-08-27T03:31:17.000Z</time>
      </trkpt>
      <trkpt lat="45.20954" lon="5.69457">
        <ele>207.19999694824</ele>
        <time>2022-08-27T03:31:24.000Z</time>
      </trkpt>
      <trkpt lat="45.20953" lon="5.6946">
        <ele>207.39999389648</ele>
        <time>2022-08-27T03:31:25.000Z</time>
      </trkpt>
      <trkpt lat="45.20943" lon="5.69484">
        <ele>207.60000610352</ele>
        <time>2022-08-27T03:31:33.000Z</time>
      </trkpt>
      <trkpt lat="45.20935" lon="5.69505">
        <ele>207.60000610352</ele>
        <time>2022-08-27T03:31:39.000Z</time>
      </trkpt>
      <trkpt lat="45.20932" lon="5.69516">
        <ele>207.60000610352</ele>
        <time>2022-08-27T03:31:42.000Z</time>
      </trkpt>
      <trkpt lat="45.20924" lon="5.6954">
        <ele>207.80000305176</ele>
        <time>2022-08-27T03:31:49.000Z</time>
      </trkpt>
      <trkpt lat="45.20923" lon="5.69543">
        <ele>208</ele>
        <time>2022-08-27T03:31:50.000Z</time>
      </trkpt>
      <trkpt lat="45.2092" lon="5.6955">
        <ele>208</ele>
        <time>2022-08-27T03:31:52.000Z</time>
      </trkpt>
      <trkpt lat="45.20912" lon="5.69575">
        <ele>208</ele>
        <time>2022-08-27T03:31:59.000Z</time>
      </trkpt>
      <trkpt lat="45.2091" lon="5.69582">
        <ele>208</ele>
        <time>2022-08-27T03:32:01.000Z</time>
      </trkpt>
      <trkpt lat="45.20901" lon="5.69607">
        <ele>207.80000305176</ele>
        <time>2022-08-27T03:32:08.000Z</time>
      </trkpt>
      <trkpt lat="45.2089" lon="5.69633">
        <ele>207.60000610352</ele>
        <time>2022-08-27T03:32:16.000Z</time>
      </trkpt>
      <trkpt lat="45.20889" lon="5.69636">
        <ele>207.60000610352</ele>
        <time>2022-08-27T03:32:17.000Z</time>
      </trkpt>
      <trkpt lat="45.20879" lon="5.69661">
        <ele>207.60000610352</ele>
        <time>2022-08-27T03:32:25.000Z</time>
      </trkpt>
      <trkpt lat="45.20871" lon="5.6969">
        <ele>207.80000305176</ele>
        <time>2022-08-27T03:32:34.000Z</time>
      </trkpt>
      <trkpt lat="45.20859" lon="5.69712">
        <ele>207.60000610352</ele>
        <time>2022-08-27T03:32:42.000Z</time>
      </trkpt>
      <trkpt lat="45.20857" lon="5.69715">
        <ele>207.60000610352</ele>
        <time>2022-08-27T03:32:43.000Z</time>
      </trkpt>
      <trkpt lat="45.20847" lon="5.69735">
        <ele>207.39999389648</ele>
        <time>2022-08-27T03:32:50.000Z</time>
      </trkpt>
      <trkpt lat="45.20843" lon="5.69741">
        <ele>207.19999694824</ele>
        <time>2022-08-27T03:32:52.000Z</time>
      </trkpt>
      <trkpt lat="45.20834" lon="5.69757">
        <ele>207.80000305176</ele>
        <time>2022-08-27T03:32:58.000Z</time>
      </trkpt>
      <trkpt lat="45.20826" lon="5.69775">
        <ele>207.60000610352</ele>
        <time>2022-08-27T03:33:04.000Z</time>
      </trkpt>
      <trkpt lat="45.20818" lon="5.69792">
        <ele>207.60000610352</ele>
        <time>2022-08-27T03:33:10.000Z</time>
      </trkpt>
      <trkpt lat="45.20811" lon="5.6981">
        <ele>207.60000610352</ele>
        <time>2022-08-27T03:33:15.000Z</time>
      </trkpt>
      <trkpt lat="45.20806" lon="5.69829">
        <ele>208</ele>
        <time>2022-08-27T03:33:20.000Z</time>
      </trkpt>
      <trkpt lat="45.208" lon="5.69853">
        <ele>207.60000610352</ele>
        <time>2022-08-27T03:33:26.000Z</time>
      </trkpt>
      <trkpt lat="45.20796" lon="5.6987">
        <ele>207.60000610352</ele>
        <time>2022-08-27T03:33:31.000Z</time>
      </trkpt>
      <trkpt lat="45.2079" lon="5.69892">
        <ele>207.60000610352</ele>
        <time>2022-08-27T03:33:37.000Z</time>
      </trkpt>
      <trkpt lat="45.20789" lon="5.69896">
        <ele>207.60000610352</ele>
        <time>2022-08-27T03:33:38.000Z</time>
      </trkpt>
      <trkpt lat="45.20782" lon="5.69916">
        <ele>207.60000610352</ele>
        <time>2022-08-27T03:33:44.000Z</time>
      </trkpt>
      <trkpt lat="45.2078" lon="5.69923">
        <ele>207.60000610352</ele>
        <time>2022-08-27T03:33:46.000Z</time>
      </trkpt>
      <trkpt lat="45.20772" lon="5.69944">
        <ele>208</ele>
        <time>2022-08-27T03:33:52.000Z</time>
      </trkpt>
      <trkpt lat="45.20763" lon="5.69963">
        <ele>207.60000610352</ele>
        <time>2022-08-27T03:33:58.000Z</time>
      </trkpt>
      <trkpt lat="45.20762" lon="5.69967">
        <ele>207.60000610352</ele>
        <time>2022-08-27T03:33:59.000Z</time>
      </trkpt>
      <trkpt lat="45.20751" lon="5.6999">
        <ele>207.80000305176</ele>
        <time>2022-08-27T03:34:06.000Z</time>
      </trkpt>
      <trkpt lat="45.2075" lon="5.69994">
        <ele>207.60000610352</ele>
        <time>2022-08-27T03:34:07.000Z</time>
      </trkpt>
      <trkpt lat="45.20748" lon="5.69998">
        <ele>207.80000305176</ele>
        <time>2022-08-27T03:34:08.000Z</time>
      </trkpt>
      <trkpt lat="45.20742" lon="5.70015">
        <ele>208</ele>
        <time>2022-08-27T03:34:13.000Z</time>
      </trkpt>
      <trkpt lat="45.20738" lon="5.70038">
        <ele>208.19999694824</ele>
        <time>2022-08-27T03:34:19.000Z</time>
      </trkpt>
      <trkpt lat="45.20735" lon="5.70063">
        <ele>208</ele>
        <time>2022-08-27T03:34:26.000Z</time>
      </trkpt>
      <trkpt lat="45.20733" lon="5.70069">
        <ele>208.19999694824</ele>
        <time>2022-08-27T03:34:28.000Z</time>
      </trkpt>
      <trkpt lat="45.20725" lon="5.70095">
        <ele>207.80000305176</ele>
        <time>2022-08-27T03:34:35.000Z</time>
      </trkpt>
      <trkpt lat="45.20722" lon="5.70106">
        <ele>207.80000305176</ele>
        <time>2022-08-27T03:34:38.000Z</time>
      </trkpt>
      <trkpt lat="45.20714" lon="5.7013">
        <ele>207.80000305176</ele>
        <time>2022-08-27T03:34:45.000Z</time>
      </trkpt>
      <trkpt lat="45.20712" lon="5.70133">
        <ele>208</ele>
        <time>2022-08-27T03:34:46.000Z</time>
      </trkpt>
      <trkpt lat="45.20706" lon="5.70144">
        <ele>208.19999694824</ele>
        <time>2022-08-27T03:34:50.000Z</time>
      </trkpt>
      <trkpt lat="45.20703" lon="5.70148">
        <ele>208</ele>
        <time>2022-08-27T03:34:52.000Z</time>
      </trkpt>
      <trkpt lat="45.2069" lon="5.70159">
        <ele>207.19999694824</ele>
        <time>2022-08-27T03:34:58.000Z</time>
      </trkpt>
      <trkpt lat="45.20688" lon="5.70162">
        <ele>207</ele>
        <time>2022-08-27T03:34:59.000Z</time>
      </trkpt>
      <trkpt lat="45.20672" lon="5.70181">
        <ele>206.19999694824</ele>
        <time>2022-08-27T03:35:08.000Z</time>
      </trkpt>
      <trkpt lat="45.20669" lon="5.70196">
        <ele>206.60000610352</ele>
        <time>2022-08-27T03:35:14.000Z</time>
      </trkpt>
      <trkpt lat="45.20669" lon="5.70212">
        <ele>207.60000610352</ele>
        <time>2022-08-27T03:35:19.000Z</time>
      </trkpt>
      <trkpt lat="45.20668" lon="5.70219">
        <ele>208</ele>
        <time>2022-08-27T03:35:21.000Z</time>
      </trkpt>
      <trkpt lat="45.20663" lon="5.70246">
        <ele>208</ele>
        <time>2022-08-27T03:35:28.000Z</time>
      </trkpt>
      <trkpt lat="45.20662" lon="5.70249">
        <ele>208.19999694824</ele>
        <time>2022-08-27T03:35:29.000Z</time>
      </trkpt>
      <trkpt lat="45.20656" lon="5.70272">
        <ele>208.39999389648</ele>
        <time>2022-08-27T03:35:36.000Z</time>
      </trkpt>
      <trkpt lat="45.20655" lon="5.70276">
        <ele>208.39999389648</ele>
        <time>2022-08-27T03:35:37.000Z</time>
      </trkpt>
      <trkpt lat="45.20649" lon="5.70303">
        <ele>208.39999389648</ele>
        <time>2022-08-27T03:35:44.000Z</time>
      </trkpt>
      <trkpt lat="45.20647" lon="5.7031">
        <ele>208.39999389648</ele>
        <time>2022-08-27T03:35:46.000Z</time>
      </trkpt>
      <trkpt lat="45.20641" lon="5.70332">
        <ele>208.39999389648</ele>
        <time>2022-08-27T03:35:53.000Z</time>
      </trkpt>
      <trkpt lat="45.2064" lon="5.70336">
        <ele>208.39999389648</ele>
        <time>2022-08-27T03:35:54.000Z</time>
      </trkpt>
      <trkpt lat="45.20634" lon="5.70354">
        <ele>208.19999694824</ele>
        <time>2022-08-27T03:36:00.000Z</time>
      </trkpt>
      <trkpt lat="45.20625" lon="5.70381">
        <ele>208.19999694824</ele>
        <time>2022-08-27T03:36:08.000Z</time>
      </trkpt>
      <trkpt lat="45.20617" lon="5.70403">
        <ele>208.19999694824</ele>
        <time>2022-08-27T03:36:15.000Z</time>
      </trkpt>
      <trkpt lat="45.20608" lon="5.70427">
        <ele>208.19999694824</ele>
        <time>2022-08-27T03:36:22.000Z</time>
      </trkpt>
      <trkpt lat="45.20607" lon="5.7043">
        <ele>208.19999694824</ele>
        <time>2022-08-27T03:36:23.000Z</time>
      </trkpt>
      <trkpt lat="45.20597" lon="5.70456">
        <ele>208.19999694824</ele>
        <time>2022-08-27T03:36:31.000Z</time>
      </trkpt>
      <trkpt lat="45.2059" lon="5.70477">
        <ele>208.19999694824</ele>
        <time>2022-08-27T03:36:38.000Z</time>
      </trkpt>
      <trkpt lat="45.20583" lon="5.70497">
        <ele>208.39999389648</ele>
        <time>2022-08-27T03:36:44.000Z</time>
      </trkpt>
      <trkpt lat="45.20575" lon="5.70521">
        <ele>208.39999389648</ele>
        <time>2022-08-27T03:36:51.000Z</time>
      </trkpt>
      <trkpt lat="45.20574" lon="5.70524">
        <ele>208.39999389648</ele>
        <time>2022-08-27T03:36:52.000Z</time>
      </trkpt>
      <trkpt lat="45.20567" lon="5.70548">
        <ele>208</ele>
        <time>2022-08-27T03:36:59.000Z</time>
      </trkpt>
      <trkpt lat="45.2056" lon="5.70574">
        <ele>208</ele>
        <time>2022-08-27T03:37:07.000Z</time>
      </trkpt>
      <trkpt lat="45.20552" lon="5.70599">
        <ele>208.19999694824</ele>
        <time>2022-08-27T03:37:15.000Z</time>
      </trkpt>
      <trkpt lat="45.20551" lon="5.70603">
        <ele>208.39999389648</ele>
        <time>2022-08-27T03:37:16.000Z</time>
      </trkpt>
      <trkpt lat="45.20543" lon="5.70626">
        <ele>208.39999389648</ele>
        <time>2022-08-27T03:37:23.000Z</time>
      </trkpt>
      <trkpt lat="45.2054" lon="5.70639">
        <ele>208.39999389648</ele>
        <time>2022-08-27T03:37:27.000Z</time>
      </trkpt>
      <trkpt lat="45.20532" lon="5.70666">
        <ele>208.60000610352</ele>
        <time>2022-08-27T03:37:35.000Z</time>
      </trkpt>
      <trkpt lat="45.20524" lon="5.70694">
        <ele>207.39999389648</ele>
        <time>2022-08-27T03:37:44.000Z</time>
      </trkpt>
      <trkpt lat="45.20523" lon="5.70703">
        <ele>206.80000305176</ele>
        <time>2022-08-27T03:37:47.000Z</time>
      </trkpt>
      <trkpt lat="45.2052" lon="5.70721">
        <ele>206.19999694824</ele>
        <time>2022-08-27T03:37:52.000Z</time>
      </trkpt>
      <trkpt lat="45.20516" lon="5.70741">
        <ele>205.80000305176</ele>
        <time>2022-08-27T03:37:59.000Z</time>
      </trkpt>
      <trkpt lat="45.20514" lon="5.7075">
        <ele>206.19999694824</ele>
        <time>2022-08-27T03:38:02.000Z</time>
      </trkpt>
      <trkpt lat="45.20509" lon="5.70771">
        <ele>205.80000305176</ele>
        <time>2022-08-27T03:38:09.000Z</time>
      </trkpt>
      <trkpt lat="45.20506" lon="5.70781">
        <ele>206</ele>
        <time>2022-08-27T03:38:12.000Z</time>
      </trkpt>
      <trkpt lat="45.20499" lon="5.70801">
        <ele>206.19999694824</ele>
        <time>2022-08-27T03:38:19.000Z</time>
      </trkpt>
      <trkpt lat="45.20497" lon="5.70804">
        <ele>206.19999694824</ele>
        <time>2022-08-27T03:38:20.000Z</time>
      </trkpt>
      <trkpt lat="45.20495" lon="5.70812">
        <ele>206.60000610352</ele>
        <time>2022-08-27T03:38:23.000Z</time>
      </trkpt>
      <trkpt lat="45.20495" lon="5.70814">
        <ele>207</ele>
        <time>2022-08-27T03:38:24.000Z</time>
      </trkpt>
      <trkpt lat="45.20494" lon="5.70819">
        <ele>207.39999389648</ele>
        <time>2022-08-27T03:38:26.000Z</time>
      </trkpt>
      <trkpt lat="45.20491" lon="5.70846">
        <ele>207.39999389648</ele>
        <time>2022-08-27T03:38:35.000Z</time>
      </trkpt>
      <trkpt lat="45.20488" lon="5.70875">
        <ele>207</ele>
        <time>2022-08-27T03:38:43.000Z</time>
      </trkpt>
      <trkpt lat="45.20484" lon="5.70899">
        <ele>205.80000305176</ele>
        <time>2022-08-27T03:38:51.000Z</time>
      </trkpt>
      <trkpt lat="45.20482" lon="5.70909">
        <ele>205.39999389648</ele>
        <time>2022-08-27T03:38:54.000Z</time>
      </trkpt>
      <trkpt lat="45.20479" lon="5.70924">
        <ele>204.80000305176</ele>
        <time>2022-08-27T03:38:58.000Z</time>
      </trkpt>
      <trkpt lat="45.20477" lon="5.70933">
        <ele>204.39999389648</ele>
        <time>2022-08-27T03:39:01.000Z</time>
      </trkpt>
      <trkpt lat="45.20468" lon="5.70959">
        <ele>204.19999694824</ele>
        <time>2022-08-27T03:39:09.000Z</time>
      </trkpt>
      <trkpt lat="45.20459" lon="5.70983">
        <ele>204</ele>
        <time>2022-08-27T03:39:17.000Z</time>
      </trkpt>
      <trkpt lat="45.2045" lon="5.71005">
        <ele>204</ele>
        <time>2022-08-27T03:39:25.000Z</time>
      </trkpt>
      <trkpt lat="45.2044" lon="5.71029">
        <ele>204.19999694824</ele>
        <time>2022-08-27T03:39:33.000Z</time>
      </trkpt>
      <trkpt lat="45.20429" lon="5.7105">
        <ele>204.19999694824</ele>
        <time>2022-08-27T03:39:41.000Z</time>
      </trkpt>
      <trkpt lat="45.20418" lon="5.71072">
        <ele>204.39999389648</ele>
        <time>2022-08-27T03:39:49.000Z</time>
      </trkpt>
      <trkpt lat="45.20407" lon="5.71087">
        <ele>204.39999389648</ele>
        <time>2022-08-27T03:39:56.000Z</time>
      </trkpt>
      <trkpt lat="45.20394" lon="5.71106">
        <ele>204.39999389648</ele>
        <time>2022-08-27T03:40:04.000Z</time>
      </trkpt>
      <trkpt lat="45.20391" lon="5.71111">
        <ele>204.39999389648</ele>
        <time>2022-08-27T03:40:06.000Z</time>
      </trkpt>
      <trkpt lat="45.20379" lon="5.71128">
        <ele>204.19999694824</ele>
        <time>2022-08-27T03:40:13.000Z</time>
      </trkpt>
      <trkpt lat="45.20377" lon="5.71131">
        <ele>204.19999694824</ele>
        <time>2022-08-27T03:40:14.000Z</time>
      </trkpt>
      <trkpt lat="45.20366" lon="5.71146">
        <ele>204.39999389648</ele>
        <time>2022-08-27T03:40:20.000Z</time>
      </trkpt>
      <trkpt lat="45.20351" lon="5.71166">
        <ele>204.19999694824</ele>
        <time>2022-08-27T03:40:28.000Z</time>
      </trkpt>
      <trkpt lat="45.20347" lon="5.71171">
        <ele>204.39999389648</ele>
        <time>2022-08-27T03:40:30.000Z</time>
      </trkpt>
      <trkpt lat="45.20334" lon="5.71188">
        <ele>204.60000610352</ele>
        <time>2022-08-27T03:40:37.000Z</time>
      </trkpt>
      <trkpt lat="45.20324" lon="5.71203">
        <ele>204.60000610352</ele>
        <time>2022-08-27T03:40:43.000Z</time>
      </trkpt>
      <trkpt lat="45.20311" lon="5.7122">
        <ele>204.80000305176</ele>
        <time>2022-08-27T03:40:50.000Z</time>
      </trkpt>
      <trkpt lat="45.2031" lon="5.71222">
        <ele>204.80000305176</ele>
        <time>2022-08-27T03:40:51.000Z</time>
      </trkpt>
      <trkpt lat="45.20296" lon="5.71239">
        <ele>204.80000305176</ele>
        <time>2022-08-27T03:40:58.000Z</time>
      </trkpt>
      <trkpt lat="45.20294" lon="5.71242">
        <ele>204.80000305176</ele>
        <time>2022-08-27T03:40:59.000Z</time>
      </trkpt>
      <trkpt lat="45.20281" lon="5.71258">
        <ele>204.80000305176</ele>
        <time>2022-08-27T03:41:06.000Z</time>
      </trkpt>
      <trkpt lat="45.20267" lon="5.71273">
        <ele>204.80000305176</ele>
        <time>2022-08-27T03:41:13.000Z</time>
      </trkpt>
      <trkpt lat="45.20253" lon="5.71293">
        <ele>205</ele>
        <time>2022-08-27T03:41:21.000Z</time>
      </trkpt>
      <trkpt lat="45.20251" lon="5.71295">
        <ele>205.19999694824</ele>
        <time>2022-08-27T03:41:22.000Z</time>
      </trkpt>
      <trkpt lat="45.20237" lon="5.7131">
        <ele>205</ele>
        <time>2022-08-27T03:41:29.000Z</time>
      </trkpt>
      <trkpt lat="45.20222" lon="5.71327">
        <ele>204.80000305176</ele>
        <time>2022-08-27T03:41:37.000Z</time>
      </trkpt>
      <trkpt lat="45.20219" lon="5.71329">
        <ele>205</ele>
        <time>2022-08-27T03:41:38.000Z</time>
      </trkpt>
      <trkpt lat="45.20204" lon="5.71345">
        <ele>205</ele>
        <time>2022-08-27T03:41:45.000Z</time>
      </trkpt>
      <trkpt lat="45.20202" lon="5.71347">
        <ele>205</ele>
        <time>2022-08-27T03:41:46.000Z</time>
      </trkpt>
      <trkpt lat="45.20188" lon="5.71358">
        <ele>205</ele>
        <time>2022-08-27T03:41:52.000Z</time>
      </trkpt>
      <trkpt lat="45.20173" lon="5.7137">
        <ele>205</ele>
        <time>2022-08-27T03:41:59.000Z</time>
      </trkpt>
      <trkpt lat="45.20156" lon="5.71382">
        <ele>205.19999694824</ele>
        <time>2022-08-27T03:42:07.000Z</time>
      </trkpt>
      <trkpt lat="45.20141" lon="5.71392">
        <ele>205.19999694824</ele>
        <time>2022-08-27T03:42:14.000Z</time>
      </trkpt>
      <trkpt lat="45.20124" lon="5.71401">
        <ele>205.39999389648</ele>
        <time>2022-08-27T03:42:22.000Z</time>
      </trkpt>
      <trkpt lat="45.20121" lon="5.71402">
        <ele>205.80000305176</ele>
        <time>2022-08-27T03:42:24.000Z</time>
      </trkpt>
      <trkpt lat="45.20111" lon="5.71405">
        <ele>206.60000610352</ele>
        <time>2022-08-27T03:42:30.000Z</time>
      </trkpt>
      <trkpt lat="45.20109" lon="5.71405">
        <ele>206.80000305176</ele>
        <time>2022-08-27T03:42:31.000Z</time>
      </trkpt>
      <trkpt lat="45.20101" lon="5.71406">
        <ele>208</ele>
        <time>2022-08-27T03:42:37.000Z</time>
      </trkpt>
      <trkpt lat="45.20099" lon="5.71407">
        <ele>208.19999694824</ele>
        <time>2022-08-27T03:42:38.000Z</time>
      </trkpt>
      <trkpt lat="45.20088" lon="5.71412">
        <ele>208.39999389648</ele>
        <time>2022-08-27T03:42:45.000Z</time>
      </trkpt>
      <trkpt lat="45.20072" lon="5.71422">
        <ele>208.39999389648</ele>
        <time>2022-08-27T03:42:53.000Z</time>
      </trkpt>
      <trkpt lat="45.20057" lon="5.71429">
        <ele>208.39999389648</ele>
        <time>2022-08-27T03:43:01.000Z</time>
      </trkpt>
      <trkpt lat="45.20039" lon="5.71435">
        <ele>208.60000610352</ele>
        <time>2022-08-27T03:43:09.000Z</time>
      </trkpt>
      <trkpt lat="45.20034" lon="5.71435">
        <ele>208.60000610352</ele>
        <time>2022-08-27T03:43:11.000Z</time>
      </trkpt>
      <trkpt lat="45.20018" lon="5.71438">
        <ele>208.60000610352</ele>
        <time>2022-08-27T03:43:18.000Z</time>
      </trkpt>
      <trkpt lat="45.2" lon="5.71441">
        <ele>208.60000610352</ele>
        <time>2022-08-27T03:43:25.000Z</time>
      </trkpt>
      <trkpt lat="45.19998" lon="5.71441">
        <ele>208.60000610352</ele>
        <time>2022-08-27T03:43:26.000Z</time>
      </trkpt>
      <trkpt lat="45.19985" lon="5.71439">
        <ele>208.80000305176</ele>
        <time>2022-08-27T03:43:32.000Z</time>
      </trkpt>
      <trkpt lat="45.19968" lon="5.7144">
        <ele>208.60000610352</ele>
        <time>2022-08-27T03:43:41.000Z</time>
      </trkpt>
      <trkpt lat="45.19957" lon="5.71448">
        <ele>209</ele>
        <time>2022-08-27T03:43:47.000Z</time>
      </trkpt>
      <trkpt lat="45.19956" lon="5.71449">
        <ele>209</ele>
        <time>2022-08-27T03:43:48.000Z</time>
      </trkpt>
      <trkpt lat="45.19946" lon="5.7145">
        <ele>209</ele>
        <time>2022-08-27T03:43:53.000Z</time>
      </trkpt>
      <trkpt lat="45.19929" lon="5.71452">
        <ele>209.19999694824</ele>
        <time>2022-08-27T03:44:00.000Z</time>
      </trkpt>
      <trkpt lat="45.19926" lon="5.71452">
        <ele>209.19999694824</ele>
        <time>2022-08-27T03:44:01.000Z</time>
      </trkpt>
      <trkpt lat="45.19908" lon="5.71454">
        <ele>209</ele>
        <time>2022-08-27T03:44:09.000Z</time>
      </trkpt>
      <trkpt lat="45.19892" lon="5.71454">
        <ele>209.19999694824</ele>
        <time>2022-08-27T03:44:16.000Z</time>
      </trkpt>
      <trkpt lat="45.19873" lon="5.71453">
        <ele>209</ele>
        <time>2022-08-27T03:44:24.000Z</time>
      </trkpt>
      <trkpt lat="45.19871" lon="5.71453">
        <ele>209</ele>
        <time>2022-08-27T03:44:25.000Z</time>
      </trkpt>
      <trkpt lat="45.19852" lon="5.7145">
        <ele>209.19999694824</ele>
        <time>2022-08-27T03:44:33.000Z</time>
      </trkpt>
      <trkpt lat="45.19844" lon="5.71449">
        <ele>209.60000610352</ele>
        <time>2022-08-27T03:44:37.000Z</time>
      </trkpt>
      <trkpt lat="45.19827" lon="5.71446">
        <ele>209.39999389648</ele>
        <time>2022-08-27T03:44:44.000Z</time>
      </trkpt>
      <trkpt lat="45.19809" lon="5.7144">
        <ele>209.39999389648</ele>
        <time>2022-08-27T03:44:52.000Z</time>
      </trkpt>
      <trkpt lat="45.19802" lon="5.71438">
        <ele>209.39999389648</ele>
        <time>2022-08-27T03:44:55.000Z</time>
      </trkpt>
      <trkpt lat="45.19785" lon="5.71436">
        <ele>209.39999389648</ele>
        <time>2022-08-27T03:45:03.000Z</time>
      </trkpt>
      <trkpt lat="45.19785" lon="5.71436">
        <ele>209.39999389648</ele>
        <time>2022-08-27T03:45:04.000Z</time>
      </trkpt>
      <trkpt lat="45.19782" lon="5.71432">
        <ele>209.60000610352</ele>
        <time>2022-08-27T03:45:07.000Z</time>
      </trkpt>
      <trkpt lat="45.19775" lon="5.71423">
        <ele>209.39999389648</ele>
        <time>2022-08-27T03:45:14.000Z</time>
      </trkpt>
      <trkpt lat="45.19772" lon="5.7141">
        <ele>209.39999389648</ele>
        <time>2022-08-27T03:45:21.000Z</time>
      </trkpt>
      <trkpt lat="45.19771" lon="5.71382">
        <ele>209.60000610352</ele>
        <time>2022-08-27T03:45:31.000Z</time>
      </trkpt>
      <trkpt lat="45.1977" lon="5.7136">
        <ele>209.39999389648</ele>
        <time>2022-08-27T03:45:39.000Z</time>
      </trkpt>
      <trkpt lat="45.19767" lon="5.71339">
        <ele>209.39999389648</ele>
        <time>2022-08-27T03:45:45.000Z</time>
      </trkpt>
      <trkpt lat="45.19764" lon="5.71315">
        <ele>209.60000610352</ele>
        <time>2022-08-27T03:45:53.000Z</time>
      </trkpt>
      <trkpt lat="45.19757" lon="5.71294">
        <ele>209.60000610352</ele>
        <time>2022-08-27T03:46:00.000Z</time>
      </trkpt>
      <trkpt lat="45.19744" lon="5.71276">
        <ele>209.80000305176</ele>
        <time>2022-08-27T03:46:08.000Z</time>
      </trkpt>
      <trkpt lat="45.19743" lon="5.71274">
        <ele>209.80000305176</ele>
        <time>2022-08-27T03:46:09.000Z</time>
      </trkpt>
      <trkpt lat="45.19734" lon="5.71257">
        <ele>209.80000305176</ele>
        <time>2022-08-27T03:46:15.000Z</time>
      </trkpt>
      <trkpt lat="45.19732" lon="5.71255">
        <ele>209.80000305176</ele>
        <time>2022-08-27T03:46:16.000Z</time>
      </trkpt>
      <trkpt lat="45.19722" lon="5.71241">
        <ele>210</ele>
        <time>2022-08-27T03:46:23.000Z</time>
      </trkpt>
      <trkpt lat="45.19711" lon="5.71226">
        <ele>209.80000305176</ele>
        <time>2022-08-27T03:46:30.000Z</time>
      </trkpt>
      <trkpt lat="45.19701" lon="5.71213">
        <ele>209.80000305176</ele>
        <time>2022-08-27T03:46:36.000Z</time>
      </trkpt>
      <trkpt lat="45.19689" lon="5.71199">
        <ele>209.60000610352</ele>
        <time>2022-08-27T03:46:43.000Z</time>
      </trkpt>
      <trkpt lat="45.19688" lon="5.71196">
        <ele>209.60000610352</ele>
        <time>2022-08-27T03:46:44.000Z</time>
      </trkpt>
      <trkpt lat="45.19689" lon="5.7119">
        <ele>210</ele>
        <time>2022-08-27T03:46:47.000Z</time>
      </trkpt>
      <trkpt lat="45.1969" lon="5.71189">
        <ele>210.19999694824</ele>
        <time>2022-08-27T03:46:48.000Z</time>
      </trkpt>
      <trkpt lat="45.19696" lon="5.71182">
        <ele>210</ele>
        <time>2022-08-27T03:46:52.000Z</time>
      </trkpt>
      <trkpt lat="45.19698" lon="5.7118">
        <ele>210</ele>
        <time>2022-08-27T03:46:53.000Z</time>
      </trkpt>
      <trkpt lat="45.19714" lon="5.71178">
        <ele>210</ele>
        <time>2022-08-27T03:47:00.000Z</time>
      </trkpt>
      <trkpt lat="45.19729" lon="5.71175">
        <ele>209.80000305176</ele>
        <time>2022-08-27T03:47:06.000Z</time>
      </trkpt>
      <trkpt lat="45.19739" lon="5.71172">
        <ele>209.80000305176</ele>
        <time>2022-08-27T03:47:12.000Z</time>
      </trkpt>
      <trkpt lat="45.19741" lon="5.71171">
        <ele>209.80000305176</ele>
        <time>2022-08-27T03:47:13.000Z</time>
      </trkpt>
      <trkpt lat="45.19754" lon="5.71164">
        <ele>209.39999389648</ele>
        <time>2022-08-27T03:47:21.000Z</time>
      </trkpt>
      <trkpt lat="45.19769" lon="5.71155">
        <ele>209.80000305176</ele>
        <time>2022-08-27T03:47:31.000Z</time>
      </trkpt>
      <trkpt lat="45.19793" lon="5.71143">
        <ele>210</ele>
        <time>2022-08-27T03:47:43.000Z</time>
      </trkpt>
      <trkpt lat="45.19814" lon="5.71137">
        <ele>209.80000305176</ele>
        <time>2022-08-27T03:47:53.000Z</time>
      </trkpt>
      <trkpt lat="45.19825" lon="5.71135">
        <ele>210</ele>
        <time>2022-08-27T03:47:58.000Z</time>
      </trkpt>
      <trkpt lat="45.19832" lon="5.71136">
        <ele>210</ele>
        <time>2022-08-27T03:48:02.000Z</time>
      </trkpt>
      <trkpt lat="45.19837" lon="5.71149">
        <ele>210</ele>
        <time>2022-08-27T03:48:07.000Z</time>
      </trkpt>
      <trkpt lat="45.1984" lon="5.71166">
        <ele>209.80000305176</ele>
        <time>2022-08-27T03:48:13.000Z</time>
      </trkpt>
      <trkpt lat="45.19843" lon="5.71175">
        <ele>210</ele>
        <time>2022-08-27T03:48:16.000Z</time>
      </trkpt>
      <trkpt lat="45.19851" lon="5.71191">
        <ele>210</ele>
        <time>2022-08-27T03:48:22.000Z</time>
      </trkpt>
      <trkpt lat="45.19859" lon="5.71209">
        <ele>210</ele>
        <time>2022-08-27T03:48:29.000Z</time>
      </trkpt>
      <trkpt lat="45.19867" lon="5.71235">
        <ele>210</ele>
        <time>2022-08-27T03:48:37.000Z</time>
      </trkpt>
      <trkpt lat="45.19868" lon="5.71238">
        <ele>210</ele>
        <time>2022-08-27T03:48:38.000Z</time>
      </trkpt>
      <trkpt lat="45.19872" lon="5.7126">
        <ele>210.39999389648</ele>
        <time>2022-08-27T03:48:44.000Z</time>
      </trkpt>
      <trkpt lat="45.19878" lon="5.71278">
        <ele>210.19999694824</ele>
        <time>2022-08-27T03:48:51.000Z</time>
      </trkpt>
      <trkpt lat="45.19882" lon="5.71283">
        <ele>210.19999694824</ele>
        <time>2022-08-27T03:48:54.000Z</time>
      </trkpt>
      <trkpt lat="45.19886" lon="5.71283">
        <ele>210.19999694824</ele>
        <time>2022-08-27T03:48:56.000Z</time>
      </trkpt>
      <trkpt lat="45.19904" lon="5.71281">
        <ele>210.80000305176</ele>
        <time>2022-08-27T03:49:04.000Z</time>
      </trkpt>
      <trkpt lat="45.1992" lon="5.71278">
        <ele>211.19999694824</ele>
        <time>2022-08-27T03:49:11.000Z</time>
      </trkpt>
      <trkpt lat="45.19934" lon="5.71269">
        <ele>211.39999389648</ele>
        <time>2022-08-27T03:49:19.000Z</time>
      </trkpt>
      <trkpt lat="45.19937" lon="5.71251">
        <ele>212</ele>
        <time>2022-08-27T03:49:26.000Z</time>
      </trkpt>
      <trkpt lat="45.19935" lon="5.7124">
        <ele>212.19999694824</ele>
        <time>2022-08-27T03:49:30.000Z</time>
      </trkpt>
      <trkpt lat="45.19933" lon="5.71234">
        <ele>212.39999389648</ele>
        <time>2022-08-27T03:49:32.000Z</time>
      </trkpt>
      <trkpt lat="45.19927" lon="5.71212">
        <ele>213</ele>
        <time>2022-08-27T03:49:39.000Z</time>
      </trkpt>
      <trkpt lat="45.19927" lon="5.71209">
        <ele>213.19999694824</ele>
        <time>2022-08-27T03:49:40.000Z</time>
      </trkpt>
      <trkpt lat="45.19926" lon="5.71205">
        <ele>213.19999694824</ele>
        <time>2022-08-27T03:49:42.000Z</time>
      </trkpt>
      <trkpt lat="45.1992" lon="5.71179">
        <ele>214.19999694824</ele>
        <time>2022-08-27T03:49:51.000Z</time>
      </trkpt>
      <trkpt lat="45.1992" lon="5.71173">
        <ele>214.39999389648</ele>
        <time>2022-08-27T03:49:53.000Z</time>
      </trkpt>
      <trkpt lat="45.19918" lon="5.7116">
        <ele>214.80000305176</ele>
        <time>2022-08-27T03:49:57.000Z</time>
      </trkpt>
      <trkpt lat="45.19913" lon="5.71145">
        <ele>215.19999694824</ele>
        <time>2022-08-27T03:50:03.000Z</time>
      </trkpt>
      <trkpt lat="45.19911" lon="5.71139">
        <ele>215.39999389648</ele>
        <time>2022-08-27T03:50:05.000Z</time>
      </trkpt>
      <trkpt lat="45.19908" lon="5.71125">
        <ele>216</ele>
        <time>2022-08-27T03:50:10.000Z</time>
      </trkpt>
      <trkpt lat="45.19903" lon="5.71109">
        <ele>216.39999389648</ele>
        <time>2022-08-27T03:50:16.000Z</time>
      </trkpt>
      <trkpt lat="45.19897" lon="5.71086">
        <ele>217</ele>
        <time>2022-08-27T03:50:24.000Z</time>
      </trkpt>
      <trkpt lat="45.19892" lon="5.71064">
        <ele>216.80000305176</ele>
        <time>2022-08-27T03:50:31.000Z</time>
      </trkpt>
      <trkpt lat="45.19887" lon="5.71042">
        <ele>216.60000610352</ele>
        <time>2022-08-27T03:50:38.000Z</time>
      </trkpt>
      <trkpt lat="45.19882" lon="5.71016">
        <ele>216.60000610352</ele>
        <time>2022-08-27T03:50:46.000Z</time>
      </trkpt>
      <trkpt lat="45.1988" lon="5.71003">
        <ele>216.39999389648</ele>
        <time>2022-08-27T03:50:50.000Z</time>
      </trkpt>
      <trkpt lat="45.19876" lon="5.70976">
        <ele>215.80000305176</ele>
        <time>2022-08-27T03:50:58.000Z</time>
      </trkpt>
      <trkpt lat="45.19874" lon="5.70962">
        <ele>215.39999389648</ele>
        <time>2022-08-27T03:51:02.000Z</time>
      </trkpt>
      <trkpt lat="45.19873" lon="5.70948">
        <ele>215</ele>
        <time>2022-08-27T03:51:06.000Z</time>
      </trkpt>
      <trkpt lat="45.19868" lon="5.70922">
        <ele>214.80000305176</ele>
        <time>2022-08-27T03:51:14.000Z</time>
      </trkpt>
      <trkpt lat="45.19855" lon="5.70905">
        <ele>214.60000610352</ele>
        <time>2022-08-27T03:51:22.000Z</time>
      </trkpt>
      <trkpt lat="45.19853" lon="5.70903">
        <ele>214.60000610352</ele>
        <time>2022-08-27T03:51:23.000Z</time>
      </trkpt>
      <trkpt lat="45.19839" lon="5.70898">
        <ele>214.80000305176</ele>
        <time>2022-08-27T03:51:30.000Z</time>
      </trkpt>
      <trkpt lat="45.19835" lon="5.70898">
        <ele>214.80000305176</ele>
        <time>2022-08-27T03:51:32.000Z</time>
      </trkpt>
      <trkpt lat="45.19829" lon="5.70898">
        <ele>215</ele>
        <time>2022-08-27T03:51:35.000Z</time>
      </trkpt>
      <trkpt lat="45.19811" lon="5.70901">
        <ele>215.60000610352</ele>
        <time>2022-08-27T03:51:43.000Z</time>
      </trkpt>
      <trkpt lat="45.19809" lon="5.70901">
        <ele>215.39999389648</ele>
        <time>2022-08-27T03:51:44.000Z</time>
      </trkpt>
      <trkpt lat="45.19794" lon="5.70911">
        <ele>215.39999389648</ele>
        <time>2022-08-27T03:51:52.000Z</time>
      </trkpt>
      <trkpt lat="45.19792" lon="5.70912">
        <ele>215.39999389648</ele>
        <time>2022-08-27T03:51:53.000Z</time>
      </trkpt>
      <trkpt lat="45.19783" lon="5.70919">
        <ele>215.39999389648</ele>
        <time>2022-08-27T03:51:59.000Z</time>
      </trkpt>
      <trkpt lat="45.19782" lon="5.70921">
        <ele>213.39999389648</ele>
        <time>2022-08-27T03:52:00.000Z</time>
      </trkpt>
      <trkpt lat="45.19781" lon="5.70922">
        <ele>213.39999389648</ele>
        <time>2022-08-27T03:52:02.000Z</time>
      </trkpt>
      <trkpt lat="45.19782" lon="5.70921">
        <ele>213.39999389648</ele>
        <time>2022-08-27T03:52:04.000Z</time>
      </trkpt>
      <trkpt lat="45.19781" lon="5.70921">
        <ele>213.19999694824</ele>
        <time>2022-08-27T03:52:07.000Z</time>
      </trkpt>
      <trkpt lat="45.19781" lon="5.70919">
        <ele>213.19999694824</ele>
        <time>2022-08-27T03:52:13.000Z</time>
      </trkpt>
      <trkpt lat="45.19781" lon="5.70918">
        <ele>213.19999694824</ele>
        <time>2022-08-27T03:52:22.000Z</time>
      </trkpt>
      <trkpt lat="45.1978" lon="5.70919">
        <ele>213.19999694824</ele>
        <time>2022-08-27T03:52:25.000Z</time>
      </trkpt>
      <trkpt lat="45.19771" lon="5.70934">
        <ele>213.19999694824</ele>
        <time>2022-08-27T03:52:35.000Z</time>
      </trkpt>
      <trkpt lat="45.19766" lon="5.70945">
        <ele>213.19999694824</ele>
        <time>2022-08-27T03:52:40.000Z</time>
      </trkpt>
      <trkpt lat="45.19765" lon="5.70947">
        <ele>213.19999694824</ele>
        <time>2022-08-27T03:52:41.000Z</time>
      </trkpt>
      <trkpt lat="45.19761" lon="5.70957">
        <ele>213.39999389648</ele>
        <time>2022-08-27T03:52:45.000Z</time>
      </trkpt>
      <trkpt lat="45.19759" lon="5.70968">
        <ele>213</ele>
        <time>2022-08-27T03:52:48.000Z</time>
      </trkpt>
      <trkpt lat="45.19761" lon="5.70992">
        <ele>213</ele>
        <time>2022-08-27T03:52:55.000Z</time>
      </trkpt>
      <trkpt lat="45.19774" lon="5.71011">
        <ele>213.60000610352</ele>
        <time>2022-08-27T03:53:02.000Z</time>
      </trkpt>
      <trkpt lat="45.19791" lon="5.71019">
        <ele>213.60000610352</ele>
        <time>2022-08-27T03:53:10.000Z</time>
      </trkpt>
      <trkpt lat="45.19808" lon="5.71014">
        <ele>213.39999389648</ele>
        <time>2022-08-27T03:53:18.000Z</time>
      </trkpt>
      <trkpt lat="45.19824" lon="5.71003">
        <ele>212.80000305176</ele>
        <time>2022-08-27T03:53:26.000Z</time>
      </trkpt>
      <trkpt lat="45.19841" lon="5.70987">
        <ele>213</ele>
        <time>2022-08-27T03:53:35.000Z</time>
      </trkpt>
      <trkpt lat="45.19854" lon="5.70978">
        <ele>213.19999694824</ele>
        <time>2022-08-27T03:53:42.000Z</time>
      </trkpt>
      <trkpt lat="45.19857" lon="5.70979">
        <ele>213.19999694824</ele>
        <time>2022-08-27T03:53:43.000Z</time>
      </trkpt>
      <trkpt lat="45.19862" lon="5.70985">
        <ele>213.19999694824</ele>
        <time>2022-08-27T03:53:46.000Z</time>
      </trkpt>
      <trkpt lat="45.19868" lon="5.7101">
        <ele>213.60000610352</ele>
        <time>2022-08-27T03:53:54.000Z</time>
      </trkpt>
      <trkpt lat="45.19868" lon="5.71013">
        <ele>213.60000610352</ele>
        <time>2022-08-27T03:53:55.000Z</time>
      </trkpt>
      <trkpt lat="45.19873" lon="5.71035">
        <ele>214.60000610352</ele>
        <time>2022-08-27T03:54:03.000Z</time>
      </trkpt>
      <trkpt lat="45.19878" lon="5.71053">
        <ele>215</ele>
        <time>2022-08-27T03:54:09.000Z</time>
      </trkpt>
      <trkpt lat="45.19884" lon="5.71077">
        <ele>215</ele>
        <time>2022-08-27T03:54:17.000Z</time>
      </trkpt>
      <trkpt lat="45.19889" lon="5.71102">
        <ele>215.19999694824</ele>
        <time>2022-08-27T03:54:25.000Z</time>
      </trkpt>
      <trkpt lat="45.1989" lon="5.71105">
        <ele>215.19999694824</ele>
        <time>2022-08-27T03:54:26.000Z</time>
      </trkpt>
      <trkpt lat="45.19895" lon="5.7113">
        <ele>214.39999389648</ele>
        <time>2022-08-27T03:54:34.000Z</time>
      </trkpt>
      <trkpt lat="45.19899" lon="5.71149">
        <ele>214</ele>
        <time>2022-08-27T03:54:40.000Z</time>
      </trkpt>
      <trkpt lat="45.19903" lon="5.71168">
        <ele>213.39999389648</ele>
        <time>2022-08-27T03:54:46.000Z</time>
      </trkpt>
      <trkpt lat="45.19904" lon="5.71174">
        <ele>213.19999694824</ele>
        <time>2022-08-27T03:54:48.000Z</time>
      </trkpt>
      <trkpt lat="45.19909" lon="5.71196">
        <ele>212.39999389648</ele>
        <time>2022-08-27T03:54:55.000Z</time>
      </trkpt>
      <trkpt lat="45.19913" lon="5.71214">
        <ele>212</ele>
        <time>2022-08-27T03:55:01.000Z</time>
      </trkpt>
      <trkpt lat="45.19914" lon="5.71217">
        <ele>211.80000305176</ele>
        <time>2022-08-27T03:55:02.000Z</time>
      </trkpt>
      <trkpt lat="45.19916" lon="5.71233">
        <ele>211.39999389648</ele>
        <time>2022-08-27T03:55:07.000Z</time>
      </trkpt>
      <trkpt lat="45.19917" lon="5.71237">
        <ele>211.39999389648</ele>
        <time>2022-08-27T03:55:08.000Z</time>
      </trkpt>
      <trkpt lat="45.19921" lon="5.71256">
        <ele>210.60000610352</ele>
        <time>2022-08-27T03:55:14.000Z</time>
      </trkpt>
      <trkpt lat="45.19923" lon="5.71266">
        <ele>210.39999389648</ele>
        <time>2022-08-27T03:55:17.000Z</time>
      </trkpt>
      <trkpt lat="45.19925" lon="5.71272">
        <ele>209</ele>
        <time>2022-08-27T03:55:19.000Z</time>
      </trkpt>
      <trkpt lat="45.19927" lon="5.71285">
        <ele>208</ele>
        <time>2022-08-27T03:55:23.000Z</time>
      </trkpt>
      <trkpt lat="45.19933" lon="5.71313">
        <ele>207.60000610352</ele>
        <time>2022-08-27T03:55:31.000Z</time>
      </trkpt>
      <trkpt lat="45.19938" lon="5.71337">
        <ele>207.19999694824</ele>
        <time>2022-08-27T03:55:38.000Z</time>
      </trkpt>
      <trkpt lat="45.1994" lon="5.71344">
        <ele>206.80000305176</ele>
        <time>2022-08-27T03:55:40.000Z</time>
      </trkpt>
      <trkpt lat="45.19946" lon="5.71369">
        <ele>206.19999694824</ele>
        <time>2022-08-27T03:55:47.000Z</time>
      </trkpt>
      <trkpt lat="45.19948" lon="5.71377">
        <ele>206</ele>
        <time>2022-08-27T03:55:49.000Z</time>
      </trkpt>
      <trkpt lat="45.19947" lon="5.71396">
        <ele>205.80000305176</ele>
        <time>2022-08-27T03:55:55.000Z</time>
      </trkpt>
      <trkpt lat="45.19938" lon="5.71412">
        <ele>205.39999389648</ele>
        <time>2022-08-27T03:56:01.000Z</time>
      </trkpt>
      <trkpt lat="45.19936" lon="5.71412">
        <ele>205.39999389648</ele>
        <time>2022-08-27T03:56:02.000Z</time>
      </trkpt>
      <trkpt lat="45.19928" lon="5.71416">
        <ele>205.39999389648</ele>
        <time>2022-08-27T03:56:06.000Z</time>
      </trkpt>
      <trkpt lat="45.19914" lon="5.71419">
        <ele>205.60000610352</ele>
        <time>2022-08-27T03:56:13.000Z</time>
      </trkpt>
      <trkpt lat="45.1991" lon="5.71422">
        <ele>205.39999389648</ele>
        <time>2022-08-27T03:56:16.000Z</time>
      </trkpt>
      <trkpt lat="45.19909" lon="5.7142">
        <ele>205.39999389648</ele>
        <time>2022-08-27T03:56:18.000Z</time>
      </trkpt>
      <trkpt lat="45.19908" lon="5.7142">
        <ele>205.39999389648</ele>
        <time>2022-08-27T03:56:19.000Z</time>
      </trkpt>
      <trkpt lat="45.19905" lon="5.71418">
        <ele>205.60000610352</ele>
        <time>2022-08-27T03:56:21.000Z</time>
      </trkpt>
      <trkpt lat="45.19902" lon="5.71418">
        <ele>205.80000305176</ele>
        <time>2022-08-27T03:56:23.000Z</time>
      </trkpt>
      <trkpt lat="45.19878" lon="5.71424">
        <ele>205.60000610352</ele>
        <time>2022-08-27T03:56:31.000Z</time>
      </trkpt>
      <trkpt lat="45.19866" lon="5.71431">
        <ele>205.60000610352</ele>
        <time>2022-08-27T03:56:39.000Z</time>
      </trkpt>
      <trkpt lat="45.19853" lon="5.71435">
        <ele>206</ele>
        <time>2022-08-27T03:56:45.000Z</time>
      </trkpt>
      <trkpt lat="45.19836" lon="5.71437">
        <ele>206.19999694824</ele>
        <time>2022-08-27T03:56:54.000Z</time>
      </trkpt>
      <trkpt lat="45.1982" lon="5.71439">
        <ele>205.80000305176</ele>
        <time>2022-08-27T03:57:01.000Z</time>
      </trkpt>
      <trkpt lat="45.19801" lon="5.71443">
        <ele>206</ele>
        <time>2022-08-27T03:57:09.000Z</time>
      </trkpt>
      <trkpt lat="45.19779" lon="5.71446">
        <ele>206</ele>
        <time>2022-08-27T03:57:18.000Z</time>
      </trkpt>
      <trkpt lat="45.19777" lon="5.71446">
        <ele>206</ele>
        <time>2022-08-27T03:57:19.000Z</time>
      </trkpt>
      <trkpt lat="45.1977" lon="5.71446">
        <ele>206.19999694824</ele>
        <time>2022-08-27T03:57:23.000Z</time>
      </trkpt>
      <trkpt lat="45.19763" lon="5.71445">
        <ele>206</ele>
        <time>2022-08-27T03:57:26.000Z</time>
      </trkpt>
      <trkpt lat="45.19746" lon="5.71447">
        <ele>206.39999389648</ele>
        <time>2022-08-27T03:57:34.000Z</time>
      </trkpt>
      <trkpt lat="45.19729" lon="5.71446">
        <ele>206</ele>
        <time>2022-08-27T03:57:42.000Z</time>
      </trkpt>
      <trkpt lat="45.19712" lon="5.71446">
        <ele>206.19999694824</ele>
        <time>2022-08-27T03:57:50.000Z</time>
      </trkpt>
      <trkpt lat="45.19696" lon="5.71447">
        <ele>206.19999694824</ele>
        <time>2022-08-27T03:57:57.000Z</time>
      </trkpt>
      <trkpt lat="45.19677" lon="5.71446">
        <ele>206.19999694824</ele>
        <time>2022-08-27T03:58:05.000Z</time>
      </trkpt>
      <trkpt lat="45.19675" lon="5.71447">
        <ele>206.19999694824</ele>
        <time>2022-08-27T03:58:06.000Z</time>
      </trkpt>
      <trkpt lat="45.19662" lon="5.71446">
        <ele>206.19999694824</ele>
        <time>2022-08-27T03:58:12.000Z</time>
      </trkpt>
      <trkpt lat="45.19646" lon="5.71445">
        <ele>206.19999694824</ele>
        <time>2022-08-27T03:58:20.000Z</time>
      </trkpt>
      <trkpt lat="45.19641" lon="5.71445">
        <ele>206.19999694824</ele>
        <time>2022-08-27T03:58:22.000Z</time>
      </trkpt>
      <trkpt lat="45.19623" lon="5.71444">
        <ele>206.39999389648</ele>
        <time>2022-08-27T03:58:30.000Z</time>
      </trkpt>
      <trkpt lat="45.19608" lon="5.71442">
        <ele>206.19999694824</ele>
        <time>2022-08-27T03:58:37.000Z</time>
      </trkpt>
      <trkpt lat="45.19591" lon="5.71442">
        <ele>206.39999389648</ele>
        <time>2022-08-27T03:58:44.000Z</time>
      </trkpt>
      <trkpt lat="45.1958" lon="5.71443">
        <ele>206.60000610352</ele>
        <time>2022-08-27T03:58:47.000Z</time>
      </trkpt>
      <trkpt lat="45.19576" lon="5.71443">
        <ele>206.80000305176</ele>
        <time>2022-08-27T03:58:49.000Z</time>
      </trkpt>
      <trkpt lat="45.19572" lon="5.71443">
        <ele>206.39999389648</ele>
        <time>2022-08-27T03:58:53.000Z</time>
      </trkpt>
      <trkpt lat="45.19573" lon="5.71443">
        <ele>206.39999389648</ele>
        <time>2022-08-27T03:58:54.000Z</time>
      </trkpt>
      <trkpt lat="45.19573" lon="5.71445">
        <ele>206.39999389648</ele>
        <time>2022-08-27T03:58:59.000Z</time>
      </trkpt>
      <trkpt lat="45.19574" lon="5.71445">
        <ele>206.39999389648</ele>
        <time>2022-08-27T03:59:07.000Z</time>
      </trkpt>
      <trkpt lat="45.19575" lon="5.71447">
        <ele>206.39999389648</ele>
        <time>2022-08-27T03:59:18.000Z</time>
      </trkpt>
      <trkpt lat="45.19575" lon="5.71449">
        <ele>206.39999389648</ele>
        <time>2022-08-27T03:59:29.000Z</time>
      </trkpt>
      <trkpt lat="45.19566" lon="5.71451">
        <ele>206.60000610352</ele>
        <time>2022-08-27T03:59:43.000Z</time>
      </trkpt>
      <trkpt lat="45.19563" lon="5.71451">
        <ele>206.60000610352</ele>
        <time>2022-08-27T03:59:45.000Z</time>
      </trkpt>
      <trkpt lat="45.1955" lon="5.71454">
        <ele>206.60000610352</ele>
        <time>2022-08-27T03:59:56.000Z</time>
      </trkpt>
      <trkpt lat="45.19535" lon="5.71459">
        <ele>206.60000610352</ele>
        <time>2022-08-27T04:00:05.000Z</time>
      </trkpt>
      <trkpt lat="45.1952" lon="5.71465">
        <ele>206.80000305176</ele>
        <time>2022-08-27T04:00:13.000Z</time>
      </trkpt>
      <trkpt lat="45.19503" lon="5.71472">
        <ele>206.80000305176</ele>
        <time>2022-08-27T04:00:21.000Z</time>
      </trkpt>
      <trkpt lat="45.19485" lon="5.71483">
        <ele>207</ele>
        <time>2022-08-27T04:00:30.000Z</time>
      </trkpt>
      <trkpt lat="45.19481" lon="5.71486">
        <ele>207</ele>
        <time>2022-08-27T04:00:32.000Z</time>
      </trkpt>
      <trkpt lat="45.1947" lon="5.71496">
        <ele>207</ele>
        <time>2022-08-27T04:00:38.000Z</time>
      </trkpt>
      <trkpt lat="45.19458" lon="5.71505">
        <ele>207.19999694824</ele>
        <time>2022-08-27T04:00:45.000Z</time>
      </trkpt>
      <trkpt lat="45.19448" lon="5.71512">
        <ele>208.60000610352</ele>
        <time>2022-08-27T04:00:50.000Z</time>
      </trkpt>
      <trkpt lat="45.19446" lon="5.71513">
        <ele>209.80000305176</ele>
        <time>2022-08-27T04:00:51.000Z</time>
      </trkpt>
      <trkpt lat="45.19443" lon="5.71515">
        <ele>210.60000610352</ele>
        <time>2022-08-27T04:00:52.000Z</time>
      </trkpt>
      <trkpt lat="45.19441" lon="5.71517">
        <ele>211.19999694824</ele>
        <time>2022-08-27T04:00:53.000Z</time>
      </trkpt>
      <trkpt lat="45.19429" lon="5.71527">
        <ele>211.80000305176</ele>
        <time>2022-08-27T04:00:59.000Z</time>
      </trkpt>
      <trkpt lat="45.19416" lon="5.7154">
        <ele>211.80000305176</ele>
        <time>2022-08-27T04:01:07.000Z</time>
      </trkpt>
      <trkpt lat="45.19406" lon="5.71553">
        <ele>211.60000610352</ele>
        <time>2022-08-27T04:01:14.000Z</time>
      </trkpt>
      <trkpt lat="45.19396" lon="5.71567">
        <ele>211.60000610352</ele>
        <time>2022-08-27T04:01:21.000Z</time>
      </trkpt>
      <trkpt lat="45.19383" lon="5.71583">
        <ele>211.60000610352</ele>
        <time>2022-08-27T04:01:29.000Z</time>
      </trkpt>
      <trkpt lat="45.19374" lon="5.71596">
        <ele>211.80000305176</ele>
        <time>2022-08-27T04:01:35.000Z</time>
      </trkpt>
      <trkpt lat="45.19371" lon="5.716">
        <ele>211.80000305176</ele>
        <time>2022-08-27T04:01:37.000Z</time>
      </trkpt>
      <trkpt lat="45.19361" lon="5.71617">
        <ele>211.60000610352</ele>
        <time>2022-08-27T04:01:45.000Z</time>
      </trkpt>
      <trkpt lat="45.19349" lon="5.71637">
        <ele>212</ele>
        <time>2022-08-27T04:01:53.000Z</time>
      </trkpt>
      <trkpt lat="45.19335" lon="5.71658">
        <ele>212</ele>
        <time>2022-08-27T04:02:02.000Z</time>
      </trkpt>
      <trkpt lat="45.19327" lon="5.71672">
        <ele>212.19999694824</ele>
        <time>2022-08-27T04:02:08.000Z</time>
      </trkpt>
      <trkpt lat="45.19318" lon="5.71691">
        <ele>212.19999694824</ele>
        <time>2022-08-27T04:02:15.000Z</time>
      </trkpt>
      <trkpt lat="45.19316" lon="5.71696">
        <ele>212.39999389648</ele>
        <time>2022-08-27T04:02:17.000Z</time>
      </trkpt>
      <trkpt lat="45.19308" lon="5.71716">
        <ele>212</ele>
        <time>2022-08-27T04:02:24.000Z</time>
      </trkpt>
      <trkpt lat="45.19298" lon="5.71738">
        <ele>212.19999694824</ele>
        <time>2022-08-27T04:02:32.000Z</time>
      </trkpt>
      <trkpt lat="45.1929" lon="5.71761">
        <ele>212.19999694824</ele>
        <time>2022-08-27T04:02:41.000Z</time>
      </trkpt>
      <trkpt lat="45.19289" lon="5.71763">
        <ele>212.19999694824</ele>
        <time>2022-08-27T04:02:42.000Z</time>
      </trkpt>
      <trkpt lat="45.19283" lon="5.71782">
        <ele>212.19999694824</ele>
        <time>2022-08-27T04:02:49.000Z</time>
      </trkpt>
      <trkpt lat="45.19276" lon="5.71805">
        <ele>212.39999389648</ele>
        <time>2022-08-27T04:02:57.000Z</time>
      </trkpt>
      <trkpt lat="45.19272" lon="5.71829">
        <ele>212.39999389648</ele>
        <time>2022-08-27T04:03:04.000Z</time>
      </trkpt>
      <trkpt lat="45.19268" lon="5.71844">
        <ele>212.39999389648</ele>
        <time>2022-08-27T04:03:10.000Z</time>
      </trkpt>
      <trkpt lat="45.19263" lon="5.71862">
        <ele>212.60000610352</ele>
        <time>2022-08-27T04:03:16.000Z</time>
      </trkpt>
      <trkpt lat="45.19258" lon="5.71884">
        <ele>212.60000610352</ele>
        <time>2022-08-27T04:03:23.000Z</time>
      </trkpt>
      <trkpt lat="45.19249" lon="5.71909">
        <ele>212.80000305176</ele>
        <time>2022-08-27T04:03:32.000Z</time>
      </trkpt>
      <trkpt lat="45.19245" lon="5.71935">
        <ele>213.19999694824</ele>
        <time>2022-08-27T04:03:40.000Z</time>
      </trkpt>
      <trkpt lat="45.19244" lon="5.71948">
        <ele>213.39999389648</ele>
        <time>2022-08-27T04:03:44.000Z</time>
      </trkpt>
      <trkpt lat="45.19242" lon="5.71962">
        <ele>213.60000610352</ele>
        <time>2022-08-27T04:03:48.000Z</time>
      </trkpt>
      <trkpt lat="45.19238" lon="5.71987">
        <ele>214</ele>
        <time>2022-08-27T04:03:56.000Z</time>
      </trkpt>
      <trkpt lat="45.19237" lon="5.71999">
        <ele>214.39999389648</ele>
        <time>2022-08-27T04:04:00.000Z</time>
      </trkpt>
      <trkpt lat="45.19237" lon="5.72007">
        <ele>214.60000610352</ele>
        <time>2022-08-27T04:04:03.000Z</time>
      </trkpt>
      <trkpt lat="45.19239" lon="5.72021">
        <ele>215</ele>
        <time>2022-08-27T04:04:10.000Z</time>
      </trkpt>
      <trkpt lat="45.19239" lon="5.72048">
        <ele>215</ele>
        <time>2022-08-27T04:04:20.000Z</time>
      </trkpt>
      <trkpt lat="45.19238" lon="5.72069">
        <ele>214.39999389648</ele>
        <time>2022-08-27T04:04:28.000Z</time>
      </trkpt>
      <trkpt lat="45.19241" lon="5.72084">
        <ele>214.60000610352</ele>
        <time>2022-08-27T04:04:34.000Z</time>
      </trkpt>
      <trkpt lat="45.19241" lon="5.72087">
        <ele>214.60000610352</ele>
        <time>2022-08-27T04:04:36.000Z</time>
      </trkpt>
      <trkpt lat="45.19242" lon="5.72088">
        <ele>214.60000610352</ele>
        <time>2022-08-27T04:04:39.000Z</time>
      </trkpt>
      <trkpt lat="45.19243" lon="5.72089">
        <ele>214.60000610352</ele>
        <time>2022-08-27T04:04:40.000Z</time>
      </trkpt>
      <trkpt lat="45.19244" lon="5.72089">
        <ele>214.39999389648</ele>
        <time>2022-08-27T04:04:45.000Z</time>
      </trkpt>
      <trkpt lat="45.19243" lon="5.72091">
        <ele>214.19999694824</ele>
        <time>2022-08-27T04:04:53.000Z</time>
      </trkpt>
      <trkpt lat="45.19242" lon="5.72092">
        <ele>214.19999694824</ele>
        <time>2022-08-27T04:05:03.000Z</time>
      </trkpt>
      <trkpt lat="45.19242" lon="5.72091">
        <ele>214.19999694824</ele>
        <time>2022-08-27T04:05:14.000Z</time>
      </trkpt>
      <trkpt lat="45.19244" lon="5.7209">
        <ele>214.19999694824</ele>
        <time>2022-08-27T04:05:27.000Z</time>
      </trkpt>
      <trkpt lat="45.19241" lon="5.72089">
        <ele>214.39999389648</ele>
        <time>2022-08-27T04:05:42.000Z</time>
      </trkpt>
      <trkpt lat="45.1924" lon="5.72104">
        <ele>214.39999389648</ele>
        <time>2022-08-27T04:05:50.000Z</time>
      </trkpt>
      <trkpt lat="45.19241" lon="5.72111">
        <ele>214.19999694824</ele>
        <time>2022-08-27T04:05:54.000Z</time>
      </trkpt>
      <trkpt lat="45.19243" lon="5.72124">
        <ele>214.19999694824</ele>
        <time>2022-08-27T04:06:00.000Z</time>
      </trkpt>
      <trkpt lat="45.19247" lon="5.72148">
        <ele>214</ele>
        <time>2022-08-27T04:06:08.000Z</time>
      </trkpt>
      <trkpt lat="45.19249" lon="5.72173">
        <ele>214</ele>
        <time>2022-08-27T04:06:16.000Z</time>
      </trkpt>
      <trkpt lat="45.19251" lon="5.72198">
        <ele>213.60000610352</ele>
        <time>2022-08-27T04:06:25.000Z</time>
      </trkpt>
      <trkpt lat="45.19252" lon="5.72217">
        <ele>213.60000610352</ele>
        <time>2022-08-27T04:06:32.000Z</time>
      </trkpt>
      <trkpt lat="45.19256" lon="5.72241">
        <ele>213.39999389648</ele>
        <time>2022-08-27T04:06:41.000Z</time>
      </trkpt>
      <trkpt lat="45.19258" lon="5.72265">
        <ele>213.60000610352</ele>
        <time>2022-08-27T04:06:49.000Z</time>
      </trkpt>
      <trkpt lat="45.19261" lon="5.72287">
        <ele>213.60000610352</ele>
        <time>2022-08-27T04:06:56.000Z</time>
      </trkpt>
      <trkpt lat="45.19265" lon="5.7231">
        <ele>213.60000610352</ele>
        <time>2022-08-27T04:07:04.000Z</time>
      </trkpt>
      <trkpt lat="45.19268" lon="5.72332">
        <ele>214</ele>
        <time>2022-08-27T04:07:12.000Z</time>
      </trkpt>
      <trkpt lat="45.19271" lon="5.72354">
        <ele>214.19999694824</ele>
        <time>2022-08-27T04:07:20.000Z</time>
      </trkpt>
      <trkpt lat="45.19272" lon="5.72376">
        <ele>214.60000610352</ele>
        <time>2022-08-27T04:07:28.000Z</time>
      </trkpt>
      <trkpt lat="45.19274" lon="5.72405">
        <ele>215.39999389648</ele>
        <time>2022-08-27T04:07:38.000Z</time>
      </trkpt>
      <trkpt lat="45.19274" lon="5.72408">
        <ele>215.39999389648</ele>
        <time>2022-08-27T04:07:39.000Z</time>
      </trkpt>
      <trkpt lat="45.19278" lon="5.72428">
        <ele>215.60000610352</ele>
        <time>2022-08-27T04:07:47.000Z</time>
      </trkpt>
      <trkpt lat="45.19282" lon="5.72454">
        <ele>215.39999389648</ele>
        <time>2022-08-27T04:07:55.000Z</time>
      </trkpt>
      <trkpt lat="45.19285" lon="5.72474">
        <ele>214.60000610352</ele>
        <time>2022-08-27T04:08:02.000Z</time>
      </trkpt>
      <trkpt lat="45.19286" lon="5.72481">
        <ele>214.39999389648</ele>
        <time>2022-08-27T04:08:04.000Z</time>
      </trkpt>
      <trkpt lat="45.1929" lon="5.72501">
        <ele>214.19999694824</ele>
        <time>2022-08-27T04:08:10.000Z</time>
      </trkpt>
      <trkpt lat="45.19295" lon="5.7252">
        <ele>213.80000305176</ele>
        <time>2022-08-27T04:08:16.000Z</time>
      </trkpt>
      <trkpt lat="45.19299" lon="5.72534">
        <ele>213.39999389648</ele>
        <time>2022-08-27T04:08:21.000Z</time>
      </trkpt>
      <trkpt lat="45.19302" lon="5.72546">
        <ele>213.19999694824</ele>
        <time>2022-08-27T04:08:25.000Z</time>
      </trkpt>
      <trkpt lat="45.19307" lon="5.72571">
        <ele>213.19999694824</ele>
        <time>2022-08-27T04:08:33.000Z</time>
      </trkpt>
      <trkpt lat="45.19307" lon="5.72574">
        <ele>213.19999694824</ele>
        <time>2022-08-27T04:08:34.000Z</time>
      </trkpt>
      <trkpt lat="45.19314" lon="5.72596">
        <ele>213.39999389648</ele>
        <time>2022-08-27T04:08:42.000Z</time>
      </trkpt>
      <trkpt lat="45.19318" lon="5.7262">
        <ele>213.39999389648</ele>
        <time>2022-08-27T04:08:49.000Z</time>
      </trkpt>
      <trkpt lat="45.19322" lon="5.72639">
        <ele>213.39999389648</ele>
        <time>2022-08-27T04:08:55.000Z</time>
      </trkpt>
      <trkpt lat="45.19326" lon="5.72665">
        <ele>213.60000610352</ele>
        <time>2022-08-27T04:09:03.000Z</time>
      </trkpt>
      <trkpt lat="45.1933" lon="5.72683">
        <ele>213.60000610352</ele>
        <time>2022-08-27T04:09:09.000Z</time>
      </trkpt>
      <trkpt lat="45.19333" lon="5.72698">
        <ele>213.80000305176</ele>
        <time>2022-08-27T04:09:14.000Z</time>
      </trkpt>
      <trkpt lat="45.19334" lon="5.72701">
        <ele>213.80000305176</ele>
        <time>2022-08-27T04:09:15.000Z</time>
      </trkpt>
      <trkpt lat="45.19338" lon="5.7272">
        <ele>213.39999389648</ele>
        <time>2022-08-27T04:09:21.000Z</time>
      </trkpt>
      <trkpt lat="45.19339" lon="5.72723">
        <ele>213.39999389648</ele>
        <time>2022-08-27T04:09:22.000Z</time>
      </trkpt>
      <trkpt lat="45.19341" lon="5.72735">
        <ele>213.39999389648</ele>
        <time>2022-08-27T04:09:26.000Z</time>
      </trkpt>
      <trkpt lat="45.19347" lon="5.72757">
        <ele>213.60000610352</ele>
        <time>2022-08-27T04:09:33.000Z</time>
      </trkpt>
      <trkpt lat="45.19349" lon="5.72764">
        <ele>214</ele>
        <time>2022-08-27T04:09:35.000Z</time>
      </trkpt>
      <trkpt lat="45.1935" lon="5.7277">
        <ele>213.80000305176</ele>
        <time>2022-08-27T04:09:37.000Z</time>
      </trkpt>
      <trkpt lat="45.19351" lon="5.72773">
        <ele>213.80000305176</ele>
        <time>2022-08-27T04:09:38.000Z</time>
      </trkpt>
      <trkpt lat="45.19357" lon="5.72797">
        <ele>213.80000305176</ele>
        <time>2022-08-27T04:09:46.000Z</time>
      </trkpt>
      <trkpt lat="45.19358" lon="5.72801">
        <ele>213.80000305176</ele>
        <time>2022-08-27T04:09:47.000Z</time>
      </trkpt>
      <trkpt lat="45.19365" lon="5.72825">
        <ele>213.80000305176</ele>
        <time>2022-08-27T04:09:55.000Z</time>
      </trkpt>
      <trkpt lat="45.19366" lon="5.72828">
        <ele>213.80000305176</ele>
        <time>2022-08-27T04:09:56.000Z</time>
      </trkpt>
      <trkpt lat="45.19371" lon="5.72845">
        <ele>213.80000305176</ele>
        <time>2022-08-27T04:10:02.000Z</time>
      </trkpt>
      <trkpt lat="45.19374" lon="5.72864">
        <ele>213.80000305176</ele>
        <time>2022-08-27T04:10:08.000Z</time>
      </trkpt>
      <trkpt lat="45.1938" lon="5.72884">
        <ele>214</ele>
        <time>2022-08-27T04:10:14.000Z</time>
      </trkpt>
      <trkpt lat="45.19384" lon="5.72896">
        <ele>214</ele>
        <time>2022-08-27T04:10:18.000Z</time>
      </trkpt>
      <trkpt lat="45.19385" lon="5.72899">
        <ele>214.19999694824</ele>
        <time>2022-08-27T04:10:19.000Z</time>
      </trkpt>
      <trkpt lat="45.19394" lon="5.72918">
        <ele>214.19999694824</ele>
        <time>2022-08-27T04:10:26.000Z</time>
      </trkpt>
      <trkpt lat="45.19401" lon="5.72932">
        <ele>214.39999389648</ele>
        <time>2022-08-27T04:10:31.000Z</time>
      </trkpt>
      <trkpt lat="45.19403" lon="5.72937">
        <ele>214.60000610352</ele>
        <time>2022-08-27T04:10:33.000Z</time>
      </trkpt>
      <trkpt lat="45.1941" lon="5.72947">
        <ele>215.19999694824</ele>
        <time>2022-08-27T04:10:39.000Z</time>
      </trkpt>
      <trkpt lat="45.19423" lon="5.72938">
        <ele>215.39999389648</ele>
        <time>2022-08-27T04:10:45.000Z</time>
      </trkpt>
      <trkpt lat="45.19426" lon="5.72935">
        <ele>215.39999389648</ele>
        <time>2022-08-27T04:10:46.000Z</time>
      </trkpt>
      <trkpt lat="45.19441" lon="5.72918">
        <ele>216.19999694824</ele>
        <time>2022-08-27T04:10:54.000Z</time>
      </trkpt>
      <trkpt lat="45.19453" lon="5.72904">
        <ele>215.60000610352</ele>
        <time>2022-08-27T04:11:00.000Z</time>
      </trkpt>
      <trkpt lat="45.19464" lon="5.72891">
        <ele>215.80000305176</ele>
        <time>2022-08-27T04:11:06.000Z</time>
      </trkpt>
      <trkpt lat="45.19474" lon="5.72886">
        <ele>215.19999694824</ele>
        <time>2022-08-27T04:11:12.000Z</time>
      </trkpt>
      <trkpt lat="45.19483" lon="5.72897">
        <ele>215</ele>
        <time>2022-08-27T04:11:17.000Z</time>
      </trkpt>
      <trkpt lat="45.19492" lon="5.72912">
        <ele>215.19999694824</ele>
        <time>2022-08-27T04:11:24.000Z</time>
      </trkpt>
      <trkpt lat="45.19505" lon="5.72932">
        <ele>216</ele>
        <time>2022-08-27T04:11:32.000Z</time>
      </trkpt>
      <trkpt lat="45.19509" lon="5.72939">
        <ele>215.80000305176</ele>
        <time>2022-08-27T04:11:35.000Z</time>
      </trkpt>
      <trkpt lat="45.19522" lon="5.72959">
        <ele>216.19999694824</ele>
        <time>2022-08-27T04:11:44.000Z</time>
      </trkpt>
      <trkpt lat="45.19524" lon="5.72963">
        <ele>216.39999389648</ele>
        <time>2022-08-27T04:11:46.000Z</time>
      </trkpt>
      <trkpt lat="45.19537" lon="5.72983">
        <ele>216.60000610352</ele>
        <time>2022-08-27T04:11:55.000Z</time>
      </trkpt>
      <trkpt lat="45.19549" lon="5.73004">
        <ele>216.60000610352</ele>
        <time>2022-08-27T04:12:04.000Z</time>
      </trkpt>
      <trkpt lat="45.19562" lon="5.73025">
        <ele>216.60000610352</ele>
        <time>2022-08-27T04:12:13.000Z</time>
      </trkpt>
      <trkpt lat="45.19568" lon="5.73033">
        <ele>216.39999389648</ele>
        <time>2022-08-27T04:12:17.000Z</time>
      </trkpt>
      <trkpt lat="45.19581" lon="5.73054">
        <ele>216.19999694824</ele>
        <time>2022-08-27T04:12:26.000Z</time>
      </trkpt>
      <trkpt lat="45.19593" lon="5.73075">
        <ele>215.80000305176</ele>
        <time>2022-08-27T04:12:34.000Z</time>
      </trkpt>
      <trkpt lat="45.19594" lon="5.73078">
        <ele>215.80000305176</ele>
        <time>2022-08-27T04:12:35.000Z</time>
      </trkpt>
      <trkpt lat="45.19607" lon="5.73097">
        <ele>216</ele>
        <time>2022-08-27T04:12:43.000Z</time>
      </trkpt>
      <trkpt lat="45.1961" lon="5.73102">
        <ele>216</ele>
        <time>2022-08-27T04:12:45.000Z</time>
      </trkpt>
      <trkpt lat="45.19624" lon="5.73121">
        <ele>216</ele>
        <time>2022-08-27T04:12:53.000Z</time>
      </trkpt>
      <trkpt lat="45.19626" lon="5.73123">
        <ele>216</ele>
        <time>2022-08-27T04:12:54.000Z</time>
      </trkpt>
      <trkpt lat="45.19633" lon="5.73135">
        <ele>215.39999389648</ele>
        <time>2022-08-27T04:12:58.000Z</time>
      </trkpt>
      <trkpt lat="45.19644" lon="5.73151">
        <ele>215.60000610352</ele>
        <time>2022-08-27T04:13:04.000Z</time>
      </trkpt>
      <trkpt lat="45.19657" lon="5.73165">
        <ele>215</ele>
        <time>2022-08-27T04:13:11.000Z</time>
      </trkpt>
      <trkpt lat="45.19668" lon="5.73174">
        <ele>215</ele>
        <time>2022-08-27T04:13:16.000Z</time>
      </trkpt>
      <trkpt lat="45.19681" lon="5.73187">
        <ele>215</ele>
        <time>2022-08-27T04:13:23.000Z</time>
      </trkpt>
      <trkpt lat="45.19697" lon="5.73202">
        <ele>214.80000305176</ele>
        <time>2022-08-27T04:13:32.000Z</time>
      </trkpt>
      <trkpt lat="45.19713" lon="5.73218">
        <ele>214.80000305176</ele>
        <time>2022-08-27T04:13:40.000Z</time>
      </trkpt>
      <trkpt lat="45.19719" lon="5.73221">
        <ele>214.80000305176</ele>
        <time>2022-08-27T04:13:42.000Z</time>
      </trkpt>
      <trkpt lat="45.19736" lon="5.73232">
        <ele>214.80000305176</ele>
        <time>2022-08-27T04:13:49.000Z</time>
      </trkpt>
      <trkpt lat="45.19742" lon="5.73236">
        <ele>214.80000305176</ele>
        <time>2022-08-27T04:13:52.000Z</time>
      </trkpt>
      <trkpt lat="45.19752" lon="5.73247">
        <ele>215.19999694824</ele>
        <time>2022-08-27T04:13:58.000Z</time>
      </trkpt>
      <trkpt lat="45.1976" lon="5.73254">
        <ele>215.60000610352</ele>
        <time>2022-08-27T04:14:03.000Z</time>
      </trkpt>
      <trkpt lat="45.1976" lon="5.73259">
        <ele>215.60000610352</ele>
        <time>2022-08-27T04:14:05.000Z</time>
      </trkpt>
      <trkpt lat="45.19756" lon="5.7328">
        <ele>215.80000305176</ele>
        <time>2022-08-27T04:14:13.000Z</time>
      </trkpt>
      <trkpt lat="45.19753" lon="5.7329">
        <ele>216</ele>
        <time>2022-08-27T04:14:17.000Z</time>
      </trkpt>
      <trkpt lat="45.19751" lon="5.73299">
        <ele>216.19999694824</ele>
        <time>2022-08-27T04:14:20.000Z</time>
      </trkpt>
      <trkpt lat="45.19743" lon="5.73324">
        <ele>216.19999694824</ele>
        <time>2022-08-27T04:14:29.000Z</time>
      </trkpt>
      <trkpt lat="45.19739" lon="5.73344">
        <ele>216</ele>
        <time>2022-08-27T04:14:35.000Z</time>
      </trkpt>
      <trkpt lat="45.19735" lon="5.73361">
        <ele>215.80000305176</ele>
        <time>2022-08-27T04:14:41.000Z</time>
      </trkpt>
      <trkpt lat="45.19737" lon="5.73363">
        <ele>215.39999389648</ele>
        <time>2022-08-27T04:14:43.000Z</time>
      </trkpt>
      <trkpt lat="45.19752" lon="5.73369">
        <ele>214.39999389648</ele>
        <time>2022-08-27T04:14:51.000Z</time>
      </trkpt>
      <trkpt lat="45.19769" lon="5.73372">
        <ele>213.60000610352</ele>
        <time>2022-08-27T04:14:59.000Z</time>
      </trkpt>
      <trkpt lat="45.19775" lon="5.73374">
        <ele>213.39999389648</ele>
        <time>2022-08-27T04:15:02.000Z</time>
      </trkpt>
      <trkpt lat="45.19792" lon="5.73377">
        <ele>213</ele>
        <time>2022-08-27T04:15:10.000Z</time>
      </trkpt>
      <trkpt lat="45.19809" lon="5.73381">
        <ele>212.80000305176</ele>
        <time>2022-08-27T04:15:17.000Z</time>
      </trkpt>
      <trkpt lat="45.19826" lon="5.73385">
        <ele>213</ele>
        <time>2022-08-27T04:15:25.000Z</time>
      </trkpt>
      <trkpt lat="45.1984" lon="5.73391">
        <ele>213.19999694824</ele>
        <time>2022-08-27T04:15:32.000Z</time>
      </trkpt>
      <trkpt lat="45.19859" lon="5.73396">
        <ele>213</ele>
        <time>2022-08-27T04:15:40.000Z</time>
      </trkpt>
      <trkpt lat="45.19879" lon="5.73399">
        <ele>213.39999389648</ele>
        <time>2022-08-27T04:15:49.000Z</time>
      </trkpt>
      <trkpt lat="45.19881" lon="5.734">
        <ele>213.39999389648</ele>
        <time>2022-08-27T04:15:50.000Z</time>
      </trkpt>
      <trkpt lat="45.19896" lon="5.73404">
        <ele>213</ele>
        <time>2022-08-27T04:15:57.000Z</time>
      </trkpt>
      <trkpt lat="45.19912" lon="5.7341">
        <ele>213.19999694824</ele>
        <time>2022-08-27T04:16:04.000Z</time>
      </trkpt>
      <trkpt lat="45.19924" lon="5.73413">
        <ele>213</ele>
        <time>2022-08-27T04:16:09.000Z</time>
      </trkpt>
      <trkpt lat="45.19931" lon="5.73415">
        <ele>212.80000305176</ele>
        <time>2022-08-27T04:16:12.000Z</time>
      </trkpt>
      <trkpt lat="45.19945" lon="5.73418">
        <ele>212.80000305176</ele>
        <time>2022-08-27T04:16:20.000Z</time>
      </trkpt>
      <trkpt lat="45.19955" lon="5.73422">
        <ele>213.19999694824</ele>
        <time>2022-08-27T04:16:26.000Z</time>
      </trkpt>
      <trkpt lat="45.19973" lon="5.73428">
        <ele>213.19999694824</ele>
        <time>2022-08-27T04:16:34.000Z</time>
      </trkpt>
      <trkpt lat="45.19975" lon="5.73428">
        <ele>213</ele>
        <time>2022-08-27T04:16:35.000Z</time>
      </trkpt>
      <trkpt lat="45.19992" lon="5.73435">
        <ele>213.19999694824</ele>
        <time>2022-08-27T04:16:43.000Z</time>
      </trkpt>
      <trkpt lat="45.20007" lon="5.73443">
        <ele>213.19999694824</ele>
        <time>2022-08-27T04:16:50.000Z</time>
      </trkpt>
      <trkpt lat="45.20009" lon="5.73444">
        <ele>213.19999694824</ele>
        <time>2022-08-27T04:16:51.000Z</time>
      </trkpt>
      <trkpt lat="45.20025" lon="5.73454">
        <ele>212.60000610352</ele>
        <time>2022-08-27T04:16:59.000Z</time>
      </trkpt>
      <trkpt lat="45.20031" lon="5.73458">
        <ele>212.39999389648</ele>
        <time>2022-08-27T04:17:02.000Z</time>
      </trkpt>
      <trkpt lat="45.20038" lon="5.73463">
        <ele>212.39999389648</ele>
        <time>2022-08-27T04:17:06.000Z</time>
      </trkpt>
      <trkpt lat="45.20049" lon="5.73475">
        <ele>212.80000305176</ele>
        <time>2022-08-27T04:17:14.000Z</time>
      </trkpt>
      <trkpt lat="45.20063" lon="5.73491">
        <ele>213.19999694824</ele>
        <time>2022-08-27T04:17:22.000Z</time>
      </trkpt>
      <trkpt lat="45.20067" lon="5.73494">
        <ele>213.39999389648</ele>
        <time>2022-08-27T04:17:24.000Z</time>
      </trkpt>
      <trkpt lat="45.20079" lon="5.73503">
        <ele>213.39999389648</ele>
        <time>2022-08-27T04:17:30.000Z</time>
      </trkpt>
      <trkpt lat="45.20093" lon="5.73515">
        <ele>213.60000610352</ele>
        <time>2022-08-27T04:17:38.000Z</time>
      </trkpt>
      <trkpt lat="45.20105" lon="5.73534">
        <ele>213.19999694824</ele>
        <time>2022-08-27T04:17:46.000Z</time>
      </trkpt>
      <trkpt lat="45.20115" lon="5.73547">
        <ele>213.39999389648</ele>
        <time>2022-08-27T04:17:52.000Z</time>
      </trkpt>
      <trkpt lat="45.20128" lon="5.73567">
        <ele>213.39999389648</ele>
        <time>2022-08-27T04:18:01.000Z</time>
      </trkpt>
      <trkpt lat="45.2013" lon="5.7357">
        <ele>213.39999389648</ele>
        <time>2022-08-27T04:18:02.000Z</time>
      </trkpt>
      <trkpt lat="45.20139" lon="5.73586">
        <ele>213.19999694824</ele>
        <time>2022-08-27T04:18:08.000Z</time>
      </trkpt>
      <trkpt lat="45.20141" lon="5.73588">
        <ele>213.19999694824</ele>
        <time>2022-08-27T04:18:09.000Z</time>
      </trkpt>
      <trkpt lat="45.20152" lon="5.73613">
        <ele>213.19999694824</ele>
        <time>2022-08-27T04:18:18.000Z</time>
      </trkpt>
      <trkpt lat="45.2016" lon="5.73632">
        <ele>213.19999694824</ele>
        <time>2022-08-27T04:18:26.000Z</time>
      </trkpt>
      <trkpt lat="45.20162" lon="5.73637">
        <ele>213.19999694824</ele>
        <time>2022-08-27T04:18:28.000Z</time>
      </trkpt>
      <trkpt lat="45.20168" lon="5.73665">
        <ele>213.19999694824</ele>
        <time>2022-08-27T04:18:37.000Z</time>
      </trkpt>
      <trkpt lat="45.20169" lon="5.73668">
        <ele>213.19999694824</ele>
        <time>2022-08-27T04:18:38.000Z</time>
      </trkpt>
      <trkpt lat="45.20174" lon="5.73697">
        <ele>213.39999389648</ele>
        <time>2022-08-27T04:18:46.000Z</time>
      </trkpt>
      <trkpt lat="45.20178" lon="5.73723">
        <ele>213.39999389648</ele>
        <time>2022-08-27T04:18:55.000Z</time>
      </trkpt>
      <trkpt lat="45.20179" lon="5.73731">
        <ele>213.39999389648</ele>
        <time>2022-08-27T04:18:58.000Z</time>
      </trkpt>
      <trkpt lat="45.20179" lon="5.73757">
        <ele>213.39999389648</ele>
        <time>2022-08-27T04:19:06.000Z</time>
      </trkpt>
      <trkpt lat="45.2018" lon="5.73778">
        <ele>213.19999694824</ele>
        <time>2022-08-27T04:19:13.000Z</time>
      </trkpt>
      <trkpt lat="45.20179" lon="5.73801">
        <ele>213.19999694824</ele>
        <time>2022-08-27T04:19:21.000Z</time>
      </trkpt>
      <trkpt lat="45.20177" lon="5.73826">
        <ele>213</ele>
        <time>2022-08-27T04:19:29.000Z</time>
      </trkpt>
      <trkpt lat="45.20178" lon="5.73828">
        <ele>213</ele>
        <time>2022-08-27T04:19:31.000Z</time>
      </trkpt>
      <trkpt lat="45.20179" lon="5.73832">
        <ele>212.80000305176</ele>
        <time>2022-08-27T04:19:34.000Z</time>
      </trkpt>
      <trkpt lat="45.20178" lon="5.73841">
        <ele>212</ele>
        <time>2022-08-27T04:19:38.000Z</time>
      </trkpt>
      <trkpt lat="45.20177" lon="5.73846">
        <ele>211.60000610352</ele>
        <time>2022-08-27T04:19:40.000Z</time>
      </trkpt>
      <trkpt lat="45.20176" lon="5.73848">
        <ele>211.60000610352</ele>
        <time>2022-08-27T04:19:41.000Z</time>
      </trkpt>
      <trkpt lat="45.20171" lon="5.73863">
        <ele>211.19999694824</ele>
        <time>2022-08-27T04:19:48.000Z</time>
      </trkpt>
      <trkpt lat="45.20168" lon="5.73872">
        <ele>211.19999694824</ele>
        <time>2022-08-27T04:19:52.000Z</time>
      </trkpt>
      <trkpt lat="45.20165" lon="5.73877">
        <ele>211.19999694824</ele>
        <time>2022-08-27T04:19:55.000Z</time>
      </trkpt>
      <trkpt lat="45.20155" lon="5.73894">
        <ele>211.60000610352</ele>
        <time>2022-08-27T04:20:05.000Z</time>
      </trkpt>
      <trkpt lat="45.20145" lon="5.7391">
        <ele>211.19999694824</ele>
        <time>2022-08-27T04:20:13.000Z</time>
      </trkpt>
      <trkpt lat="45.20135" lon="5.73926">
        <ele>212.19999694824</ele>
        <time>2022-08-27T04:20:20.000Z</time>
      </trkpt>
      <trkpt lat="45.20126" lon="5.73944">
        <ele>212.39999389648</ele>
        <time>2022-08-27T04:20:28.000Z</time>
      </trkpt>
      <trkpt lat="45.20117" lon="5.7396">
        <ele>212</ele>
        <time>2022-08-27T04:20:36.000Z</time>
      </trkpt>
      <trkpt lat="45.20108" lon="5.73972">
        <ele>211.80000305176</ele>
        <time>2022-08-27T04:20:43.000Z</time>
      </trkpt>
      <trkpt lat="45.20097" lon="5.73987">
        <ele>211</ele>
        <time>2022-08-27T04:20:51.000Z</time>
      </trkpt>
      <trkpt lat="45.20091" lon="5.73994">
        <ele>210.80000305176</ele>
        <time>2022-08-27T04:20:57.000Z</time>
      </trkpt>
      <trkpt lat="45.2009" lon="5.73995">
        <ele>210.80000305176</ele>
        <time>2022-08-27T04:20:58.000Z</time>
      </trkpt>
      <trkpt lat="45.20077" lon="5.74007">
        <ele>211</ele>
        <time>2022-08-27T04:21:08.000Z</time>
      </trkpt>
      <trkpt lat="45.20066" lon="5.74021">
        <ele>211</ele>
        <time>2022-08-27T04:21:17.000Z</time>
      </trkpt>
      <trkpt lat="45.20054" lon="5.74036">
        <ele>211.39999389648</ele>
        <time>2022-08-27T04:21:25.000Z</time>
      </trkpt>
      <trkpt lat="45.20043" lon="5.74052">
        <ele>211.80000305176</ele>
        <time>2022-08-27T04:21:33.000Z</time>
      </trkpt>
      <trkpt lat="45.20042" lon="5.74055">
        <ele>211.80000305176</ele>
        <time>2022-08-27T04:21:34.000Z</time>
      </trkpt>
      <trkpt lat="45.20036" lon="5.74077">
        <ele>211.60000610352</ele>
        <time>2022-08-27T04:21:46.000Z</time>
      </trkpt>
      <trkpt lat="45.2003" lon="5.74096">
        <ele>211.60000610352</ele>
        <time>2022-08-27T04:21:51.000Z</time>
      </trkpt>
      <trkpt lat="45.20024" lon="5.74104">
        <ele>211.60000610352</ele>
        <time>2022-08-27T04:21:56.000Z</time>
      </trkpt>
      <trkpt lat="45.20021" lon="5.74108">
        <ele>211.60000610352</ele>
        <time>2022-08-27T04:21:58.000Z</time>
      </trkpt>
      <trkpt lat="45.20011" lon="5.74123">
        <ele>211.60000610352</ele>
        <time>2022-08-27T04:22:05.000Z</time>
      </trkpt>
      <trkpt lat="45.20003" lon="5.74131">
        <ele>211.39999389648</ele>
        <time>2022-08-27T04:22:12.000Z</time>
      </trkpt>
      <trkpt lat="45.19989" lon="5.74143">
        <ele>211.60000610352</ele>
        <time>2022-08-27T04:22:21.000Z</time>
      </trkpt>
      <trkpt lat="45.19971" lon="5.74155">
        <ele>211.60000610352</ele>
        <time>2022-08-27T04:22:31.000Z</time>
      </trkpt>
      <trkpt lat="45.19958" lon="5.74165">
        <ele>211.60000610352</ele>
        <time>2022-08-27T04:22:39.000Z</time>
      </trkpt>
      <trkpt lat="45.19944" lon="5.74173">
        <ele>211.60000610352</ele>
        <time>2022-08-27T04:22:47.000Z</time>
      </trkpt>
      <trkpt lat="45.1993" lon="5.74182">
        <ele>211.80000305176</ele>
        <time>2022-08-27T04:22:55.000Z</time>
      </trkpt>
      <trkpt lat="45.19919" lon="5.74189">
        <ele>211.60000610352</ele>
        <time>2022-08-27T04:23:01.000Z</time>
      </trkpt>
      <trkpt lat="45.199" lon="5.74201">
        <ele>211.80000305176</ele>
        <time>2022-08-27T04:23:10.000Z</time>
      </trkpt>
      <trkpt lat="45.19898" lon="5.74202">
        <ele>211.80000305176</ele>
        <time>2022-08-27T04:23:11.000Z</time>
      </trkpt>
      <trkpt lat="45.19885" lon="5.7421">
        <ele>211.60000610352</ele>
        <time>2022-08-27T04:23:19.000Z</time>
      </trkpt>
      <trkpt lat="45.19867" lon="5.74218">
        <ele>211.80000305176</ele>
        <time>2022-08-27T04:23:28.000Z</time>
      </trkpt>
      <trkpt lat="45.1985" lon="5.74226">
        <ele>211.60000610352</ele>
        <time>2022-08-27T04:23:36.000Z</time>
      </trkpt>
      <trkpt lat="45.19846" lon="5.74227">
        <ele>211.80000305176</ele>
        <time>2022-08-27T04:23:38.000Z</time>
      </trkpt>
      <trkpt lat="45.19836" lon="5.74231">
        <ele>211.80000305176</ele>
        <time>2022-08-27T04:23:43.000Z</time>
      </trkpt>
      <trkpt lat="45.19818" lon="5.74239">
        <ele>211.80000305176</ele>
        <time>2022-08-27T04:23:51.000Z</time>
      </trkpt>
      <trkpt lat="45.19809" lon="5.74243">
        <ele>212</ele>
        <time>2022-08-27T04:23:55.000Z</time>
      </trkpt>
      <trkpt lat="45.19791" lon="5.74247">
        <ele>211.80000305176</ele>
        <time>2022-08-27T04:24:03.000Z</time>
      </trkpt>
      <trkpt lat="45.19782" lon="5.74249">
        <ele>211.80000305176</ele>
        <time>2022-08-27T04:24:08.000Z</time>
      </trkpt>
      <trkpt lat="45.19769" lon="5.74249">
        <ele>211.80000305176</ele>
        <time>2022-08-27T04:24:17.000Z</time>
      </trkpt>
      <trkpt lat="45.19755" lon="5.74252">
        <ele>211.80000305176</ele>
        <time>2022-08-27T04:24:24.000Z</time>
      </trkpt>
      <trkpt lat="45.19743" lon="5.74254">
        <ele>212</ele>
        <time>2022-08-27T04:24:30.000Z</time>
      </trkpt>
      <trkpt lat="45.19737" lon="5.74255">
        <ele>212</ele>
        <time>2022-08-27T04:24:33.000Z</time>
      </trkpt>
      <trkpt lat="45.19729" lon="5.74256">
        <ele>211.80000305176</ele>
        <time>2022-08-27T04:24:37.000Z</time>
      </trkpt>
      <trkpt lat="45.19711" lon="5.74256">
        <ele>212</ele>
        <time>2022-08-27T04:24:46.000Z</time>
      </trkpt>
      <trkpt lat="45.19698" lon="5.74256">
        <ele>212</ele>
        <time>2022-08-27T04:24:52.000Z</time>
      </trkpt>
      <trkpt lat="45.19686" lon="5.74257">
        <ele>212</ele>
        <time>2022-08-27T04:24:58.000Z</time>
      </trkpt>
      <trkpt lat="45.19682" lon="5.74258">
        <ele>211.80000305176</ele>
        <time>2022-08-27T04:25:01.000Z</time>
      </trkpt>
      <trkpt lat="45.19681" lon="5.74258">
        <ele>211.80000305176</ele>
        <time>2022-08-27T04:25:03.000Z</time>
      </trkpt>
      <trkpt lat="45.19681" lon="5.74257">
        <ele>211.80000305176</ele>
        <time>2022-08-27T04:25:04.000Z</time>
      </trkpt>
      <trkpt lat="45.19681" lon="5.74257">
        <ele>211.80000305176</ele>
        <time>2022-08-27T04:25:06.000Z</time>
      </trkpt>
      <trkpt lat="45.19682" lon="5.74255">
        <ele>211.80000305176</ele>
        <time>2022-08-27T04:25:13.000Z</time>
      </trkpt>
      <trkpt lat="45.19669" lon="5.74256">
        <ele>211.80000305176</ele>
        <time>2022-08-27T04:25:25.000Z</time>
      </trkpt>
      <trkpt lat="45.19656" lon="5.74254">
        <ele>212</ele>
        <time>2022-08-27T04:25:31.000Z</time>
      </trkpt>
      <trkpt lat="45.19642" lon="5.74251">
        <ele>211.80000305176</ele>
        <time>2022-08-27T04:25:39.000Z</time>
      </trkpt>
      <trkpt lat="45.19629" lon="5.74249">
        <ele>212</ele>
        <time>2022-08-27T04:25:47.000Z</time>
      </trkpt>
      <trkpt lat="45.19611" lon="5.74245">
        <ele>212</ele>
        <time>2022-08-27T04:25:56.000Z</time>
      </trkpt>
      <trkpt lat="45.19591" lon="5.74241">
        <ele>212</ele>
        <time>2022-08-27T04:26:05.000Z</time>
      </trkpt>
      <trkpt lat="45.19577" lon="5.74239">
        <ele>212.19999694824</ele>
        <time>2022-08-27T04:26:12.000Z</time>
      </trkpt>
      <trkpt lat="45.1956" lon="5.74236">
        <ele>212</ele>
        <time>2022-08-27T04:26:20.000Z</time>
      </trkpt>
      <trkpt lat="45.19547" lon="5.74233">
        <ele>211.80000305176</ele>
        <time>2022-08-27T04:26:27.000Z</time>
      </trkpt>
      <trkpt lat="45.19531" lon="5.7423">
        <ele>211.80000305176</ele>
        <time>2022-08-27T04:26:34.000Z</time>
      </trkpt>
      <trkpt lat="45.19518" lon="5.74223">
        <ele>212.19999694824</ele>
        <time>2022-08-27T04:26:41.000Z</time>
      </trkpt>
      <trkpt lat="45.19512" lon="5.74219">
        <ele>213.19999694824</ele>
        <time>2022-08-27T04:26:47.000Z</time>
      </trkpt>
      <trkpt lat="45.19511" lon="5.74219">
        <ele>213.19999694824</ele>
        <time>2022-08-27T04:26:48.000Z</time>
      </trkpt>
      <trkpt lat="45.19508" lon="5.74214">
        <ele>214.19999694824</ele>
        <time>2022-08-27T04:26:53.000Z</time>
      </trkpt>
      <trkpt lat="45.19507" lon="5.74209">
        <ele>214.60000610352</ele>
        <time>2022-08-27T04:26:57.000Z</time>
      </trkpt>
      <trkpt lat="45.19513" lon="5.74209">
        <ele>214.39999389648</ele>
        <time>2022-08-27T04:27:02.000Z</time>
      </trkpt>
      <trkpt lat="45.19531" lon="5.74215">
        <ele>213.60000610352</ele>
        <time>2022-08-27T04:27:11.000Z</time>
      </trkpt>
      <trkpt lat="45.19533" lon="5.74215">
        <ele>213.60000610352</ele>
        <time>2022-08-27T04:27:12.000Z</time>
      </trkpt>
      <trkpt lat="45.1955" lon="5.74218">
        <ele>213.19999694824</ele>
        <time>2022-08-27T04:27:20.000Z</time>
      </trkpt>
      <trkpt lat="45.19564" lon="5.7422">
        <ele>213.19999694824</ele>
        <time>2022-08-27T04:27:27.000Z</time>
      </trkpt>
      <trkpt lat="45.1958" lon="5.74223">
        <ele>213.19999694824</ele>
        <time>2022-08-27T04:27:35.000Z</time>
      </trkpt>
      <trkpt lat="45.19582" lon="5.74223">
        <ele>213.19999694824</ele>
        <time>2022-08-27T04:27:36.000Z</time>
      </trkpt>
      <trkpt lat="45.19598" lon="5.74225">
        <ele>213</ele>
        <time>2022-08-27T04:27:44.000Z</time>
      </trkpt>
      <trkpt lat="45.19613" lon="5.74227">
        <ele>213.19999694824</ele>
        <time>2022-08-27T04:27:52.000Z</time>
      </trkpt>
      <trkpt lat="45.19623" lon="5.74228">
        <ele>212.80000305176</ele>
        <time>2022-08-27T04:27:59.000Z</time>
      </trkpt>
      <trkpt lat="45.19637" lon="5.74233">
        <ele>212.60000610352</ele>
        <time>2022-08-27T04:28:08.000Z</time>
      </trkpt>
      <trkpt lat="45.19652" lon="5.74235">
        <ele>212.60000610352</ele>
        <time>2022-08-27T04:28:16.000Z</time>
      </trkpt>
      <trkpt lat="45.19664" lon="5.74237">
        <ele>212.80000305176</ele>
        <time>2022-08-27T04:28:22.000Z</time>
      </trkpt>
      <trkpt lat="45.19668" lon="5.74237">
        <ele>212.80000305176</ele>
        <time>2022-08-27T04:28:24.000Z</time>
      </trkpt>
      <trkpt lat="45.19684" lon="5.74238">
        <ele>212.39999389648</ele>
        <time>2022-08-27T04:28:32.000Z</time>
      </trkpt>
      <trkpt lat="45.19686" lon="5.74237">
        <ele>212.39999389648</ele>
        <time>2022-08-27T04:28:33.000Z</time>
      </trkpt>
      <trkpt lat="45.19702" lon="5.74236">
        <ele>212.39999389648</ele>
        <time>2022-08-27T04:28:41.000Z</time>
      </trkpt>
      <trkpt lat="45.19703" lon="5.74236">
        <ele>212.39999389648</ele>
        <time>2022-08-27T04:28:42.000Z</time>
      </trkpt>
      <trkpt lat="45.19722" lon="5.74229">
        <ele>212.39999389648</ele>
        <time>2022-08-27T04:28:51.000Z</time>
      </trkpt>
      <trkpt lat="45.19726" lon="5.74229">
        <ele>212.39999389648</ele>
        <time>2022-08-27T04:28:54.000Z</time>
      </trkpt>
      <trkpt lat="45.19727" lon="5.74226">
        <ele>212.39999389648</ele>
        <time>2022-08-27T04:28:56.000Z</time>
      </trkpt>
      <trkpt lat="45.19724" lon="5.74209">
        <ele>212.39999389648</ele>
        <time>2022-08-27T04:29:03.000Z</time>
      </trkpt>
      <trkpt lat="45.19721" lon="5.74192">
        <ele>212.39999389648</ele>
        <time>2022-08-27T04:29:09.000Z</time>
      </trkpt>
      <trkpt lat="45.19719" lon="5.74185">
        <ele>212.39999389648</ele>
        <time>2022-08-27T04:29:12.000Z</time>
      </trkpt>
      <trkpt lat="45.19715" lon="5.74163">
        <ele>212.60000610352</ele>
        <time>2022-08-27T04:29:19.000Z</time>
      </trkpt>
      <trkpt lat="45.19714" lon="5.7416">
        <ele>212.60000610352</ele>
        <time>2022-08-27T04:29:20.000Z</time>
      </trkpt>
      <trkpt lat="45.19714" lon="5.74157">
        <ele>212.60000610352</ele>
        <time>2022-08-27T04:29:21.000Z</time>
      </trkpt>
      <trkpt lat="45.19711" lon="5.74143">
        <ele>212.60000610352</ele>
        <time>2022-08-27T04:29:26.000Z</time>
      </trkpt>
      <trkpt lat="45.1971" lon="5.74135">
        <ele>212.80000305176</ele>
        <time>2022-08-27T04:29:29.000Z</time>
      </trkpt>
      <trkpt lat="45.19709" lon="5.74129">
        <ele>212.80000305176</ele>
        <time>2022-08-27T04:29:31.000Z</time>
      </trkpt>
      <trkpt lat="45.19705" lon="5.74105">
        <ele>212.80000305176</ele>
        <time>2022-08-27T04:29:40.000Z</time>
      </trkpt>
      <trkpt lat="45.19702" lon="5.74084">
        <ele>212.60000610352</ele>
        <time>2022-08-27T04:29:47.000Z</time>
      </trkpt>
      <trkpt lat="45.19702" lon="5.74079">
        <ele>212.60000610352</ele>
        <time>2022-08-27T04:29:49.000Z</time>
      </trkpt>
      <trkpt lat="45.197" lon="5.74059">
        <ele>212.80000305176</ele>
        <time>2022-08-27T04:29:56.000Z</time>
      </trkpt>
      <trkpt lat="45.19698" lon="5.74047">
        <ele>212.80000305176</ele>
        <time>2022-08-27T04:30:01.000Z</time>
      </trkpt>
      <trkpt lat="45.19694" lon="5.74026">
        <ele>212.80000305176</ele>
        <time>2022-08-27T04:30:08.000Z</time>
      </trkpt>
      <trkpt lat="45.19694" lon="5.74019">
        <ele>212.60000610352</ele>
        <time>2022-08-27T04:30:10.000Z</time>
      </trkpt>
      <trkpt lat="45.19693" lon="5.7401">
        <ele>212.39999389648</ele>
        <time>2022-08-27T04:30:14.000Z</time>
      </trkpt>
      <trkpt lat="45.19692" lon="5.74008">
        <ele>212.19999694824</ele>
        <time>2022-08-27T04:30:15.000Z</time>
      </trkpt>
      <trkpt lat="45.19689" lon="5.74005">
        <ele>212.19999694824</ele>
        <time>2022-08-27T04:30:17.000Z</time>
      </trkpt>
      <trkpt lat="45.19685" lon="5.74002">
        <ele>212.19999694824</ele>
        <time>2022-08-27T04:30:20.000Z</time>
      </trkpt>
      <trkpt lat="45.19672" lon="5.73994">
        <ele>212.19999694824</ele>
        <time>2022-08-27T04:30:28.000Z</time>
      </trkpt>
      <trkpt lat="45.19659" lon="5.73988">
        <ele>212.19999694824</ele>
        <time>2022-08-27T04:30:35.000Z</time>
      </trkpt>
      <trkpt lat="45.19646" lon="5.73988">
        <ele>212.39999389648</ele>
        <time>2022-08-27T04:30:40.000Z</time>
      </trkpt>
      <trkpt lat="45.19639" lon="5.73989">
        <ele>212.19999694824</ele>
        <time>2022-08-27T04:30:43.000Z</time>
      </trkpt>
      <trkpt lat="45.19622" lon="5.73984">
        <ele>212.19999694824</ele>
        <time>2022-08-27T04:30:50.000Z</time>
      </trkpt>
      <trkpt lat="45.19621" lon="5.73977">
        <ele>212.39999389648</ele>
        <time>2022-08-27T04:30:53.000Z</time>
      </trkpt>
      <trkpt lat="45.19621" lon="5.73971">
        <ele>212.39999389648</ele>
        <time>2022-08-27T04:30:55.000Z</time>
      </trkpt>
      <trkpt lat="45.19621" lon="5.73966">
        <ele>212.39999389648</ele>
        <time>2022-08-27T04:30:57.000Z</time>
      </trkpt>
      <trkpt lat="45.19627" lon="5.73954">
        <ele>212.39999389648</ele>
        <time>2022-08-27T04:31:03.000Z</time>
      </trkpt>
      <trkpt lat="45.19638" lon="5.73943">
        <ele>212.39999389648</ele>
        <time>2022-08-27T04:31:09.000Z</time>
      </trkpt>
      <trkpt lat="45.19644" lon="5.73937">
        <ele>212.60000610352</ele>
        <time>2022-08-27T04:31:14.000Z</time>
      </trkpt>
      <trkpt lat="45.19642" lon="5.73937">
        <ele>212.60000610352</ele>
        <time>2022-08-27T04:31:16.000Z</time>
      </trkpt>
      <trkpt lat="45.1964" lon="5.73931">
        <ele>212.39999389648</ele>
        <time>2022-08-27T04:31:21.000Z</time>
      </trkpt>
      <trkpt lat="45.19638" lon="5.73916">
        <ele>213.19999694824</ele>
        <time>2022-08-27T04:31:30.000Z</time>
      </trkpt>
      <trkpt lat="45.1964" lon="5.73908">
        <ele>214.19999694824</ele>
        <time>2022-08-27T04:31:33.000Z</time>
      </trkpt>
      <trkpt lat="45.1964" lon="5.73903">
        <ele>215.19999694824</ele>
        <time>2022-08-27T04:31:40.000Z</time>
      </trkpt>
      <trkpt lat="45.1964" lon="5.739">
        <ele>216.19999694824</ele>
        <time>2022-08-27T04:31:44.000Z</time>
      </trkpt>
      <trkpt lat="45.1964" lon="5.73897">
        <ele>216.80000305176</ele>
        <time>2022-08-27T04:31:46.000Z</time>
      </trkpt>
      <trkpt lat="45.19641" lon="5.73896">
        <ele>217.39999389648</ele>
        <time>2022-08-27T04:31:48.000Z</time>
      </trkpt>
      <trkpt lat="45.19641" lon="5.73895">
        <ele>217.80000305176</ele>
        <time>2022-08-27T04:31:50.000Z</time>
      </trkpt>
      <trkpt lat="45.19641" lon="5.73889">
        <ele>218.60000610352</ele>
        <time>2022-08-27T04:31:56.000Z</time>
      </trkpt>
      <trkpt lat="45.1964" lon="5.73888">
        <ele>218.80000305176</ele>
        <time>2022-08-27T04:31:57.000Z</time>
      </trkpt>
      <trkpt lat="45.1964" lon="5.73883">
        <ele>219.60000610352</ele>
        <time>2022-08-27T04:32:00.000Z</time>
      </trkpt>
      <trkpt lat="45.19644" lon="5.7388">
        <ele>220.60000610352</ele>
        <time>2022-08-27T04:32:12.000Z</time>
      </trkpt>
      <trkpt lat="45.19648" lon="5.73876">
        <ele>220.60000610352</ele>
        <time>2022-08-27T04:32:15.000Z</time>
      </trkpt>
      <trkpt lat="45.19657" lon="5.73865">
        <ele>220.60000610352</ele>
        <time>2022-08-27T04:32:21.000Z</time>
      </trkpt>
    </trkseg>
  </trk>
</gpx>